[[{"header":{"parameterUnit":"m.s-1","parameterCategory":1,"la1":30.6,"la2":28.766,"lo1":-90.7593,"lo2":-88.6598,"dy":0.0162,"dx":0.0183,"nx":116,"ny":114,"refTime":"2024-06-24T12:00:00:Z","depth":0,"parameterNumber":2,"parameterNumberName":"U-component_of_WINDS"},"data":[0.0,0.0,0.0,0.0,0.0,0.0,0.0,0.0,0.0,0.0,0.0,0.0,0.0,0.0,0.0,0.0,0.0,0.0,0.0,0.0,0.0,0.0,0.0,0.0,0.0,0.0,0.0,0.0,0.0,0.0,0.0,0.0,0.0,0.0,0.0,0.0,0.0,0.0,0.0,0.0,0.0,0.0,0.0,0.0,0.0,0.0,0.0,0.0,0.0,0.0,0.0,0.0,0.0,0.0,0.0,0.0,0.0,0.0,0.0,0.0,0.0,0.0,0.0,0.0,0.0,0.0,0.0,0.0,0.0,0.0,0.0,0.0,0.0,0.0,0.0,0.0,0.0,0.0,0.0,0.0,0.0,0.0,0.0,0.0,0.0,0.0,0.0,0.0,0.0,0.0,0.0,0.0,0.0,0.0,0.0,0.0,0.0,0.0,0.0,0.0,0.0,0.0,0.0,0.0,0.0,0.0,0.0,0.0,0.0,0.0,0.0,0.0,0.0,0.0,0.0,0.0,0.0,0.0,0.0,0.0,0.0,0.0,0.0,0.0,0.0,0.0,0.0,0.0,0.0,0.0,0.0,0.0,0.0,0.0,0.0,0.0,0.0,0.0,0.0,0.0,0.0,0.0,0.0,0.0,0.0,0.0,0.0,0.0,0.0,0.0,0.0,0.0,0.0,0.0,0.0,0.0,0.0,0.0,0.0,0.0,0.0,0.0,0.0,0.0,0.0,0.0,0.0,0.0,0.0,0.0,0.0,0.0,0.0,0.0,0.0,0.0,0.0,0.0,0.0,0.0,0.0,0.0,0.0,0.0,0.0,0.0,0.0,0.0,0.0,0.0,0.0,0.0,0.0,0.0,0.0,0.0,0.0,0.0,0.0,0.0,0.0,0.0,0.0,0.0,0.0,0.0,0.0,0.0,0.0,0.0,0.0,0.0,0.0,0.0,0.0,0.0,0.0,0.0,0.0,0.0,0.0,0.0,0.0,0.0,0.0,0.0,0.0,0.0,0.0,0.0,0.0,0.0,0.0,0.0,0.0,0.0,0.0,0.0,0.0,0.0,0.0,0.0,0.0,0.0,0.0,0.0,0.0,0.0,0.0,0.0,0.0,0.0,0.0,0.0,0.0,0.0,0.0,0.0,0.0,0.0,0.0,0.0,0.0,0.0,0.0,0.0,0.0,0.0,0.0,0.0,0.0,0.0,0.0,0.0,0.0,0.0,0.0,0.0,0.0,0.0,0.0,0.0,0.0,0.0,0.0,0.0,0.0,0.0,0.0,0.0,0.0,0.0,0.0,0.0,0.0,0.0,0.0,0.0,0.0,0.0,0.0,0.0,0.0,0.0,0.0,0.0,0.0,0.0,0.0,0.0,0.0,0.0,0.0,0.0,0.0,0.0,0.0,0.0,0.0,0.0,0.0,0.0,0.0,0.0,0.0,0.0,0.0,0.0,0.0,0.0,0.0,0.0,0.0,0.0,0.0,0.0,0.0,0.0,0.0,0.0,0.0,0.0,0.0,0.0,0.0,0.0,0.0,0.0,0.0,0.0,0.0,0.0,0.0,0.0,0.0,0.0,0.0,0.0,0.0,0.0,0.0,0.0,0.0,0.0,0.0,0.0,0.0,0.0,0.0,0.0,0.0,0.0,0.0,0.0,0.0,0.0,0.0,0.0,0.0,0.0,0.0,0.0,0.0,0.0,0.0,0.0,0.0,0.0,0.0,0.0,0.0,0.0,0.0,0.0,0.0,0.0,0.0,0.0,0.0,0.0,0.0,0.0,0.0,0.0,0.0,0.0,0.0,0.0,0.0,0.0,0.0,0.0,0.0,0.0,0.0,0.0,0.0,0.0,0.0,0.0,0.0,0.0,0.0,0.0,0.0,0.0,0.0,0.0,0.0,0.0,0.0,0.0,0.0,0.0,0.0,0.0,0.0,0.0,0.0,0.0,0.0,0.0,0.0,0.0,0.0,0.0,0.0,0.0,0.0,0.0,0.0,0.0,0.0,0.0,0.0,0.0,0.0,0.0,0.0,0.0,0.0,0.0,0.0,0.0,0.0,0.0,0.0,0.0,0.0,0.0,0.0,0.0,0.0,0.0,0.0,0.0,0.0,0.0,0.0,0.0,0.0,0.0,0.0,0.0,0.0,0.0,0.0,0.0,0.0,0.0,0.0,0.0,0.0,0.0,0.0,0.0,0.0,0.0,0.0,0.0,0.0,0.0,0.0,0.0,0.0,0.0,0.0,0.0,0.0,0.0,0.0,0.0,0.0,0.0,0.0,0.0,0.0,0.0,0.0,0.0,0.0,0.0,0.0,0.0,0.0,0.0,0.0,0.0,0.0,0.0,0.0,0.0,0.0,0.0,0.0,0.0,0.0,0.0,0.0,0.0,0.0,0.0,0.0,0.0,0.0,0.0,0.0,0.0,0.0,0.0,0.0,0.0,0.0,0.0,0.0,0.0,0.0,0.0,0.0,0.0,0.0,0.0,0.0,0.0,0.0,0.0,0.0,0.0,0.0,0.0,0.0,0.0,0.0,0.0,0.0,0.0,0.0,0.0,0.0,0.0,0.0,0.0,0.0,0.0,0.0,0.0,0.0,0.0,0.0,0.0,0.0,0.0,0.0,0.0,0.0,0.0,0.0,0.0,0.0,0.0,0.0,0.0,0.0,0.0,0.0,0.0,0.0,0.0,0.0,0.0,0.0,0.0,0.0,0.0,0.0,0.0,0.0,0.0,0.0,0.0,0.0,0.0,0.0,0.0,0.0,0.0,0.0,0.0,0.0,0.0,0.0,0.0,0.0,0.0,0.0,0.0,0.0,0.0,0.0,0.0,0.0,0.0,0.0,0.0,0.0,0.0,0.0,0.0,0.0,0.0,0.0,0.0,0.0,0.0,0.0,0.0,0.0,0.0,0.0,0.0,0.0,0.0,0.0,0.0,0.0,0.0,0.0,0.0,0.0,0.0,0.0,0.0,0.0,0.0,0.0,0.0,0.0,0.0,0.0,0.0,0.0,0.0,0.0,0.0,0.0,0.0,0.0,0.0,0.0,0.0,0.0,0.0,0.0,0.0,0.0,0.0,0.0,0.0,0.0,0.0,0.0,0.0,0.0,0.0,0.0,0.0,0.0,0.0,0.0,0.0,0.0,0.0,0.0,0.0,0.0,0.0,0.0,0.0,0.0,0.0,0.0,0.0,0.0,0.0,0.0,0.0,0.0,0.0,0.0,0.0,0.0,0.0,0.0,0.0,0.0,0.0,0.0,0.0,0.0,0.0,0.0,0.0,0.0,0.0,0.0,0.0,0.0,0.0,0.0,0.0,0.0,0.0,0.0,0.0,0.0,0.0,0.0,0.0,0.0,0.0,0.0,0.0,0.0,0.0,0.0,0.0,0.0,0.0,0.0,0.0,0.0,0.0,0.0,0.0,0.0,0.0,0.0,0.0,0.0,0.0,0.0,0.0,0.0,0.0,0.0,0.0,0.0,0.0,0.0,0.0,0.0,0.0,0.0,0.0,0.0,0.0,0.0,0.0,0.0,0.0,0.0,0.0,0.0,0.0,0.0,0.0,0.0,0.0,0.0,0.0,0.0,0.0,0.0,0.0,0.0,0.0,0.0,0.0,0.0,0.0,0.0,0.0,0.0,0.0,0.0,0.0,0.0,0.0,0.0,0.0,0.0,0.0,0.0,0.0,0.0,0.0,0.0,0.0,0.0,0.0,0.0,0.0,0.0,0.0,0.0,0.0,0.0,0.0,0.0,0.0,0.0,0.0,0.0,0.0,0.0,0.0,0.0,0.0,0.0,0.0,0.0,0.0,0.0,0.0,0.0,0.0,0.0,0.0,0.0,0.0,0.0,0.0,0.0,0.0,0.0,0.0,0.0,0.0,0.0,0.0,0.0,0.0,0.0,0.0,0.0,0.0,0.0,0.0,0.0,0.0,0.0,0.0,0.0,0.0,0.0,0.0,0.0,0.0,0.0,0.0,0.0,0.0,0.0,0.0,0.0,0.0,0.0,0.0,0.0,0.0,0.0,0.0,0.0,0.0,0.0,0.0,0.0,0.0,0.0,0.0,0.0,0.0,0.0,0.0,0.0,0.0,0.0,0.0,0.0,0.0,0.0,0.0,0.0,0.0,0.0,0.0,0.0,0.0,0.0,0.0,0.0,0.0,0.0,0.0,0.0,0.0,0.0,0.0,0.0,0.0,0.0,0.0,0.0,0.0,0.0,0.0,0.0,0.0,0.0,0.0,0.0,0.0,0.0,0.0,0.0,0.0,0.0,0.0,0.0,0.0,0.0,0.0,0.0,0.0,0.0,0.0,0.0,0.0,0.0,0.0,0.0,0.0,0.0,0.0,0.0,0.0,0.0,0.0,0.0,0.0,0.0,0.0,0.0,0.0,0.0,0.0,0.0,0.0,0.0,0.0,0.0,0.0,0.0,0.0,0.0,0.0,0.0,0.0,0.0,0.0,0.0,0.0,0.0,0.0,0.0,0.0,0.0,0.0,0.0,0.0,0.0,0.0,0.0,0.0,0.0,0.0,0.0,0.0,0.0,0.0,0.0,0.0,0.0,0.0,0.0,0.0,0.0,0.0,0.0,0.0,0.0,0.0,0.0,0.0,0.0,0.0,0.0,0.0,0.0,0.0,0.0,0.0,0.0,0.0,0.0,0.0,0.0,0.0,0.0,0.0,0.0,0.0,0.0,0.0,0.0,0.0,0.0,0.0,0.0,0.0,0.0,0.0,0.0,0.0,0.0,0.0,0.0,0.0,0.0,0.0,0.0,0.0,0.0,0.0,0.0,0.0,0.0,0.0,0.0,0.0,0.0,0.0,0.0,0.0,0.0,0.0,0.0,0.0,0.0,0.0,0.0,0.0,0.0,0.0,0.0,0.0,0.0,0.0,0.0,0.0,0.0,0.0,0.0,0.0,0.0,0.0,0.0,0.0,0.0,0.0,0.0,0.0,0.0,0.0,0.0,0.0,0.0,0.0,0.0,0.0,0.0,0.0,0.0,0.0,0.0,0.0,0.0,0.0,0.0,0.0,0.0,0.0,0.0,0.0,0.0,0.0,0.0,0.0,0.0,0.0,0.0,0.0,0.0,0.0,0.0,0.0,0.0,0.0,0.0,0.0,0.0,0.0,0.0,0.0,0.0,0.0,0.0,0.0,0.0,0.0,0.0,0.0,0.0,0.0,0.0,0.0,0.0,0.0,0.0,0.0,0.0,0.0,0.0,0.0,0.0,0.0,0.0,0.0,0.0,0.0,0.0,0.0,0.0,0.0,0.0,0.0,0.0,0.0,0.0,0.0,0.0,0.0,0.0,0.0,0.0,0.0,0.0,0.0,0.0,0.0,0.0,0.0,0.0,0.0,0.0,0.0,0.0,0.0,0.0,0.0,0.0,0.0,0.0,0.0,0.0,0.0,0.0,0.0,0.0,0.0,0.0,0.0,0.0,0.0,0.0,0.0,0.0,0.0,0.0,0.0,0.0,0.0,0.0,0.0,0.0,0.0,0.0,0.0,0.0,0.0,0.0,0.0,0.0,0.0,0.0,0.0,0.0,0.0,0.0,0.0,0.0,0.0,0.0,0.0,0.0,0.0,0.0,0.0,0.0,0.0,0.0,0.0,0.0,0.0,0.0,0.0,0.0,0.0,0.0,0.0,0.0,0.0,0.0,0.0,0.0,0.0,0.0,0.0,0.0,0.0,0.0,0.0,0.0,0.0,0.0,0.0,0.0,0.0,0.0,0.0,0.0,0.0,0.0,0.0,0.0,0.0,0.0,0.0,0.0,0.0,0.0,0.0,0.0,0.0,0.0,0.0,0.0,0.0,0.0,0.0,0.0,0.0,0.0,0.0,0.0,0.0,0.0,0.0,0.0,0.0,0.0,0.0,0.0,0.0,0.0,0.0,0.0,0.0,0.0,0.0,0.0,0.0,0.0,0.0,0.0,0.0,0.0,0.0,0.0,0.0,0.0,0.0,0.0,0.0,0.0,0.0,0.0,0.0,0.0,0.0,0.0,0.0,0.0,0.0,0.0,0.0,0.0,0.0,0.0,0.0,0.0,0.0,0.0,0.0,0.0,0.0,0.0,0.0,0.0,0.0,-3.548,0.0,0.0,0.0,0.0,0.0,0.0,0.0,0.0,0.0,0.0,0.0,0.0,0.0,0.0,0.0,0.0,0.0,0.0,0.0,0.0,0.0,0.0,0.0,0.0,-2.3492,-2.419,-2.419,-2.419,-2.419,-2.419,0.0,0.0,0.0,0.0,0.0,-2.3108,-2.224,-2.1574,-2.1125,-2.0317,-1.9711,-1.9315,-2.0197,-2.0708,-2.0979,0.0,0.0,0.0,0.0,0.0,0.0,0.0,0.0,0.0,0.0,0.0,0.0,0.0,0.0,0.0,0.0,0.0,0.0,0.0,0.0,0.0,0.0,0.0,0.0,0.0,0.0,0.0,0.0,0.0,0.0,0.0,0.0,0.0,0.0,0.0,0.0,0.0,0.0,0.0,0.0,0.0,0.0,0.0,0.0,0.0,0.0,0.0,0.0,0.0,0.0,0.0,0.0,0.0,0.0,0.0,0.0,0.0,0.0,0.0,0.0,0.0,0.0,0.0,0.0,0.0,0.0,0.0,0.0,0.0,0.0,0.0,-3.5714,0.0,0.0,0.0,0.0,0.0,0.0,0.0,0.0,0.0,0.0,0.0,0.0,0.0,0.0,0.0,0.0,0.0,0.0,0.0,0.0,0.0,-2.1482,-2.1776,-2.3116,-2.4043,-2.419,-2.4237,-2.4256,-2.4256,0.0,0.0,0.0,0.0,-2.4543,-2.4543,-2.3051,-2.2138,-2.1825,-2.0129,-1.9297,-1.9297,-1.9297,0.0,0.0,-2.1604,0.0,0.0,0.0,0.0,0.0,0.0,0.0,0.0,0.0,0.0,0.0,0.0,0.0,0.0,0.0,0.0,0.0,0.0,0.0,0.0,0.0,0.0,0.0,0.0,0.0,0.0,0.0,0.0,0.0,0.0,0.0,0.0,0.0,0.0,0.0,0.0,0.0,0.0,0.0,0.0,0.0,0.0,0.0,0.0,0.0,0.0,0.0,0.0,0.0,0.0,0.0,0.0,0.0,0.0,0.0,0.0,0.0,0.0,0.0,0.0,0.0,0.0,0.0,-3.8245,-3.8145,-3.8528,-3.7412,-3.6819,-3.6611,-3.5948,-3.5829,-3.611,-3.5757,0.0,0.0,0.0,0.0,0.0,0.0,0.0,0.0,0.0,0.0,0.0,0.0,0.0,0.0,0.0,0.0,0.0,0.0,0.0,-2.0178,-2.1629,-2.2611,-2.3428,-2.4135,-2.4357,-2.4452,-2.4452,0.0,0.0,0.0,-2.476,-2.476,-2.476,-2.4353,-2.3427,-2.1973,-2.0177,-1.9297,-1.9297,0.0,0.0,0.0,-2.0766,-2.0674,0.0,0.0,0.0,0.0,0.0,0.0,0.0,0.0,0.0,0.0,0.0,0.0,0.0,0.0,0.0,0.0,0.0,0.0,0.0,0.0,0.0,0.0,0.0,0.0,0.0,0.0,0.0,0.0,0.0,0.0,0.0,0.0,0.0,0.0,0.0,0.0,0.0,0.0,0.0,0.0,0.0,0.0,-2.9916,-3.0026,0.0,0.0,0.0,0.0,0.0,0.0,0.0,0.0,0.0,0.0,0.0,0.0,0.0,-3.8377,-3.8377,-3.9866,-4.0341,-3.9735,-3.9625,-3.9031,-3.7997,-3.782,-3.7273,-3.6426,-3.6339,0.0,-3.6995,-3.6422,0.0,0.0,0.0,0.0,0.0,0.0,0.0,0.0,0.0,0.0,0.0,0.0,0.0,0.0,0.0,0.0,0.0,0.0,0.0,0.0,0.0,-2.1822,-2.2648,-2.3456,-2.3265,-2.3491,0.0,0.0,0.0,-2.4898,-2.4917,-2.4917,-2.4917,-2.4193,-2.2946,-2.1158,-1.9913,-1.9297,0.0,0.0,0.0,0.0,0.0,-2.022,0.0,0.0,0.0,0.0,0.0,0.0,0.0,0.0,0.0,0.0,0.0,0.0,0.0,0.0,0.0,0.0,0.0,0.0,0.0,0.0,0.0,0.0,0.0,0.0,0.0,0.0,0.0,0.0,0.0,0.0,0.0,0.0,0.0,0.0,0.0,0.0,0.0,0.0,0.0,0.0,0.0,-2.9385,-3.0194,-2.9597,-3.032,-3.0834,0.0,0.0,0.0,0.0,0.0,0.0,0.0,0.0,0.0,-3.6395,-3.79,-3.8927,-3.9368,-4.0524,-4.076,-4.0104,-3.9666,-3.9009,-3.8167,-3.7405,-3.6825,-3.6409,-3.6556,-3.6509,-3.6295,-3.6333,-3.6014,-3.5459,0.0,0.0,0.0,0.0,-3.4095,-3.3525,0.0,0.0,0.0,0.0,0.0,0.0,0.0,0.0,0.0,0.0,0.0,0.0,-2.0493,-2.1088,-2.1811,-2.2673,0.0,0.0,0.0,0.0,0.0,-2.4738,-2.4968,-2.5082,-2.5082,-2.38,-2.2286,0.0,0.0,0.0,0.0,0.0,0.0,0.0,0.0,0.0,0.0,0.0,0.0,0.0,0.0,0.0,0.0,0.0,0.0,0.0,0.0,0.0,0.0,0.0,0.0,0.0,0.0,0.0,0.0,0.0,0.0,0.0,0.0,0.0,0.0,0.0,0.0,0.0,0.0,0.0,0.0,0.0,0.0,0.0,0.0,0.0,0.0,0.0,0.0,0.0,0.0,-3.0095,-3.0505,-2.9425,-3.0723,-3.1476,0.0,0.0,0.0,0.0,0.0,0.0,-3.5334,-3.6138,-3.6886,-3.7474,-3.8469,-3.9294,-3.9882,-4.0708,-4.0731,-3.9986,-3.939,-3.867,-3.7844,-3.6861,-3.6329,-3.6216,-3.6418,-3.6146,-3.5661,-3.6255,-3.6254,-3.5938,-3.6118,-3.5741,-3.5115,-3.5464,-3.4906,-3.4112,0.0,0.0,0.0,0.0,0.0,0.0,0.0,0.0,0.0,0.0,0.0,-1.9656,0.0,0.0,0.0,0.0,0.0,0.0,0.0,0.0,0.0,-2.4139,-2.488,-2.5279,-2.5279,-2.3544,0.0,0.0,0.0,0.0,0.0,0.0,0.0,0.0,0.0,0.0,0.0,0.0,0.0,0.0,0.0,0.0,0.0,0.0,0.0,0.0,0.0,0.0,0.0,0.0,0.0,0.0,0.0,0.0,0.0,0.0,0.0,0.0,0.0,0.0,0.0,0.0,0.0,0.0,0.0,0.0,0.0,0.0,0.0,0.0,0.0,0.0,0.0,0.0,0.0,0.0,0.0,0.0,0.0,-3.0264,-3.1555,0.0,0.0,0.0,0.0,-3.4821,-3.5734,-3.6229,-3.6229,-3.6997,-3.7456,-3.7492,-3.9016,-3.9845,-3.99,-4.0708,-4.0457,-3.9156,-3.912,-3.8182,-3.6489,-3.6433,-3.6118,-3.5644,-3.5656,-3.5633,-3.565,-3.6463,-3.6768,-3.6677,-3.5932,-3.6068,-3.6609,-3.5876,-3.5549,-3.5498,0.0,0.0,0.0,-1.637,-1.6211,-1.6443,-1.7577,-1.7704,-1.8052,-1.9168,-1.9297,0.0,0.0,0.0,0.0,0.0,0.0,0.0,0.0,0.0,-2.2427,-2.2427,-2.3235,-2.3636,-2.3501,-2.2266,-2.1117,0.0,0.0,0.0,0.0,0.0,0.0,0.0,0.0,0.0,0.0,0.0,0.0,0.0,0.0,0.0,0.0,0.0,0.0,0.0,0.0,0.0,0.0,0.0,0.0,0.0,0.0,0.0,0.0,0.0,0.0,0.0,0.0,0.0,0.0,0.0,0.0,0.0,0.0,0.0,0.0,0.0,0.0,0.0,0.0,0.0,0.0,0.0,0.0,0.0,0.0,0.0,0.0,-3.1036,-3.2394,0.0,-3.3366,-3.4087,-3.4912,-3.5771,-3.6597,-3.707,-3.707,-3.7826,-3.8267,-3.8267,-3.9331,-3.99,-3.99,-4.0353,-3.9932,-3.8647,-3.8286,-3.7338,-3.5876,-3.5876,-3.5783,-3.56,-3.56,-3.56,-3.5616,-3.591,-3.6028,-3.6011,-3.5701,-3.5769,-3.5994,-3.5701,-3.56,-3.56,-1.5319,-1.5252,0.0,-1.5549,-1.5671,-1.6078,-1.7137,-1.7539,-1.8071,-1.9168,-1.9297,-1.8985,0.0,0.0,0.0,0.0,0.0,0.0,0.0,0.0,-2.1096,-2.1096,-2.2197,-2.2599,-2.2171,0.0,0.0,0.0,0.0,0.0,0.0,0.0,0.0,0.0,0.0,0.0,0.0,0.0,0.0,0.0,0.0,0.0,-1.8404,0.0,0.0,0.0,0.0,0.0,0.0,0.0,0.0,0.0,0.0,0.0,0.0,0.0,0.0,0.0,0.0,0.0,0.0,0.0,0.0,0.0,0.0,0.0,0.0,0.0,0.0,0.0,0.0,0.0,0.0,0.0,0.0,0.0,0.0,0.0,-3.1997,-3.147,-3.2816,-3.3697,-3.3421,-3.4619,-3.5665,-3.6266,-3.7309,-3.7915,-3.7915,-3.8414,-3.8707,-3.8707,-3.9221,-3.9415,-3.9234,-3.9404,-3.8885,-3.7734,-3.7352,-3.6625,-3.56,-3.56,-3.56,-3.56,-3.56,-3.56,-3.56,-3.56,-3.56,-3.56,-3.56,-3.5752,-3.5977,-3.5701,-3.56,-3.5577,-1.357,-1.3592,-1.3963,-1.5159,-1.4749,-1.5134,-1.7664,-1.744,-1.7539,-1.9095,-1.9279,0.0,0.0,0.0,0.0,0.0,0.0,0.0,0.0,-1.9311,-2.0269,-2.0308,-2.187,-2.235,-2.1485,0.0,0.0,0.0,0.0,0.0,0.0,0.0,0.0,0.0,0.0,0.0,0.0,0.0,0.0,0.0,0.0,0.0,-1.8732,0.0,0.0,0.0,0.0,0.0,0.0,0.0,0.0,0.0,0.0,0.0,0.0,0.0,0.0,0.0,0.0,0.0,0.0,0.0,0.0,0.0,0.0,0.0,0.0,0.0,0.0,0.0,0.0,0.0,0.0,0.0,0.0,0.0,-3.0295,-3.186,-3.2604,-3.1587,-3.2852,-3.3495,-3.2748,-3.4871,-3.6303,-3.634,-3.7808,-3.8707,-3.8707,-3.8707,-3.8707,-3.8707,-3.8707,-3.8449,-3.7911,-3.7894,-3.7379,-3.6395,-3.6374,-3.6097,-3.56,-3.56,-3.56,-3.56,-3.56,-3.56,-3.56,-3.56,-3.56,-3.56,-3.56,-3.6079,-3.6677,-3.5893,-3.56,-3.547,-1.357,-1.3592,-1.3799,-1.4412,-1.5316,-1.6229,-1.7108,-1.8034,-1.8794,-1.9242,-1.8794,0.0,0.0,0.0,0.0,0.0,0.0,0.0,-1.7657,0.0,-1.9642,-2.0269,-2.1293,0.0,0.0,0.0,0.0,0.0,0.0,0.0,0.0,0.0,0.0,0.0,0.0,0.0,0.0,0.0,0.0,0.0,0.0,0.0,-1.9438,0.0,0.0,0.0,0.0,0.0,0.0,0.0,0.0,0.0,0.0,0.0,0.0,0.0,0.0,0.0,0.0,0.0,0.0,0.0,0.0,0.0,0.0,0.0,0.0,0.0,0.0,0.0,0.0,0.0,0.0,0.0,0.0,-3.201,-3.2198,-3.2502,-3.2814,-3.3104,-3.3532,-3.3954,-3.4307,-3.5532,-3.6541,-3.7125,-3.812,-3.8707,-3.8707,-3.8707,-3.8707,-3.8707,-3.8707,-3.8449,-3.7911,-3.756,-3.7058,-3.6412,-3.6006,-3.5739,-3.56,-3.56,-3.56,-3.56,-3.56,-3.56,-3.56,-3.56,-3.56,-3.56,-3.56,-3.5735,-3.591,-3.5667,-3.5276,-3.4712,-1.3493,-1.3767,-1.4071,-1.4407,-1.5577,-1.6638,-1.7162,-1.813,-1.893,-1.926,-1.8592,0.0,0.0,0.0,0.0,0.0,0.0,0.0,-1.7196,-1.8337,-1.9392,0.0,0.0,0.0,0.0,0.0,0.0,0.0,0.0,0.0,0.0,0.0,0.0,0.0,0.0,0.0,0.0,0.0,0.0,0.0,0.0,0.0,-1.8971,-1.92,-1.9072,-1.8809,-1.9036,-1.8448,-1.7641,-1.8198,0.0,0.0,0.0,0.0,0.0,0.0,0.0,0.0,0.0,0.0,0.0,0.0,0.0,0.0,0.0,0.0,0.0,0.0,0.0,0.0,0.0,0.0,0.0,0.0,-3.177,-3.2776,-3.3266,-3.3195,-3.3293,-3.3733,-3.3807,-3.399,-3.4454,-3.5261,-3.5954,-3.6413,-3.7533,-3.8193,-3.8193,-3.8524,-3.8707,-3.8707,-3.8707,-3.8449,-3.7911,-3.7433,-3.6941,-3.6395,-3.5871,-3.56,-3.56,-3.56,-3.56,-3.56,-3.56,-3.56,-3.56,-3.56,-3.56,0.0,0.0,0.0,0.0,0.0,-3.4568,-3.3659,-1.365,-1.4174,-1.4695,-1.4891,-1.5739,-1.669,-1.7573,-1.7995,-1.8471,-1.9198,0.0,0.0,0.0,0.0,0.0,0.0,0.0,0.0,0.0,0.0,0.0,0.0,0.0,0.0,0.0,0.0,0.0,0.0,0.0,0.0,0.0,0.0,0.0,0.0,0.0,0.0,0.0,0.0,0.0,0.0,0.0,0.0,-1.782,-1.8416,-1.8661,-1.8811,-1.9464,-1.9221,-1.8616,-1.8775,0.0,0.0,0.0,0.0,0.0,0.0,0.0,0.0,0.0,0.0,0.0,0.0,0.0,0.0,0.0,0.0,0.0,0.0,0.0,0.0,0.0,0.0,0.0,0.0,-3.2155,-3.2968,-3.3697,-3.3807,-3.3807,-3.3807,-3.3807,-3.3807,-3.3807,-3.4527,-3.5004,-3.5004,-3.6541,-3.7492,-3.7492,0.0,0.0,0.0,0.0,-3.8382,-3.7893,-3.7378,-3.6882,-3.6395,-3.5871,-3.56,-3.56,-3.56,-3.56,-3.56,-3.56,-3.56,-3.56,-3.56,-3.5526,-3.5374,-3.5459,-3.5492,-3.5402,-3.464,-3.356,-3.2493,-1.5172,-1.5291,-1.5443,-1.5649,-1.6374,-1.7116,-1.7621,-1.8332,-1.8945,-1.9256,-1.8592,0.0,0.0,0.0,0.0,0.0,0.0,0.0,0.0,0.0,0.0,0.0,0.0,0.0,0.0,0.0,0.0,0.0,0.0,0.0,0.0,0.0,0.0,0.0,0.0,0.0,0.0,0.0,0.0,0.0,0.0,0.0,-1.687,-1.7858,-1.796,-1.7801,-1.9195,-1.8992,-1.8205,-1.9176,-1.8738,-1.7935,-1.8742,0.0,0.0,0.0,0.0,0.0,0.0,0.0,0.0,0.0,0.0,0.0,0.0,0.0,0.0,0.0,0.0,0.0,0.0,0.0,0.0,-3.1378,-3.2614,-3.3623,-3.377,-3.3807,-3.3807,-3.3807,-3.3807,-3.3807,-3.3807,-3.4527,-3.5004,-3.5004,-3.6541,-3.7492,-3.7492,-3.8267,-3.8707,-3.8707,-3.8283,-3.7997,-3.7893,-3.7001,-3.6498,-3.6395,0.0,0.0,-3.56,-3.56,-3.56,-3.56,-3.56,-3.56,-3.56,-3.56,-3.4964,-3.4041,-3.4575,-3.4783,-3.464,-3.3443,-3.2498,-3.1805,-1.6627,-1.639,-1.6177,-1.627,-1.7045,-1.7718,-1.792,-1.8547,-1.9035,-1.9134,-1.8543,0.0,0.0,0.0,0.0,0.0,0.0,0.0,0.0,0.0,0.0,0.0,0.0,0.0,0.0,0.0,0.0,0.0,0.0,0.0,0.0,0.0,0.0,0.0,0.0,0.0,0.0,0.0,0.0,0.0,0.0,0.0,-1.4988,-1.6302,-1.6832,-1.7028,-1.8118,-1.8454,-1.8494,-1.9104,-1.9031,-1.8796,-1.9301,-1.9799,-2.0353,0.0,0.0,0.0,0.0,0.0,0.0,0.0,0.0,0.0,0.0,0.0,0.0,0.0,0.0,-2.9005,-2.9005,0.0,-3.0925,-3.1342,-3.2076,-3.2742,-3.3146,-3.2852,-3.2889,-3.3697,-3.3807,-3.3807,-3.3807,-3.4174,-3.4399,-3.4399,-3.5954,-3.6905,-3.6905,-3.8046,-3.8707,-3.8707,-3.8183,-3.7893,-3.7893,-3.6904,-3.6395,-3.6395,-3.5871,-3.56,-3.56,-3.56,-3.56,-3.56,-3.56,-3.56,-3.5566,-3.5194,-3.4242,-3.3057,-3.3052,-3.2854,-3.2558,-3.2227,-3.1643,-3.1034,-1.7681,-1.732,-1.6908,-1.6908,-1.7582,-1.8187,-1.8378,-1.8786,-1.9147,-1.9407,-1.9008,-1.8679,-1.8585,-1.799,-1.7716,0.0,0.0,0.0,0.0,0.0,0.0,0.0,0.0,0.0,0.0,0.0,0.0,0.0,0.0,0.0,0.0,0.0,0.0,0.0,0.0,0.0,0.0,0.0,0.0,0.0,0.0,0.0,-1.3667,-1.4904,-1.5721,-1.6296,-1.7021,-1.7861,-1.8612,-1.8836,-1.91,-1.9403,-1.9627,-2.0165,-2.0862,-2.1648,-2.2127,0.0,0.0,0.0,0.0,0.0,0.0,0.0,0.0,0.0,-2.8227,-2.8877,-2.9005,-2.9005,-2.9005,-2.9647,-3.0411,-3.1054,-3.1305,-3.1635,-3.2284,-3.1806,-3.1892,-3.3183,-3.3476,-3.3568,-3.3568,-3.3715,-3.3807,-3.3807,-3.5202,-3.6046,-3.6046,-3.7441,-3.8303,-3.8469,-3.7947,-3.7749,-3.7893,-3.6904,-3.6395,-3.6395,-3.5871,-3.56,-3.56,-3.56,-3.56,-3.5583,-3.5447,-3.5295,-3.5126,-3.4539,-3.3428,-3.2062,-3.1515,-3.0788,-3.0104,-3.0926,-3.0742,-3.0148,-1.7783,-1.7732,-1.7693,-1.7693,-1.7783,-1.8149,-1.9037,-1.9228,-1.9696,-2.0881,-2.0986,-2.0753,-2.0285,-2.0154,-2.0409,-2.1213,0.0,0.0,0.0,0.0,0.0,0.0,0.0,0.0,0.0,0.0,0.0,0.0,0.0,0.0,0.0,0.0,0.0,0.0,0.0,0.0,0.0,0.0,0.0,0.0,0.0,0.0,-1.4727,-1.4904,-1.5012,-1.5267,-1.6772,-1.7382,-1.7626,-1.8574,-1.8537,-1.8285,-1.9355,-1.9636,-1.978,-2.0814,0.0,-2.2997,-2.4606,-2.6427,-2.7874,-2.7708,-2.8185,-2.8702,0.0,0.0,-2.8895,-2.8987,-2.9005,-2.9005,-2.9005,-2.9647,-3.0228,-3.032,-3.0925,-3.1433,-3.1525,-3.147,-3.147,-3.1654,-3.2302,-3.2729,-3.2729,-3.3385,-3.3807,-3.3807,-3.4637,-3.5151,-3.5151,-3.6046,-3.689,-3.7621,-3.7114,-3.7191,-3.7893,-3.6904,-3.6395,-3.6395,-3.5871,-3.56,-3.56,-3.56,-3.56,-3.5566,-3.4912,-3.4252,-3.3643,-3.3558,-3.242,-3.0705,-3.0635,-2.9515,-2.8086,-2.9365,-2.939,-2.8906,-1.78,-1.78,-1.78,-1.78,-1.8149,-1.8585,-1.9001,-1.955,-1.9985,-2.0118,-2.0404,-2.0526,-2.0353,-2.0884,-2.14,-2.1776,-2.2242,0.0,0.0,0.0,0.0,0.0,0.0,0.0,0.0,0.0,0.0,0.0,0.0,0.0,0.0,0.0,0.0,0.0,0.0,0.0,0.0,0.0,0.0,0.0,0.0,0.0,-1.4896,-1.4896,-1.5085,-1.5459,-1.614,-1.6764,0.0,0.0,-1.82,-1.8112,-1.9322,-1.9435,-1.9434,-2.1135,-2.1721,0.0,-2.4513,-2.657,0.0,0.0,-2.8425,-2.8707,-2.894,-2.9005,-2.9005,-2.9005,-2.9005,-2.9005,-2.9005,-2.9262,-2.9647,0.0,-3.0099,-3.0173,-3.0632,-3.0301,-3.0008,-3.0008,-3.1127,-3.21,-3.2546,-3.2894,-3.3311,-3.3752,-3.4546,-3.5004,-3.5004,-3.5826,-3.645,-3.6795,-3.6751,-3.6713,-3.6738,-3.6499,-3.6042,-3.5314,-3.5513,-3.538,-3.4979,-3.5397,-3.5363,-3.4928,-3.4184,-3.344,-3.2726,-3.2378,-3.1292,-2.9822,-2.9469,-2.8623,-2.772,-2.8678,-2.8831,-2.8637,-1.78,-1.78,-1.78,-1.78,-1.8403,-1.8894,-1.8894,-1.953,-1.9975,-1.9935,-2.0269,-2.0684,-2.113,-2.1936,-2.2455,-2.2455,-2.2997,-2.3318,0.0,0.0,0.0,0.0,0.0,0.0,0.0,0.0,0.0,0.0,0.0,0.0,0.0,0.0,0.0,0.0,0.0,0.0,0.0,0.0,0.0,0.0,0.0,0.0,-1.5789,-1.5651,-1.5839,-1.6141,-1.5806,-1.6404,0.0,0.0,-1.8012,-1.8083,-1.9223,-1.9261,-1.9259,-2.1117,-2.1809,-2.2445,-2.4614,0.0,0.0,-2.8,-2.8321,-2.8645,-2.8929,-2.9005,-2.9005,-2.9005,-2.9005,-2.9005,-2.9005,-2.9005,-2.9189,-2.9757,-2.9442,-2.9314,-2.9904,-2.948,-2.9185,-2.9406,-3.0404,-3.1476,-3.2491,-3.2803,-3.3183,-3.3752,-3.4325,-3.4674,-3.4674,-3.5275,-3.5716,-3.5936,-3.6118,-3.6029,-3.5596,-3.5838,-3.5376,-3.4201,-3.4742,-3.4726,-3.4201,-3.4737,-3.459,-3.3846,-3.3322,-3.2579,-3.1711,-3.1281,-3.0325,-2.9111,-2.8662,-2.814,-2.766,-2.8154,-2.8308,-2.8308,-1.78,-1.78,-1.78,-1.78,-1.8403,-1.8894,-1.8894,-1.8922,-1.9563,-2.1302,-2.1541,-2.2084,-2.344,-2.3905,-2.4135,-2.4135,-2.4153,-2.4153,-2.4153,-2.3428,0.0,0.0,0.0,0.0,0.0,0.0,0.0,0.0,0.0,0.0,0.0,0.0,0.0,0.0,0.0,0.0,0.0,0.0,0.0,0.0,0.0,0.0,-1.8041,-1.7513,-1.7335,-1.7209,-1.6095,0.0,0.0,0.0,-1.8012,-1.805,-1.8943,-1.9061,0.0,-2.0215,-2.2155,0.0,0.0,0.0,-2.7314,-2.7247,-2.8112,-2.8975,-2.8994,-2.9005,-2.9005,-2.9005,-2.9005,-2.9005,-2.9005,-2.9005,-2.9005,-2.9023,-2.9232,-2.9392,-2.9429,-2.9392,-2.969,-3.0461,-3.0367,-3.087,0.0,-3.3311,-3.377,-3.3807,-3.3825,-3.3844,-3.3844,-3.3862,-3.4215,-3.5023,-3.5045,-3.4975,-3.4836,-3.4854,-3.4359,-3.344,-3.3457,-3.3457,-3.344,-3.3457,-3.3051,-3.2361,-3.2344,-3.1582,-3.0347,-3.0326,-2.9623,-2.8535,-2.8511,-2.814,-2.76,-2.7615,-2.763,-2.763,-1.78,-1.78,-1.78,-1.78,-1.8014,-1.8166,-1.8166,-1.9,-1.9849,-2.0466,-2.1152,0.0,0.0,0.0,0.0,0.0,-2.419,-2.419,-2.419,-2.3731,0.0,0.0,0.0,0.0,0.0,0.0,0.0,0.0,0.0,0.0,0.0,0.0,0.0,0.0,0.0,0.0,0.0,0.0,0.0,0.0,0.0,0.0,-1.8226,-1.8425,-1.8286,-1.793,0.0,0.0,0.0,0.0,0.0,0.0,-1.9601,0.0,0.0,-2.0848,0.0,-2.4383,0.0,0.0,-2.683,-2.6808,-2.7112,-2.7537,-2.8081,-2.8209,-2.8356,-2.8895,-2.9005,-2.9005,-2.9005,-2.9145,-2.9267,-2.9267,-2.9341,-2.9444,-2.9579,-2.9474,-2.9752,-3.0753,-3.1102,0.0,0.0,0.0,0.0,-3.3752,-3.3807,-3.3807,-3.3807,-3.3807,-3.3917,-3.4211,-3.4729,-3.4682,-3.4005,-3.4535,-3.4082,-3.2662,-3.2662,-3.2933,-3.3389,-3.2882,-3.253,-3.2276,-3.1785,-3.1076,-3.0272,-2.987,-2.9225,-2.8463,-2.8067,-2.7785,-2.76,-2.76,-2.76,-2.76,-1.8138,-1.82,-1.8273,-1.8544,-1.8374,0.0,0.0,0.0,0.0,0.0,0.0,0.0,0.0,0.0,0.0,0.0,0.0,-2.4016,-2.4016,0.0,0.0,0.0,0.0,0.0,0.0,0.0,0.0,0.0,0.0,0.0,0.0,0.0,0.0,0.0,0.0,0.0,0.0,0.0,0.0,0.0,0.0,0.0,-1.9155,-1.9357,-1.9159,0.0,0.0,0.0,0.0,0.0,0.0,0.0,0.0,0.0,0.0,0.0,-2.2726,-2.3925,-2.449,-2.5302,-2.6027,-2.6151,-2.6392,-2.6741,-2.7255,-2.7585,-2.7952,-2.8455,-2.8876,-2.9145,-2.9145,-2.9343,-2.9504,-2.9504,-2.9561,-2.9652,-2.9788,-2.9696,-3.0084,-3.1376,-3.1769,-3.2334,0.0,0.0,0.0,-3.3765,-3.3807,-3.3807,-3.3807,-3.3807,-3.3807,-3.3807,-3.4289,-3.4138,-3.3209,-3.3721,-3.3279,-3.1921,-3.1921,-3.2175,-3.2611,-3.2124,-3.1921,-3.1887,-3.1413,-3.074,-2.9951,-2.9563,-2.8904,-2.814,-2.776,-2.76,-2.76,-2.76,-2.76,-2.76,-1.8758,-1.8927,-1.9181,0.0,0.0,0.0,0.0,0.0,0.0,0.0,0.0,0.0,0.0,0.0,0.0,0.0,0.0,0.0,0.0,0.0,0.0,0.0,0.0,0.0,-2.2558,-2.3271,0.0,0.0,0.0,0.0,0.0,0.0,0.0,0.0,0.0,0.0,0.0,0.0,0.0,0.0,0.0,0.0,-2.0779,-2.0332,0.0,0.0,0.0,0.0,0.0,0.0,0.0,0.0,0.0,0.0,0.0,0.0,0.0,-2.289,-2.3818,-2.4403,-2.4838,-2.5185,-2.5841,-2.6437,-2.6521,-2.7163,-2.7761,-2.7787,-2.8651,-2.9402,-2.9402,0.0,-2.9779,-2.9779,-2.9934,-3.0063,-3.0097,-3.009,-3.0673,0.0,0.0,0.0,0.0,0.0,0.0,-3.3815,0.0,-3.3807,-3.3807,-3.3807,-3.3807,-3.3807,-3.3807,-3.3372,-3.2517,-3.2451,-3.2021,-3.119,-3.119,-3.119,-3.119,-3.119,-3.119,-3.119,-3.119,-3.0518,-2.9406,-2.9406,-2.8693,-2.76,-2.76,-2.76,-2.76,-2.76,-2.76,-2.76,0.0,0.0,0.0,0.0,0.0,0.0,0.0,0.0,0.0,0.0,0.0,0.0,0.0,0.0,0.0,0.0,0.0,0.0,0.0,0.0,0.0,0.0,0.0,0.0,0.0,0.0,0.0,0.0,0.0,0.0,0.0,0.0,0.0,0.0,0.0,0.0,0.0,0.0,0.0,0.0,0.0,0.0,-2.1506,0.0,0.0,0.0,0.0,0.0,0.0,0.0,0.0,0.0,0.0,0.0,-2.2276,0.0,0.0,-2.2536,-2.2438,-2.2493,-2.2749,-2.3437,-2.3758,-2.4217,-2.5429,-2.6319,-2.709,-2.7677,-2.8651,-2.9402,-2.9402,0.0,0.0,-3.0898,-3.0937,0.0,-3.1232,-3.1099,0.0,-3.2652,0.0,-3.2984,-3.4423,-3.3811,0.0,0.0,-3.3807,-3.3807,-3.3807,-3.3807,-3.3807,-3.3807,-3.3807,-3.3372,-3.2517,-3.186,-3.1408,-3.119,-3.119,-3.119,-3.119,-3.119,-3.119,-3.119,-3.119,-3.0518,-2.9406,-2.9406,-2.8693,-2.76,-2.76,-2.76,-2.76,-2.76,-2.76,-2.76,0.0,0.0,0.0,0.0,0.0,0.0,0.0,0.0,0.0,0.0,0.0,0.0,0.0,0.0,0.0,0.0,0.0,0.0,0.0,0.0,0.0,0.0,0.0,0.0,0.0,0.0,0.0,0.0,0.0,0.0,0.0,0.0,0.0,0.0,0.0,0.0,0.0,0.0,0.0,0.0,0.0,0.0,0.0,0.0,0.0,0.0,0.0,0.0,0.0,0.0,0.0,-2.1943,-2.2209,-2.2473,-2.262,-2.2148,0.0,-2.2387,-2.1926,-2.1794,-2.1996,-2.2804,-2.3006,-2.3318,-2.4585,-2.5768,-2.6754,-2.7294,-2.8546,0.0,-2.9643,-3.0662,0.0,0.0,0.0,0.0,-3.1686,-3.1578,-3.1711,0.0,-3.2894,0.0,-3.4072,-3.3542,-3.3194,0.0,-3.3605,-3.3807,-3.3807,-3.3807,-3.3807,-3.3807,-3.3807,-3.3372,-3.2517,-3.1638,-3.119,-3.119,-3.119,-3.119,-3.119,-3.119,-3.119,-3.119,0.0,-3.0518,-2.9406,-2.9406,-2.8693,-2.76,-2.76,-2.76,-2.76,-2.76,-2.76,-2.76,0.0,0.0,0.0,0.0,0.0,0.0,0.0,0.0,0.0,-1.913,-2.031,0.0,0.0,0.0,0.0,0.0,0.0,0.0,0.0,0.0,0.0,0.0,0.0,0.0,0.0,0.0,0.0,0.0,0.0,0.0,0.0,0.0,0.0,0.0,0.0,0.0,0.0,0.0,0.0,0.0,0.0,0.0,0.0,0.0,0.0,0.0,0.0,0.0,0.0,0.0,-2.2807,-2.2431,-2.233,-2.2514,-2.2636,-2.2007,-2.21,-2.2274,-2.1641,-2.1464,-2.1684,-2.2611,-2.2841,-2.3107,-2.4135,-2.5529,-2.6696,-2.7,0.0,-2.9754,-2.9969,-3.0931,-3.1698,-3.1698,0.0,-3.1852,-3.1852,-3.1968,-3.1987,-3.1872,-3.3141,-3.3829,-3.3327,-3.3147,-3.2918,-3.2514,-3.3117,-3.3476,-3.3476,-3.3476,-3.3532,-3.3642,-3.362,-3.327,-3.2517,-3.1638,-3.119,-3.119,-3.119,-3.119,-3.119,-3.119,-3.119,-3.119,-3.119,-3.0518,-2.9406,-2.9406,-2.8693,-2.76,-2.76,-2.76,-2.76,-2.76,-2.76,-2.76,0.0,0.0,0.0,0.0,0.0,0.0,0.0,-1.9917,-1.9951,-1.9828,-2.0619,-2.1454,-2.2105,0.0,0.0,0.0,0.0,0.0,0.0,0.0,0.0,0.0,0.0,0.0,0.0,0.0,0.0,0.0,0.0,0.0,0.0,0.0,0.0,0.0,0.0,0.0,0.0,0.0,0.0,0.0,0.0,0.0,0.0,0.0,0.0,0.0,0.0,0.0,0.0,0.0,-2.4262,-2.3105,-2.2496,-2.2673,-2.2841,-2.1425,-2.1446,-2.1605,-2.0134,-1.9738,-2.0105,-2.1629,-2.2014,-2.2565,-2.4713,-2.5915,0.0,0.0,-2.8857,-2.9754,-2.9969,-3.0931,-3.1698,-3.1698,0.0,0.0,0.0,0.0,-3.3506,0.0,0.0,0.0,0.0,0.0,0.0,0.0,0.0,-3.1819,-3.1819,-3.1819,-3.2118,-3.2784,-3.2745,-3.2648,-3.2501,-3.1638,-3.119,-3.119,-3.119,-3.119,-3.119,-3.119,-3.119,-3.119,-3.119,0.0,-2.9406,-2.9406,-2.8693,-2.76,-2.76,-2.76,-2.76,-2.76,-2.76,-2.76,0.0,0.0,0.0,0.0,0.0,0.0,0.0,-1.9761,-2.0137,-2.0568,-2.097,-2.1528,-2.2401,-2.2843,-2.3202,0.0,0.0,0.0,0.0,0.0,0.0,0.0,0.0,0.0,0.0,0.0,0.0,0.0,0.0,0.0,0.0,0.0,0.0,0.0,0.0,0.0,0.0,0.0,0.0,0.0,0.0,0.0,0.0,0.0,0.0,0.0,0.0,0.0,0.0,0.0,-2.5135,-2.4371,-2.3423,-2.315,-2.3,-2.1975,-2.1748,-2.1537,-2.0262,-1.962,-1.9701,-2.1372,-2.1794,-2.2326,-2.4328,0.0,0.0,0.0,-2.8651,-2.9754,-2.9969,0.0,0.0,0.0,0.0,0.0,0.0,0.0,0.0,0.0,0.0,0.0,0.0,0.0,0.0,0.0,0.0,-3.0522,-3.136,-3.1397,-3.158,-3.1953,-3.1533,-3.1492,-3.1865,-3.0658,-3.0448,-3.119,-3.0818,-3.0835,-3.119,-3.119,-3.119,-3.119,-3.119,0.0,-2.9848,-2.954,-2.8857,-2.8042,-2.771,-2.76,-2.76,-2.76,-2.76,-2.76,0.0,0.0,0.0,0.0,0.0,0.0,0.0,-1.949,-2.0099,-2.1072,-2.119,-2.1619,-2.2724,-2.3313,-2.3784,0.0,0.0,0.0,0.0,0.0,0.0,0.0,0.0,0.0,0.0,0.0,0.0,0.0,0.0,0.0,0.0,0.0,0.0,0.0,0.0,0.0,0.0,0.0,0.0,0.0,0.0,0.0,0.0,0.0,0.0,0.0,0.0,0.0,0.0,0.0,-2.5919,-2.5716,-2.4868,-2.4193,-2.3567,-2.2937,-2.2553,-2.2088,-2.107,-2.0317,-2.0197,-2.1684,-2.2198,-2.2749,-2.4355,-2.5823,0.0,0.0,-2.8632,-2.9754,-2.9969,0.0,-3.1487,0.0,0.0,0.0,0.0,0.0,0.0,0.0,0.0,0.0,0.0,0.0,0.0,0.0,0.0,0.0,-3.0815,-3.1048,-3.114,-3.114,-3.0543,-3.0484,-3.1069,-2.9695,-2.9585,-3.0717,-3.0311,-3.0412,-3.097,-3.1123,-3.119,-3.119,-3.119,0.0,0.0,-2.9651,-2.9042,-2.8439,-2.7835,-2.76,-2.76,-2.76,-2.76,-2.76,0.0,0.0,0.0,0.0,0.0,0.0,0.0,-1.9389,-1.9532,-2.1004,-2.119,-2.1746,-2.318,-2.3919,-2.4595,0.0,0.0,0.0,0.0,0.0,0.0,0.0,0.0,0.0,0.0,0.0,0.0,0.0,0.0,0.0,0.0,0.0,0.0,0.0,0.0,0.0,0.0,0.0,0.0,0.0,0.0,0.0,0.0,0.0,0.0,0.0,0.0,0.0,0.0,0.0,0.0,-2.6698,-2.6849,-2.6165,-2.5057,-2.3929,0.0,0.0,-2.2106,-2.1629,-2.1776,-2.2666,-2.3437,-2.4392,-2.6007,0.0,0.0,-2.8961,-2.9439,-2.9754,-2.9969,-3.0273,-3.0788,-3.1564,0.0,0.0,0.0,0.0,0.0,0.0,0.0,0.0,0.0,0.0,0.0,0.0,0.0,0.0,-2.9207,-2.9916,-3.032,-3.032,-3.0241,-3.0218,-3.0289,-2.9437,-2.9077,-2.9213,-2.9803,-3.0142,-3.0207,-3.0886,-3.119,-3.119,-3.119,0.0,0.0,-2.9651,-2.9042,-2.8439,-2.7835,-2.76,-2.76,-2.76,-2.76,-2.76,0.0,0.0,0.0,0.0,0.0,0.0,-1.9833,-1.9761,-1.9959,-2.1055,-2.1583,-2.2524,-2.4248,-2.5052,-2.5505,-2.5557,0.0,0.0,0.0,0.0,0.0,0.0,0.0,0.0,0.0,0.0,0.0,0.0,0.0,0.0,0.0,0.0,0.0,0.0,0.0,0.0,0.0,0.0,0.0,0.0,0.0,0.0,0.0,0.0,0.0,0.0,0.0,0.0,0.0,0.0,0.0,0.0,-2.7753,-2.7615,0.0,0.0,-2.4844,-2.4061,-2.3428,-2.2547,-2.2106,-2.34,-2.3951,-2.4612,-2.6227,0.0,-2.7948,-2.8506,-2.9186,-2.9754,-2.9969,-3.0215,-3.0692,-3.1564,-3.2372,-3.3199,-3.409,0.0,0.0,0.0,0.0,0.0,0.0,0.0,0.0,0.0,0.0,0.0,-2.9005,-2.9299,-2.9482,-2.9482,-2.9039,-2.903,-2.9475,-2.8234,-2.8079,-2.8993,-2.8805,-2.8975,-2.9467,-2.9738,-2.989,-2.9907,-3.0345,0.0,0.0,-3.0007,-2.9585,-2.8973,-2.8367,-2.7919,-2.76,-2.76,-2.76,-2.76,0.0,0.0,0.0,0.0,0.0,-1.9486,-2.0234,-2.0137,-2.0454,-2.1698,-2.2107,-2.3107,-2.5204,-2.5895,-2.6221,-2.6277,-2.6433,0.0,0.0,0.0,0.0,0.0,0.0,0.0,0.0,0.0,0.0,0.0,0.0,0.0,0.0,0.0,0.0,0.0,0.0,0.0,0.0,0.0,0.0,0.0,0.0,0.0,0.0,0.0,0.0,0.0,0.0,0.0,0.0,0.0,0.0,0.0,0.0,0.0,0.0,0.0,-2.6153,-2.5162,-2.4677,-2.3906,-2.3428,-2.4328,-2.4905,-2.5578,0.0,-2.7677,-2.8334,-2.853,-2.9219,-2.9829,-2.9977,-3.0215,-3.0692,0.0,-3.2372,-3.3199,-3.409,0.0,0.0,0.0,0.0,0.0,0.0,0.0,0.0,0.0,0.0,0.0,-2.9005,-2.9005,-2.9005,-2.9005,-2.8281,-2.8163,-2.8679,-2.7357,-2.725,-2.8316,-2.7959,-2.8094,-2.8653,-2.8891,-2.8993,-2.9027,-2.955,0.0,0.0,-2.9925,-2.9626,-2.9051,-2.8654,-2.814,-2.76,-2.76,-2.76,-2.76,0.0,0.0,0.0,0.0,0.0,0.0,-2.1055,-2.0504,-2.0809,-2.3071,-2.275,-2.3298,-2.5888,-2.6192,-2.665,-2.7766,-2.7515,0.0,0.0,0.0,0.0,0.0,0.0,0.0,0.0,0.0,0.0,0.0,0.0,0.0,0.0,0.0,0.0,0.0,0.0,0.0,0.0,0.0,0.0,0.0,0.0,0.0,-2.6691,0.0,0.0,0.0,0.0,0.0,0.0,0.0,0.0,0.0,0.0,0.0,0.0,0.0,-2.778,-2.7431,-2.5815,-2.5952,-2.6355,-2.5576,-2.6586,-2.7819,0.0,-2.876,-2.9435,-2.9633,-2.9861,-2.9999,-3.0006,-3.0215,-3.0692,-3.1564,-3.2372,-3.3199,-3.409,0.0,0.0,0.0,0.0,0.0,0.0,0.0,0.0,0.0,0.0,0.0,-2.9005,-2.9005,-2.9005,-2.9005,-2.8281,-2.7897,-2.7915,-2.7116,-2.6725,-2.6725,-2.7452,-2.7807,-2.7841,-2.8636,-2.8993,-2.8993,0.0,0.0,0.0,-2.9161,-2.886,-2.8305,-2.8443,-2.814,-2.76,-2.76,-2.76,-2.76,0.0,0.0,0.0,0.0,0.0,0.0,0.0,-2.1738,-2.2009,-2.3241,-2.3644,-2.4316,-2.5647,-2.6242,-2.6683,-2.705,-2.7689,0.0,0.0,0.0,0.0,0.0,0.0,0.0,0.0,0.0,0.0,0.0,0.0,0.0,0.0,0.0,0.0,0.0,0.0,0.0,0.0,0.0,0.0,0.0,0.0,-2.6691,-2.6691,0.0,0.0,0.0,0.0,0.0,0.0,0.0,0.0,0.0,0.0,0.0,0.0,-2.8693,-2.8227,-2.7688,-2.7174,-2.6814,-2.6667,-2.6972,-2.7431,-2.7967,-2.8577,-2.9063,-2.9464,-2.9652,-2.9861,-3.0061,-3.0248,-3.0349,-3.0865,-3.2295,-3.2737,0.0,0.0,0.0,0.0,0.0,0.0,0.0,0.0,0.0,0.0,0.0,0.0,0.0,-2.9005,-2.9005,-2.9005,-2.9005,-2.8281,-2.7897,-2.7897,-2.7099,-2.6691,-2.6691,-2.6945,-2.7046,-2.7063,-2.73,-2.7436,0.0,0.0,0.0,0.0,-2.9599,-2.9759,-2.9626,-2.9243,-2.8756,-2.8165,-2.776,-2.76,-2.76,0.0,0.0,0.0,0.0,0.0,0.0,0.0,-2.2296,-2.2651,-2.3678,-2.4203,-2.4942,-2.6104,-2.6649,-2.7051,-2.7315,-2.7984,0.0,0.0,0.0,0.0,0.0,0.0,0.0,0.0,0.0,0.0,0.0,0.0,0.0,0.0,0.0,0.0,0.0,0.0,0.0,0.0,0.0,0.0,0.0,-2.6691,-2.6691,-2.6708,0.0,0.0,0.0,0.0,0.0,0.0,0.0,0.0,0.0,0.0,0.0,0.0,0.0,-2.8638,-2.8191,0.0,-2.7658,-2.7537,-2.775,-2.8026,-2.843,-2.9109,-2.9395,-2.9598,-2.9888,-3.0066,-3.0202,-3.0367,-3.0673,-3.1231,-3.2275,-3.2987,0.0,0.0,0.0,0.0,0.0,0.0,0.0,0.0,0.0,0.0,0.0,0.0,0.0,-2.9005,-2.9005,-2.9005,-2.9005,-2.8281,-2.7897,-2.7897,-2.7099,-2.6691,-2.6691,-2.6691,-2.6691,-2.6691,-2.6691,-2.6691,0.0,0.0,0.0,0.0,-2.9262,-2.9599,-2.9473,-2.9419,-2.9019,-2.8431,-2.7835,-2.76,-2.76,0.0,0.0,0.0,0.0,0.0,0.0,0.0,-2.2375,-2.2928,-2.435,-2.4601,-2.5348,-2.7145,-2.7332,-2.7616,-2.8298,0.0,0.0,0.0,0.0,0.0,0.0,0.0,0.0,0.0,0.0,0.0,-2.897,-2.897,-2.894,-2.8917,0.0,0.0,0.0,0.0,0.0,0.0,0.0,0.0,0.0,-2.6791,-2.6791,0.0,0.0,0.0,0.0,0.0,0.0,0.0,0.0,0.0,0.0,0.0,0.0,0.0,0.0,0.0,0.0,0.0,-2.8429,-2.8822,-2.8062,-2.8448,-2.9115,-2.957,-2.9687,0.0,-3.028,-3.0398,-3.0423,-3.0481,-3.1154,-3.1737,-3.1852,0.0,0.0,0.0,0.0,0.0,0.0,0.0,0.0,0.0,0.0,0.0,0.0,0.0,0.0,-2.9005,-2.9005,-2.8994,-2.8952,-2.8268,-2.7897,-2.7897,-2.7099,-2.6691,-2.6691,-2.6691,-2.6691,-2.6691,-2.6691,-2.6691,0.0,0.0,0.0,0.0,-2.8333,-2.8647,-2.831,-2.9049,-2.9011,-2.8487,-2.7835,-2.76,-2.76,0.0,0.0,0.0,0.0,0.0,0.0,0.0,0.0,0.0,0.0,-2.5725,-2.6641,-2.7648,-2.7768,-2.784,0.0,0.0,0.0,0.0,0.0,0.0,0.0,0.0,0.0,0.0,0.0,0.0,-2.854,-2.854,-2.8412,-2.8161,-2.8047,0.0,0.0,0.0,0.0,0.0,0.0,0.0,0.0,-2.7619,-2.7619,0.0,0.0,0.0,0.0,-2.817,-2.8324,0.0,0.0,0.0,0.0,0.0,0.0,0.0,0.0,-2.9005,-2.8968,-2.8767,0.0,-2.895,-2.8767,-2.8858,-2.9078,0.0,-2.9589,-2.9763,0.0,0.0,-3.0596,-3.1269,-3.1564,-3.2122,0.0,0.0,0.0,0.0,0.0,0.0,0.0,0.0,0.0,0.0,0.0,0.0,0.0,0.0,-2.9005,-2.9005,-2.9005,-2.8863,-2.8552,-2.8116,-2.7897,-2.7897,-2.7099,-2.6691,-2.6691,-2.6691,-2.6691,-2.6691,-2.6691,-2.6691,0.0,0.0,0.0,-2.757,-2.7925,-2.8699,-2.9551,-2.8843,-2.8815,-2.9065,-2.7993,-2.76,-2.76,0.0,0.0,0.0,0.0,0.0,0.0,0.0,0.0,0.0,0.0,0.0,-2.6809,-2.7549,-2.7797,0.0,0.0,0.0,0.0,0.0,0.0,0.0,0.0,0.0,0.0,0.0,0.0,0.0,0.0,0.0,-2.8583,0.0,0.0,0.0,0.0,0.0,0.0,0.0,0.0,0.0,-2.7897,-2.7897,0.0,0.0,0.0,0.0,0.0,-2.854,-2.867,0.0,-2.8929,-2.9005,-2.9005,0.0,0.0,0.0,0.0,-2.9005,-2.9005,-2.9005,-2.9262,-2.9537,-2.9537,-2.9537,-2.9619,-2.9898,0.0,0.0,0.0,0.0,0.0,-3.1545,0.0,0.0,0.0,0.0,0.0,0.0,0.0,0.0,0.0,0.0,0.0,0.0,0.0,0.0,0.0,0.0,-2.9005,-2.9005,-2.8827,-2.8615,-2.8407,-2.7908,-2.7619,-2.7619,-2.7003,-2.6691,-2.6691,-2.6691,-2.6691,-2.6691,-2.6691,-2.6691,0.0,0.0,0.0,-2.7317,-2.7655,-2.8297,-2.8966,-2.8159,-2.8094,-2.8277,-2.7113,-2.6881,-2.7151,0.0,0.0,0.0,0.0,0.0,0.0,0.0,0.0,0.0,0.0,0.0,0.0,0.0,0.0,0.0,0.0,0.0,0.0,0.0,0.0,0.0,0.0,0.0,0.0,0.0,0.0,0.0,0.0,0.0,0.0,0.0,0.0,-2.9005,0.0,0.0,0.0,0.0,0.0,-2.8065,-2.8065,-2.8065,0.0,0.0,0.0,0.0,0.0,0.0,0.0,0.0,-2.9005,-2.9005,-2.9005,-2.9005,0.0,0.0,0.0,0.0,0.0,-2.9152,-2.9757,-3.032,-3.0081,-3.0118,-3.0249,-3.0416,0.0,0.0,0.0,0.0,0.0,0.0,0.0,0.0,0.0,0.0,0.0,0.0,0.0,0.0,0.0,0.0,0.0,0.0,0.0,0.0,0.0,0.0,-2.9005,-2.9005,-2.8633,-2.8381,-2.8329,-2.766,-2.7272,-2.721,-2.6873,-2.6691,-2.6691,-2.6691,-2.6691,-2.6691,-2.6691,-2.6691,-2.6691,0.0,0.0,-2.6742,-2.7367,-2.7705,-2.7769,-2.7315,-2.7198,-2.7169,-2.6153,-2.6108,-2.6602,0.0,0.0,0.0,0.0,0.0,0.0,0.0,0.0,0.0,0.0,0.0,0.0,0.0,0.0,0.0,0.0,0.0,0.0,0.0,0.0,0.0,0.0,0.0,0.0,0.0,0.0,0.0,0.0,0.0,0.0,-2.9005,-2.9005,-2.9005,-2.8994,0.0,0.0,0.0,-2.8839,-2.8827,-2.8827,-2.8827,0.0,0.0,0.0,0.0,0.0,0.0,0.0,0.0,-2.9005,-2.9005,-2.9005,-2.9005,0.0,0.0,0.0,0.0,0.0,-2.9831,-3.0595,-3.0889,-2.9519,-2.9702,-3.013,0.0,0.0,0.0,0.0,0.0,0.0,0.0,0.0,0.0,0.0,0.0,0.0,0.0,0.0,0.0,0.0,0.0,0.0,0.0,0.0,0.0,0.0,0.0,-2.9005,-2.9005,-2.8633,-2.8277,-2.7996,-2.753,-2.7131,-2.6808,-2.6725,-2.6691,-2.6691,-2.6691,-2.6691,-2.6691,-2.6691,-2.6691,-2.6691,0.0,-2.6691,-2.6708,-2.6826,-2.7249,-2.7701,-2.674,-2.6741,-2.7232,-2.6671,-2.6497,-2.6686,0.0,0.0,0.0,0.0,0.0,0.0,0.0,0.0,0.0,0.0,0.0,0.0,0.0,0.0,0.0,0.0,0.0,0.0,0.0,0.0,0.0,0.0,0.0,0.0,0.0,0.0,0.0,0.0,0.0,-2.8785,-2.8356,-2.8803,-2.9005,-2.9005,0.0,0.0,0.0,-2.9005,-2.9244,-2.9647,0.0,0.0,0.0,0.0,0.0,0.0,0.0,0.0,0.0,0.0,-2.9005,-2.9005,-2.9005,0.0,0.0,0.0,0.0,0.0,-2.9445,-3.0136,-3.0577,-2.9831,-3.0583,-3.1446,-3.1292,0.0,0.0,0.0,0.0,0.0,0.0,0.0,0.0,0.0,0.0,0.0,0.0,0.0,0.0,0.0,0.0,0.0,0.0,0.0,0.0,0.0,0.0,0.0,-2.9005,-2.8456,-2.8061,-2.7911,-2.7303,-2.689,-2.6691,-2.6691,-2.6691,-2.6691,-2.6691,-2.6691,-2.6691,-2.6691,-2.6691,-2.6691,0.0,-2.6691,-2.6691,-2.6691,-2.6894,-2.713,-2.6381,-2.6295,-2.6552,-2.6103,-2.5991,-2.6153,0.0,0.0,0.0,0.0,0.0,0.0,0.0,0.0,0.0,0.0,0.0,0.0,0.0,0.0,0.0,0.0,0.0,0.0,0.0,0.0,0.0,0.0,0.0,0.0,0.0,0.0,-2.8429,-2.7798,-2.8429,-2.8503,-2.8099,-2.8895,-2.928,0.0,0.0,0.0,0.0,-2.9482,-2.9812,-3.0228,0.0,0.0,0.0,0.0,0.0,0.0,0.0,0.0,0.0,0.0,0.0,0.0,0.0,0.0,0.0,-2.9005,-2.9005,-2.9042,-2.9225,-2.9721,-3.0246,-3.043,0.0,-3.2094,-3.2372,0.0,0.0,0.0,0.0,0.0,0.0,0.0,0.0,0.0,0.0,0.0,0.0,0.0,0.0,0.0,0.0,0.0,0.0,0.0,0.0,0.0,0.0,0.0,-2.9005,-2.8295,-2.7897,-2.7897,-2.7115,-2.6691,-2.6691,-2.6691,-2.6691,-2.6691,-2.6691,-2.6691,-2.6691,-2.6691,-2.6691,-2.6691,-2.6691,-2.6691,-2.6691,-2.6691,-2.6691,-2.6657,-2.6191,-2.6021,-2.5996,-2.5555,-2.5671,-2.6087,0.0,0.0,0.0,0.0,0.0,0.0,0.0,0.0,0.0,0.0,0.0,0.0,0.0,0.0,0.0,0.0,0.0,0.0,0.0,0.0,0.0,0.0,0.0,0.0,0.0,-2.8282,-2.7871,-2.7798,-2.7871,-2.8246,-2.8932,-2.9751,-3.0118,-3.0155,0.0,0.0,0.0,0.0,-3.0834,-3.0265,-3.0999,0.0,0.0,0.0,0.0,0.0,0.0,0.0,0.0,0.0,0.0,0.0,0.0,0.0,-2.9005,-2.9005,-2.9005,-2.9152,-2.9916,-3.0173,-3.0375,-3.114,0.0,0.0,-3.163,0.0,0.0,0.0,0.0,0.0,0.0,0.0,0.0,0.0,0.0,0.0,0.0,0.0,0.0,0.0,0.0,0.0,0.0,0.0,0.0,0.0,0.0,0.0,-2.9005,-2.8295,-2.7897,-2.7897,-2.7115,-2.6691,-2.6691,-2.6691,-2.6691,-2.6691,-2.6691,-2.6691,-2.6691,-2.6691,-2.6691,-2.6691,-2.6691,-2.6691,-2.6691,-2.6691,-2.6691,-2.6657,-2.6191,-2.6075,-2.6126,-2.5597,-2.6192,-2.7218,0.0,0.0,0.0,0.0,0.0,0.0,0.0,0.0,0.0,0.0,0.0,0.0,0.0,0.0,0.0,0.0,0.0,0.0,0.0,0.0,0.0,0.0,0.0,-3.0577,-2.9769,-2.895,-2.8301,-2.7798,-2.7798,-2.8466,-2.9739,-2.9537,0.0,0.0,0.0,0.0,0.0,0.0,-3.1231,-3.1017,-3.1825,-3.1659,0.0,0.0,0.0,0.0,0.0,0.0,0.0,0.0,-2.9005,-2.9005,-2.9005,-2.9005,-2.9005,-2.9005,-2.9005,-2.9078,-2.9372,-2.9824,0.0,0.0,0.0,0.0,0.0,0.0,0.0,0.0,0.0,0.0,0.0,0.0,0.0,0.0,0.0,0.0,0.0,0.0,0.0,0.0,0.0,0.0,0.0,0.0,0.0,0.0,0.0,0.0,-2.9005,-2.8295,-2.7897,-2.7897,-2.7115,-2.6691,-2.6691,-2.6691,-2.6691,-2.6691,-2.6691,-2.6691,-2.6691,-2.6691,-2.6691,-2.6691,-2.6691,-2.6691,-2.6691,-2.6691,-2.6691,-2.6674,-2.6487,-2.6286,-2.6056,-2.585,-2.6208,-2.674,0.0,0.0,0.0,0.0,0.0,0.0,0.0,0.0,0.0,0.0,0.0,0.0,0.0,0.0,0.0,0.0,0.0,0.0,0.0,0.0,0.0,0.0,0.0,-3.076,-3.021,-2.9409,-2.8601,-2.7798,-2.7798,-2.8484,-2.9824,0.0,0.0,0.0,0.0,0.0,0.0,0.0,0.0,-3.1825,-3.2381,-3.2118,0.0,0.0,0.0,0.0,0.0,0.0,0.0,0.0,-2.9005,-2.9005,-2.9005,-2.9005,-2.9005,-2.9005,-2.9189,-2.9372,-2.9372,-2.9776,-3.0265,0.0,0.0,0.0,0.0,0.0,0.0,0.0,0.0,0.0,0.0,0.0,0.0,0.0,0.0,0.0,0.0,0.0,0.0,0.0,0.0,0.0,0.0,0.0,0.0,0.0,0.0,0.0,0.0,-2.8295,-2.7897,-2.7897,-2.7115,-2.6691,-2.6691,-2.6691,-2.6691,-2.6691,-2.6691,-2.6691,-2.6691,-2.6691,-2.6691,-2.6691,-2.6691,-2.6691,-2.6691,-2.6691,-2.6691,-2.6691,-2.6691,-2.6487,-2.6209,-2.605,-2.6244,-2.6572,0.0,0.0,0.0,0.0,0.0,0.0,0.0,0.0,0.0,0.0,0.0,0.0,0.0,0.0,0.0,0.0,0.0,0.0,0.0,0.0,0.0,0.0,0.0,-3.021,-3.021,-2.9427,-2.862,-2.7816,-2.7816,-2.8227,-2.906,-3.0632,0.0,0.0,0.0,0.0,0.0,0.0,0.0,0.0,-3.2583,-3.2118,-3.1397,0.0,0.0,0.0,0.0,0.0,0.0,0.0,-2.9005,-2.9005,-2.9005,-2.9005,-2.9005,-2.9005,-2.9574,-3.021,-3.021,-3.021,0.0,0.0,0.0,0.0,0.0,0.0,0.0,0.0,0.0,0.0,0.0,0.0,0.0,0.0,0.0,0.0,0.0,0.0,0.0,0.0,0.0,0.0,0.0,0.0,0.0,0.0,0.0,0.0,0.0,-2.8295,-2.7897,-2.7897,-2.7115,-2.6691,-2.6691,-2.6691,-2.6691,-2.6691,-2.6691,-2.6691,-2.6691,-2.6691,-2.6691,-2.6691,-2.6691,-2.6691,-2.6691,-2.6691,-2.6691,-2.6691,-2.6691,-2.6691,-2.6641,-2.6191,-2.6385,-2.6924,0.0,0.0,0.0,0.0,0.0,0.0,0.0,0.0,0.0,0.0,0.0,0.0,0.0,0.0,0.0,0.0,0.0,0.0,0.0,0.0,0.0,0.0,0.0,0.0,0.0,0.0,-3.0026,-2.8638,-2.8638,-2.906,0.0,0.0,0.0,-3.0228,0.0,0.0,0.0,0.0,0.0,0.0,-3.1531,-3.1274,-3.0558,0.0,0.0,0.0,0.0,0.0,0.0,0.0,0.0,0.0,-2.9005,-2.939,-2.9831,-2.9831,-3.0008,-3.021,-3.021,-3.021,0.0,0.0,0.0,0.0,0.0,0.0,0.0,0.0,0.0,0.0,0.0,0.0,0.0,0.0,0.0,0.0,0.0,0.0,0.0,0.0,0.0,0.0,0.0,0.0,0.0,0.0,0.0,0.0,0.0,-2.8295,-2.7897,-2.7897,-2.7115,-2.6691,-2.6691,-2.6691,-2.6691,-2.6691,-2.6691,-2.6691,-2.6691,-2.6691,-2.6691,-2.6691,-2.6691,-2.6691,-2.6691,-2.6691,-2.6691,-2.6691,-2.6691,-2.6691,-2.6674,-2.6556,-2.6676,-2.6915,0.0,0.0,0.0,0.0,0.0,0.0,0.0,0.0,0.0,0.0,0.0,0.0,0.0,0.0,0.0,0.0,0.0,0.0,0.0,0.0,0.0,0.0,0.0,0.0,0.0,-3.1397,-3.0907,0.0,0.0,0.0,0.0,0.0,0.0,-2.9739,0.0,-2.9934,0.0,0.0,0.0,0.0,-3.0852,-3.0632,-3.021,0.0,0.0,0.0,0.0,0.0,0.0,0.0,0.0,0.0,-2.9372,-2.9812,-3.0265,-3.0577,-3.0907,-3.1152,-3.1152,0.0,0.0,0.0,0.0,0.0,0.0,0.0,0.0,0.0,0.0,0.0,0.0,0.0,0.0,0.0,0.0,0.0,0.0,0.0,0.0,0.0,0.0,0.0,0.0,0.0,0.0,0.0,0.0,0.0,0.0,-2.8215,-2.7826,-2.7681,-2.7052,-2.6691,-2.6691,-2.6691,-2.6691,-2.6691,-2.6691,-2.6691,-2.6691,-2.6691,-2.6691,-2.6691,-2.6691,-2.6691,-2.6691,-2.6691,-2.6691,-2.6691,-2.6691,-2.6691,-2.6691,-2.6691,-2.6756,-2.6856,0.0,0.0,-2.753,-2.794,0.0,0.0,0.0,0.0,0.0,0.0,0.0,-2.9005,0.0,0.0,0.0,-2.9005,0.0,0.0,0.0,0.0,0.0,0.0,0.0,0.0,0.0,0.0,0.0,0.0,0.0,0.0,0.0,0.0,-2.9702,-2.9023,0.0,-3.0099,0.0,0.0,0.0,0.0,-3.0393,-3.0099,-3.0099,-3.0099,0.0,0.0,0.0,0.0,0.0,0.0,0.0,0.0,-3.0081,-3.0356,-3.0558,-3.1292,-3.2027,-3.2601,-3.2601,0.0,0.0,0.0,0.0,0.0,0.0,0.0,0.0,0.0,0.0,0.0,0.0,0.0,0.0,0.0,0.0,0.0,0.0,0.0,0.0,0.0,0.0,0.0,0.0,0.0,0.0,0.0,0.0,0.0,0.0,-2.8075,-2.7725,-2.7301,-2.6906,-2.6691,-2.6691,-2.6691,-2.6691,-2.6691,-2.6691,-2.6691,-2.6691,-2.6691,-2.6691,-2.6691,-2.6691,-2.6691,-2.6691,-2.6691,-2.6691,-2.6691,-2.6691,-2.6691,-2.6691,-2.6691,-2.6691,-2.6793,0.0,0.0,-2.8303,-2.8688,0.0,0.0,0.0,0.0,-2.8905,-2.8994,-2.9005,-2.9005,-2.9005,-2.9005,0.0,-2.9005,-2.9005,0.0,0.0,0.0,0.0,0.0,0.0,0.0,0.0,0.0,0.0,0.0,0.0,0.0,0.0,0.0,0.0,-2.9005,0.0,-2.9262,0.0,0.0,0.0,-2.95,-2.9335,-2.9262,-2.9262,-2.9262,-2.9537,0.0,0.0,0.0,0.0,0.0,0.0,0.0,-3.1091,-3.1586,-3.2124,-3.2289,-3.2454,-3.2601,0.0,0.0,0.0,0.0,0.0,0.0,0.0,0.0,0.0,0.0,0.0,0.0,0.0,0.0,0.0,0.0,0.0,0.0,0.0,0.0,0.0,0.0,0.0,0.0,0.0,0.0,0.0,0.0,0.0,0.0,-2.842,-2.8075,-2.7725,-2.7301,-2.6906,-2.6691,-2.6691,-2.6691,-2.6691,0.0,-2.6691,-2.6691,-2.6691,-2.6691,-2.6691,-2.6691,-2.6691,-2.6691,-2.6691,-2.6691,-2.6691,-2.6691,-2.6691,-2.6691,-2.6691,-2.6691,-2.6691,-2.6708,0.0,0.0,0.0,0.0,0.0,0.0,0.0,0.0,-2.9879,-2.9097,-2.9005,-2.9005,-2.9005,-2.9005,0.0,0.0,-2.9005,-2.9005,0.0,0.0,0.0,0.0,0.0,0.0,0.0,0.0,0.0,0.0,0.0,0.0,0.0,0.0,0.0,-2.9574,0.0,-2.9574,0.0,0.0,-2.9005,-2.9005,-2.9005,-2.9005,-2.9005,-2.9005,-2.9262,-2.9684,-3.0063,0.0,0.0,0.0,0.0,0.0,0.0,0.0,-3.2674,-3.3073,-3.3183,-3.3183,0.0,0.0,0.0,0.0,0.0,0.0,0.0,0.0,0.0,0.0,0.0,0.0,0.0,0.0,0.0,0.0,0.0,0.0,0.0,0.0,0.0,0.0,0.0,0.0,0.0,0.0,0.0,0.0,0.0,-2.854,-2.8183,-2.7808,-2.7424,-2.7036,-2.6808,-2.6691,-2.6691,-2.6691,-2.6691,-2.6691,-2.6691,-2.6691,-2.6691,-2.6691,-2.6691,-2.6691,-2.6691,-2.6691,-2.6691,-2.6691,-2.6691,-2.6691,-2.6691,-2.6691,-2.6691,-2.6691,-2.6691,-2.6691,0.0,0.0,0.0,0.0,0.0,0.0,0.0,0.0,0.0,-2.917,-2.9005,-2.9005,-2.9005,-2.9005,-2.9005,0.0,0.0,0.0,-2.9005,0.0,0.0,0.0,0.0,0.0,0.0,0.0,0.0,0.0,0.0,0.0,0.0,0.0,0.0,-3.0411,0.0,0.0,0.0,0.0,-2.9409,-2.9409,-2.9409,-2.9409,-2.9409,-2.9409,-2.95,-2.9702,-3.0381,-3.0705,-3.0925,-3.1586,0.0,0.0,0.0,0.0,-3.2931,-3.3605,-3.3807,-3.3807,0.0,0.0,0.0,0.0,0.0,0.0,0.0,0.0,0.0,0.0,0.0,0.0,0.0,0.0,0.0,0.0,0.0,0.0,0.0,0.0,0.0,0.0,0.0,0.0,0.0,0.0,0.0,0.0,0.0,-2.817,-2.7808,-2.747,-2.7115,-2.6708,-2.6775,-2.6775,-2.6691,-2.6775,-2.6791,-2.6791,-2.6873,-2.6873,-2.6791,-2.6791,-2.6775,-2.6691,-2.6691,-2.6691,-2.6691,-2.6691,-2.6691,-2.6691,-2.6691,-2.6691,-2.6691,-2.6691,-2.6691,-2.6691,0.0,0.0,0.0,0.0,0.0,0.0,0.0,0.0,0.0,0.0,-2.9005,-2.9005,-2.9005,-2.9005,-2.9005,-2.9005,-2.9005,-2.9005,0.0,0.0,0.0,0.0,0.0,0.0,0.0,0.0,0.0,0.0,0.0,0.0,0.0,0.0,0.0,-3.125,0.0,0.0,0.0,0.0,-3.1085,-3.1085,-3.1085,-3.1085,-3.1085,-3.1085,-3.1513,-3.2124,-3.2234,-3.2742,-3.333,-3.344,-3.3476,0.0,0.0,0.0,0.0,-3.377,-3.3807,0.0,0.0,0.0,0.0,0.0,0.0,0.0,0.0,0.0,0.0,0.0,0.0,0.0,0.0,0.0,0.0,0.0,0.0,0.0,0.0,0.0,0.0,0.0,0.0,0.0,0.0,0.0,0.0,0.0,-2.8156,-2.7794,-2.7394,-2.7317,-2.7115,-2.6708,-2.7035,-2.7051,-2.6708,-2.7035,-2.7225,-2.7208,-2.7574,-2.7562,-2.7225,-2.7225,-2.7019,-2.6691,-2.6691,-2.6691,-2.6691,-2.6691,-2.6691,-2.6691,-2.6691,-2.6691,-2.6691,-2.6691,-2.6691,-2.6691,0.0,0.0,0.0,0.0,0.0,0.0,0.0,0.0,0.0,0.0,0.0,-2.917,-2.961,-2.9262,-2.9005,-2.9005,-2.9005,0.0,0.0,0.0,0.0,0.0,0.0,0.0,0.0,0.0,0.0,0.0,0.0,0.0,0.0,-3.3073,-3.2742,0.0,0.0,0.0,0.0,0.0,-3.1397,-3.1397,-3.1397,-3.1659,-3.2027,-3.158,-3.1898,-3.2601,-3.2601,-3.2821,-3.3201,-3.3642,-3.3807,-3.3807,-3.3807,0.0,0.0,0.0,0.0,0.0,0.0,0.0,0.0,0.0,0.0,0.0,0.0,0.0,0.0,0.0,0.0,0.0,0.0,0.0,0.0,0.0,0.0,0.0,0.0,0.0,0.0,0.0,0.0,0.0,0.0,0.0,0.0,0.0,-2.7779,-2.7502,-2.7319,-2.7083,-2.689,-2.6708,-2.7083,-2.7099,-2.6708,-2.7099,-2.7303,-2.7301,-2.7707,-2.7811,-2.7651,-2.7651,-2.7286,-2.6691,-2.6691,-2.6691,-2.6691,-2.6691,-2.6691,-2.6691,-2.6691,-2.6691,-2.6691,-2.6691,-2.6691,-2.6691,0.0,0.0,0.0,0.0,0.0,0.0,0.0,0.0,0.0,0.0,0.0,-2.9464,-2.9861,0.0,0.0,0.0,-2.9005,0.0,0.0,0.0,0.0,0.0,0.0,0.0,0.0,0.0,0.0,0.0,0.0,0.0,-3.41,-3.41,-3.41,0.0,-3.3899,0.0,0.0,0.0,0.0,-3.2027,-3.2228,-3.2669,-3.317,-3.2797,-3.3018,-3.35,-3.328,-3.3206,-3.3261,-3.3678,-3.3807,-3.3807,-3.3807,0.0,0.0,0.0,0.0,0.0,0.0,0.0,0.0,0.0,0.0,0.0,0.0,0.0,0.0,0.0,0.0,0.0,0.0,0.0,0.0,0.0,0.0,0.0,0.0,0.0,0.0,0.0,0.0,0.0,0.0,0.0,0.0,0.0,-2.7363,-2.7147,-2.7147,-2.6857,-2.6691,-2.6691,-2.6911,-2.6926,-2.6708,-2.721,-2.7439,-2.7454,-2.7936,-2.8134,-2.8037,-2.8037,-2.7663,-2.6987,-2.689,-2.6791,-2.6691,-2.6691,-2.6691,-2.6691,-2.6691,-2.6691,-2.6691,-2.6691,-2.6691,-2.6691,0.0,0.0,0.0,0.0,0.0,0.0,0.0,0.0,0.0,0.0,0.0,-2.9849,-2.9133,-2.9702,-2.9831,-2.9078,-2.9005,0.0,0.0,0.0,0.0,0.0,0.0,0.0,0.0,0.0,0.0,0.0,0.0,0.0,-3.4949,-3.4949,-3.4949,-3.4912,-3.4137,-3.377,-3.3733,0.0,0.0,-3.3733,-3.4509,-3.4839,-3.4968,-3.5752,-3.6064,-3.5991,-3.5169,-3.4876,-3.4766,-3.4045,-3.3807,-3.3807,-3.3807,-3.3807,-3.3807,0.0,0.0,0.0,0.0,0.0,0.0,0.0,0.0,0.0,0.0,0.0,0.0,0.0,0.0,0.0,0.0,0.0,0.0,0.0,0.0,0.0,0.0,0.0,0.0,0.0,0.0,0.0,0.0,0.0,0.0,0.0,-2.6971,-2.6725,-2.6725,-2.6708,-2.6691,-2.6691,-2.6396,-2.6409,-2.6708,-2.7487,-2.7869,-2.7883,-2.8601,-2.8749,-2.8363,-2.8363,-2.8183,-2.7826,-2.7424,-2.7051,-2.6691,-2.6691,-2.6691,-2.6691,-2.6691,-2.6691,-2.6691,-2.6691,-2.6691,-2.6691,0.0,0.0,0.0,0.0,0.0,0.0,0.0,0.0,0.0,0.0,0.0,0.0,0.0,-2.9574,-2.9317,-2.9023,-2.9005,0.0,0.0,0.0,0.0,0.0,0.0,0.0,0.0,0.0,0.0,0.0,0.0,-3.344,-3.4215,-3.4215,-3.4215,-3.4247,-3.4472,-3.4564,-3.4546,-3.4027,0.0,-3.5385,-3.5114,-3.5646,-3.6578,-3.6376,-3.6615,-3.696,-3.6138,-3.5844,0.0,0.0,-3.4564,-3.438,-3.3353,-3.3036,-3.2983,-3.2716,0.0,0.0,0.0,0.0,0.0,0.0,0.0,0.0,0.0,0.0,0.0,0.0,0.0,0.0,0.0,0.0,0.0,0.0,0.0,0.0,0.0,0.0,0.0,0.0,0.0,0.0,0.0,0.0,0.0,0.0,0.0,-2.6488,-2.6031,-2.5998,-2.5778,-2.5303,-2.5412,-2.5626,-2.5941,-2.6722,-2.725,-2.7453,-2.7984,-2.8416,-2.8803,-2.8803,-2.8583,-2.821,-2.8071,-2.766,-2.7067,-2.6808,-2.6691,-2.6691,-2.6691,-2.6691,-2.6691,-2.6691,-2.6691,-2.6691,0.0,0.0,0.0,-3.5445,0.0,-3.3348,-3.2008,-3.1806,-3.1513,-3.0705,0.0,0.0,0.0,0.0,-2.9592,-2.906,-2.9005,-2.9005,-2.9005,0.0,0.0,0.0,0.0,0.0,0.0,0.0,0.0,0.0,0.0,0.0,0.0,-3.3532,-3.3464,-3.3611,-3.387,-3.4215,0.0,0.0,0.0,-3.5459,0.0,-3.6101,-3.7107,-3.7092,-3.7441,-3.7804,-3.6997,0.0,0.0,0.0,0.0,-3.4766,-3.3426,-3.2619,-3.2114,-3.1745,-3.166,0.0,0.0,0.0,0.0,0.0,0.0,0.0,0.0,0.0,0.0,0.0,0.0,0.0,0.0,0.0,0.0,0.0,0.0,0.0,0.0,0.0,0.0,0.0,0.0,0.0,0.0,0.0,0.0,0.0,0.0,0.0,-2.5998,-2.5981,-2.5625,-2.4897,-2.5242,-2.5404,-2.5327,-2.6349,-2.6977,-2.7199,-2.7878,-2.8484,-2.9005,-2.9005,-2.8851,-2.859,-2.8458,-2.8057,-2.747,-2.7067,-2.6906,-2.689,-2.6758,-2.6691,-2.6691,-2.6691,-2.6691,-2.6691,-3.7456,-3.6831,-3.6266,-3.6266,-3.4908,-3.3532,-3.2711,-3.2601,-3.2307,-3.1507,0.0,0.0,0.0,0.0,0.0,-2.9207,-2.906,-2.9042,-2.9042,-2.9005,0.0,0.0,0.0,0.0,0.0,0.0,0.0,0.0,0.0,0.0,0.0,0.0,-3.2748,-3.3076,-3.2339,-3.2645,-3.3757,0.0,-3.383,-3.4045,0.0,-3.6303,-3.6541,0.0,-3.8689,0.0,-3.7823,-3.7529,0.0,-3.6611,0.0,-3.4894,-3.4027,-3.2687,-3.1345,-3.0998,-3.0888,-3.0804,0.0,0.0,0.0,0.0,0.0,0.0,0.0,0.0,0.0,0.0,0.0,0.0,0.0,0.0,0.0,0.0,0.0,0.0,0.0,0.0,0.0,0.0,0.0,0.0,0.0,0.0,0.0,0.0,-2.6691,-2.6691,-2.6657,-2.664,-2.6319,-2.5608,-2.5905,-2.5754,-2.4999,-2.6458,-2.7181,-2.7193,-2.8389,-2.8987,-2.9005,-2.9005,-2.9005,-2.8982,-2.8577,-2.8237,-2.7897,-2.747,-2.7303,-2.7272,-2.6857,-2.6691,-2.6691,-2.6691,-2.6691,-2.6691,-3.6505,-3.5954,-3.5353,-3.5353,-3.4504,-3.3532,-3.2711,-3.2601,-3.2307,0.0,0.0,0.0,-3.032,-3.0393,-3.0595,-3.0723,-3.021,-2.9879,-2.9879,-2.9317,-2.9005,-2.9005,-3.054,-3.1397,0.0,0.0,0.0,0.0,0.0,0.0,0.0,0.0,0.0,0.0,-3.1776,-3.227,-3.2623,-3.3139,0.0,-3.6409,-3.5661,-3.6417,0.0,0.0,0.0,0.0,0.0,-3.8377,-3.8248,0.0,-3.6615,-3.5587,-3.3555,-3.2429,-3.1631,-3.068,-3.0574,-3.0412,-2.8903,0.0,0.0,0.0,0.0,0.0,0.0,0.0,0.0,0.0,0.0,0.0,0.0,0.0,0.0,0.0,0.0,0.0,0.0,0.0,0.0,0.0,0.0,0.0,0.0,0.0,0.0,0.0,-2.6691,-2.6471,-2.593,-2.5405,-2.5139,-2.5232,-2.5856,-2.5778,-2.4926,-2.6446,-2.7049,-2.6775,-2.7688,-2.8436,-2.9005,-2.9005,-2.9005,-2.8994,-2.8875,-2.8791,-2.8626,-2.7692,-2.7303,-2.7272,-2.6857,-2.6691,-2.6691,-2.6691,-2.6691,-2.6691,-3.5661,-3.5353,-3.5004,-3.5004,-3.4325,-3.3642,-3.3183,-3.3096,-3.2926,0.0,0.0,0.0,-3.1292,-3.0595,-3.0393,-3.0852,-3.0173,-2.9702,-2.9702,-2.9262,-2.9005,-2.9005,-3.0228,-3.1054,-3.1397,0.0,0.0,0.0,0.0,0.0,0.0,0.0,0.0,0.0,-3.1168,-3.1491,-3.1576,-3.2519,0.0,0.0,-3.5261,0.0,0.0,-3.7037,-3.7276,0.0,0.0,0.0,-3.7624,-3.7162,-3.6225,0.0,-3.3151,-3.2213,-3.156,-3.0508,-3.0344,-3.0158,-2.8713,-2.8799,0.0,0.0,0.0,0.0,0.0,-2.9901,0.0,0.0,0.0,0.0,0.0,0.0,0.0,0.0,0.0,0.0,0.0,0.0,0.0,0.0,0.0,0.0,0.0,-2.6691,-2.6691,-2.6691,-2.6691,-2.6505,-2.6082,-2.5659,-2.5516,-2.5762,-2.6182,-2.6169,-2.5666,-2.6856,-2.7333,-2.7108,-2.7915,-2.8546,-2.9005,-2.9005,-2.9005,-2.9005,-2.9005,-2.9005,-2.8917,-2.795,-2.7545,-2.7485,-2.6923,-2.6691,-2.6691,-2.6691,-2.6691,-2.6691,0.0,-3.4931,-3.4894,-3.4986,-3.4325,-3.3807,-3.3807,-3.3807,-3.3807,0.0,-3.3715,-3.344,-3.2803,-3.1311,-3.0411,-3.0577,-2.9702,-2.917,-2.9262,-2.9097,-2.9005,-2.9005,-2.9757,-3.0522,-3.125,-3.1452,0.0,0.0,0.0,0.0,0.0,0.0,0.0,0.0,-3.0577,-3.0647,-3.0786,-3.1999,-3.295,-3.3735,-3.4536,-3.4986,0.0,0.0,-3.6211,-3.6303,-3.6303,-3.6303,-3.6285,-3.6193,-3.5165,0.0,-3.2986,-3.2221,-3.1425,-3.0585,-3.0347,0.0,-2.9244,-2.9061,0.0,-2.9351,-2.9195,0.0,-2.9334,-2.9401,0.0,0.0,0.0,0.0,0.0,0.0,0.0,0.0,0.0,0.0,0.0,0.0,0.0,0.0,0.0,0.0,-2.6691,-2.6691,-2.6691,-2.6691,-2.6691,-2.6691,-2.6691,-2.6691,-2.6725,-2.6775,-2.6809,-2.6808,-2.676,-2.7543,-2.7879,-2.7816,-2.862,-2.9005,-2.9005,-2.9005,-2.9005,-2.9005,-2.9005,-2.9005,-2.894,-2.8201,-2.7897,-2.7826,-2.7003,-2.6691,-2.6691,-2.6691,-2.6691,-2.6691,-3.4876,-3.4472,-3.4247,-3.4894,-3.4325,-3.3807,-3.3807,-3.3807,-3.3807,-3.3807,-3.3238,-3.3023,-3.3513,-3.2118,-3.1678,-3.2981,-3.1182,-3.0246,-3.0889,-2.9721,-2.9005,-2.9005,-2.9757,-3.0265,-3.043,-3.1696,-3.2509,0.0,0.0,0.0,0.0,0.0,0.0,0.0,-3.0282,-3.0682,-3.0786,-3.1999,0.0,-3.2842,-3.3686,0.0,-3.5991,-3.5463,-3.5697,-3.6303,-3.6303,-3.6303,-3.6193,-3.5481,-3.5041,-3.4637,0.0,-3.3236,-3.2632,-3.1502,-3.1316,-3.1115,-2.9462,-2.9431,-2.9602,-2.8438,-2.8572,0.0,-2.8286,-2.8151,-2.8353,0.0,0.0,0.0,0.0,0.0,0.0,0.0,0.0,0.0,0.0,0.0,0.0,0.0,0.0,0.0,-2.6691,-2.6691,-2.6691,-2.6691,-2.6691,-2.6691,-2.6691,-2.6691,-2.6841,-2.7178,-2.7493,-2.7472,-2.7104,-2.8196,-2.8436,-2.7816,-2.862,-2.9005,-2.9005,-2.9005,-2.9005,-2.9005,-2.9005,-2.9005,-2.894,-2.8201,-2.7897,-2.7826,-2.7003,-2.6691,-2.6691,-2.6691,-2.6691,-2.6691,-3.4234,-3.4082,-3.3935,-3.4325,-3.4082,-3.366,-3.3256,-3.3201,-3.3201,-3.3201,-3.3201,0.0,-3.3201,-3.2485,-3.232,-3.3128,-3.1733,-3.0797,-3.0797,-3.0063,-2.9427,-2.9023,-2.939,-2.9787,-3.0191,-3.1384,-3.221,0.0,0.0,0.0,0.0,0.0,0.0,0.0,-3.0542,-3.0755,-3.0465,0.0,-3.2144,-3.2213,-3.287,0.0,-3.4725,-3.4273,-3.4497,-3.5055,-3.5055,-3.5055,-3.4981,-3.4546,-3.4399,0.0,-3.3935,-3.3666,-3.3285,0.0,-3.2033,-3.1847,-3.0469,-3.0362,-3.0378,-2.9227,0.0,0.0,0.0,-2.7519,-2.7469,-2.8247,0.0,0.0,0.0,0.0,0.0,0.0,0.0,0.0,0.0,0.0,0.0,0.0,0.0,0.0,-2.7249,-2.6911,-2.6691,-2.6691,-2.6691,-2.6691,-2.6691,-2.6691,-2.6791,-2.6987,-2.7378,-2.7585,-2.7553,-2.8316,-2.8596,-2.8411,-2.8803,-2.9005,-2.9005,-2.9005,-2.9005,-2.9005,-2.9005,-2.9005,-2.894,-2.8201,-2.7897,-2.7826,-2.7003,-2.6691,-2.6691,-2.6691,-2.6691,-2.6691,-3.3421,-3.3697,-3.3807,-3.3807,-3.3807,-3.3587,-3.2931,-3.2821,-3.2821,0.0,0.0,0.0,0.0,0.0,-3.2711,-3.3041,-3.2173,-3.1421,-3.0925,-3.076,-3.0289,-2.95,-2.9464,-2.9684,-3.0191,-3.1065,-3.1759,-3.224,0.0,0.0,0.0,0.0,0.0,0.0,0.0,0.0,0.0,0.0,0.0,-3.1715,0.0,-3.2632,-3.3214,-3.3288,-3.3371,-3.3437,-3.3291,-3.3386,-3.3568,-3.3568,-3.3678,-3.3807,-3.3807,-3.3748,0.0,0.0,0.0,-3.2196,0.0,0.0,-3.0987,-3.0108,0.0,-2.8942,0.0,0.0,0.0,-2.7486,0.0,0.0,0.0,0.0,0.0,0.0,0.0,0.0,0.0,0.0,0.0,0.0,0.0,0.0,-2.8027,-2.7351,-2.6843,-2.6708,-2.6691,-2.6691,-2.6691,-2.6691,-2.6691,-2.6691,-2.7083,-2.7485,-2.7897,-2.8237,-2.859,-2.9005,-2.9005,-2.9005,-2.9005,-2.9005,-2.9005,-2.9005,-2.9005,-2.9005,-2.894,-2.8201,-2.7897,-2.7826,-2.7003,-2.6691,-2.6691,-2.6691,-2.6691,-2.6691,-3.2583,-3.3311,-3.3807,-3.3807,-3.3807,-3.377,-3.3678,-3.366,-3.366,0.0,0.0,0.0,0.0,0.0,0.0,0.0,0.0,0.0,-3.3348,-3.2711,-3.1971,-3.1158,-3.114,-3.0834,-3.021,-3.1334,-3.1639,-3.0996,0.0,0.0,0.0,0.0,-3.1198,-3.1072,-3.1157,0.0,0.0,0.0,-3.1271,0.0,-3.1329,-3.2092,0.0,-3.3611,-3.3127,-3.2212,-3.1492,-3.1869,-3.2729,0.0,-3.322,-3.3807,0.0,-3.355,-3.3184,-3.2648,0.0,0.0,0.0,0.0,0.0,0.0,-2.955,0.0,0.0,0.0,-2.7503,-2.6945,0.0,0.0,0.0,0.0,0.0,0.0,0.0,0.0,0.0,0.0,0.0,0.0,0.0,0.0,0.0,-2.8146,-2.7401,-2.6742,-2.6691,-2.6691,-2.6691,-2.6691,-2.6691,-2.6691,-2.7083,-2.7485,-2.7897,-2.8237,-2.859,-2.9005,-2.9005,-2.9005,-2.9005,-2.9005,-2.9005,-2.9005,-2.9005,-2.9005,-2.894,-2.8201,-2.7897,-2.7826,-2.7003,-2.6691,-2.6691,-2.6691,-2.6691,-2.6691,-3.2436,-3.3256,-3.3807,-3.3807,-3.3807,-3.3642,-3.3183,-3.3495,-3.3458,0.0,0.0,0.0,0.0,0.0,0.0,0.0,0.0,-3.394,0.0,0.0,-3.2724,-3.147,-3.1397,-3.0906,-2.9864,-3.083,-3.1063,-3.0443,-3.0937,0.0,0.0,0.0,-3.119,-3.119,-3.119,0.0,-3.119,0.0,-3.0954,0.0,0.0,0.0,0.0,-3.1937,-3.1615,-3.1011,-3.0656,-3.0866,-3.1265,0.0,-3.1769,0.0,0.0,0.0,0.0,-3.223,0.0,0.0,0.0,0.0,0.0,0.0,0.0,0.0,-2.7571,0.0,-2.708,0.0,0.0,0.0,0.0,0.0,0.0,0.0,0.0,0.0,0.0,0.0,0.0,0.0,0.0,0.0,0.0,0.0,0.0,0.0,-2.6945,-2.6691,-2.6691,-2.6691,-2.6691,-2.6691,-2.6857,-2.7147,-2.7545,-2.7922,-2.829,-2.8658,-2.8893,-2.9005,-2.9005,-2.9005,-2.9005,-2.9005,-2.9005,-2.9005,-2.894,-2.8201,-2.7897,-2.7826,-2.7003,-2.6691,-2.6691,-2.6691,-2.6691,-2.6691,-3.2491,-3.3256,-3.3807,-3.3807,-3.3807,-3.3605,-3.3023,-3.3421,-3.3385,-3.2223,0.0,0.0,-3.306,-3.3458,0.0,0.0,-3.5353,-3.5188,0.0,0.0,-3.3954,-3.2792,-3.2296,-3.161,-3.0613,-3.1078,-3.0993,-3.0312,-3.0664,0.0,0.0,0.0,-3.097,-3.0618,0.0,-3.1089,-3.0903,0.0,-3.0886,-3.0465,-3.1303,-3.1073,-3.0248,-3.0352,-3.0217,-2.9923,-2.9604,-2.9688,-2.9955,-2.9955,-3.047,0.0,-3.1093,0.0,-3.1931,0.0,0.0,0.0,-3.122,0.0,0.0,0.0,0.0,0.0,0.0,0.0,0.0,0.0,0.0,0.0,0.0,0.0,0.0,0.0,0.0,0.0,0.0,0.0,0.0,0.0,0.0,0.0,0.0,0.0,0.0,0.0,0.0,-2.6691,-2.6691,-2.6691,-2.6691,-2.6691,-2.6691,-2.689,-2.7303,-2.7692,-2.8061,-2.8389,-2.8815,-2.9005,-2.9005,-2.9005,-2.9005,-2.9005,-2.9005,-2.9005,-2.894,-2.8201,-2.7897,-2.7826,-2.7003,-2.6691,-2.6691,-2.6691,-2.6691,-2.6691,-3.2583,-3.3256,0.0,-3.3807,-3.3807,-3.3788,-3.377,-3.377,-3.377,-3.3733,0.0,0.0,0.0,0.0,0.0,0.0,0.0,-3.6593,-3.7327,0.0,-3.6193,-3.6138,-3.4578,-3.3515,-3.3087,-3.2674,-3.1842,-3.0577,-3.0982,-3.0821,0.0,0.0,0.0,0.0,-3.0567,-3.0801,-3.0192,-3.0903,-3.119,-3.1157,-3.1193,-3.0349,-2.9099,0.0,-2.9429,-2.8992,-2.7834,0.0,0.0,-2.9142,-2.9671,0.0,0.0,0.0,0.0,0.0,0.0,0.0,0.0,0.0,0.0,-2.9213,0.0,0.0,0.0,0.0,-2.6894,0.0,0.0,0.0,0.0,0.0,-2.6691,-2.6691,0.0,0.0,0.0,0.0,0.0,0.0,0.0,0.0,0.0,0.0,0.0,0.0,-2.6708,0.0,-2.6691,-2.6691,-2.6691,-2.6691,-2.6691,-2.689,-2.7303,-2.7692,-2.8061,-2.8389,-2.8815,-2.9005,-2.9005,-2.9005,-2.9005,-2.9005,-2.9005,-2.9005,-2.894,-2.8201,-2.7897,-2.7826,-2.7003,-2.6691,-2.6691,-2.6691,-2.6691,-2.6691,0.0,0.0,0.0,0.0,0.0,-3.3807,-3.3807,-3.4252,-3.4399,0.0,-3.4266,0.0,0.0,-3.3807,-3.4468,0.0,0.0,-3.6648,-3.7456,-3.7254,0.0,-3.6321,-3.5752,-3.4841,0.0,-3.2899,-3.2056,-3.0997,-3.0641,-3.0598,0.0,0.0,0.0,0.0,0.0,-3.0598,0.0,0.0,0.0,0.0,0.0,-2.945,-2.8892,0.0,-2.7602,-2.7459,-2.7057,-2.7174,0.0,-2.7508,-2.8026,-2.8646,-2.8646,-2.9059,-2.9569,-2.9569,-2.9476,-2.9433,0.0,0.0,-2.8517,-2.8281,0.0,0.0,0.0,0.0,0.0,0.0,0.0,0.0,0.0,0.0,0.0,-2.6691,0.0,0.0,0.0,0.0,0.0,0.0,0.0,0.0,0.0,0.0,0.0,0.0,-2.6979,0.0,0.0,-2.6691,-2.6691,-2.6691,-2.6691,-2.6775,-2.6906,-2.7303,-2.756,-2.7675,-2.8298,-2.8602,-2.8602,-2.8875,-2.9005,-2.8994,-2.8725,-2.8602,-2.854,-2.7823,-2.75,-2.7439,-2.6906,-2.6691,-2.6691,-2.6691,-2.6691,-2.6691,-3.3036,0.0,0.0,0.0,0.0,-3.4137,-3.3844,-3.4247,0.0,0.0,-3.4252,0.0,-3.3862,0.0,-3.4357,0.0,-3.6119,-3.6648,-3.7456,-3.7492,0.0,-3.7165,-3.6597,-3.5839,0.0,0.0,-3.288,-3.1878,-3.1223,-3.0717,0.0,0.0,0.0,0.0,0.0,-3.0362,-3.0835,0.0,-3.092,0.0,0.0,-2.923,0.0,0.0,-2.6928,-2.6691,0.0,-2.6691,-2.6691,-2.6691,-2.7012,-2.7401,-2.7401,-2.7943,-2.8569,-2.8569,-2.8569,-2.8636,-2.8925,-2.8416,0.0,-2.7807,-2.7435,0.0,-2.7097,0.0,-2.7317,0.0,0.0,0.0,0.0,0.0,0.0,0.0,-2.6691,0.0,0.0,-2.6691,0.0,0.0,0.0,0.0,0.0,0.0,-2.7638,-2.8197,-2.752,0.0,0.0,0.0,-2.6962,-2.6708,-2.6691,-2.6691,-2.6691,-2.7099,-2.7303,-2.7319,-2.8057,-2.8407,-2.842,-2.867,-2.8803,-2.8761,-2.8399,-2.8224,-2.8166,-2.7542,-2.7303,-2.7272,-2.6857,-2.6691,-2.6691,-2.6691,-2.6691,-2.6691,-3.3862,0.0,0.0,0.0,-3.5041,0.0,0.0,0.0,-3.3807,0.0,-3.3807,-3.3807,-3.3807,-3.3807,-3.4119,-3.4931,-3.5771,-3.6593,-3.7382,-3.7474,0.0,0.0,-3.7202,-3.6565,-3.6842,0.0,0.0,0.0,-3.2505,-3.1125,0.0,0.0,0.0,0.0,-2.9447,0.0,-3.0209,-3.0903,-3.1173,-3.1072,-3.0345,-2.96,-2.8857,-2.8043,-2.73,-2.6691,-2.6691,-2.6691,-2.6691,-2.6691,-2.6691,-2.6691,-2.6691,-2.7182,-2.7756,-2.7756,-2.7756,-2.7908,-2.8688,-2.8332,-2.7756,-2.7756,-2.7756,0.0,0.0,0.0,-2.7959,0.0,0.0,0.0,0.0,0.0,0.0,0.0,0.0,0.0,0.0,0.0,0.0,0.0,0.0,0.0,0.0,0.0,-2.7334,-2.884,-2.8229,0.0,0.0,0.0,-2.7486,-2.6776,-2.6708,-2.6691,-2.6691,-2.7083,-2.7272,-2.7288,-2.8002,-2.8355,-2.8355,-2.8368,-2.8381,-2.8368,-2.802,-2.7869,-2.784,-2.7441,-2.7272,-2.7241,-2.6841,-2.6691,-2.6691,-2.6691,-2.6691,-2.6691,-3.4692,-3.5862,-3.667,0.0,-3.5426,-3.4931,0.0,0.0,0.0,0.0,-3.3807,-3.3807,-3.3807,-3.3807,-3.4119,-3.4931,-3.5206,0.0,0.0,0.0,0.0,-3.7804,-3.7991,-3.7938,-3.7622,-3.581,-3.4552,-3.3927,0.0,0.0,-3.0635,0.0,0.0,0.0,0.0,0.0,-3.092,-3.1123,-3.0886,-3.0328,-2.9567,-2.8805,-2.8044,0.0,-2.686,-2.6691,-2.6691,-2.6691,-2.6691,-2.6691,-2.6691,-2.6691,-2.6691,-2.6826,-2.6979,-2.6979,-2.6979,-2.7029,-2.7232,-2.7131,-2.6979,-2.6979,-2.6979,-2.6979,0.0,0.0,0.0,0.0,0.0,0.0,0.0,0.0,0.0,0.0,0.0,0.0,0.0,0.0,0.0,-2.6691,0.0,0.0,-2.6962,-2.681,-2.7097,-2.8027,-2.7925,0.0,0.0,0.0,0.0,-2.7519,-2.6996,-2.6691,-2.6691,-2.6791,-2.6857,-2.6857,-2.7348,-2.7587,-2.7587,-2.7894,-2.802,-2.8006,-2.7619,-2.7454,-2.7424,-2.7019,-2.6857,-2.6841,-2.6741,-2.6691,-2.6691,-2.6691,-2.6691,-2.6691,-3.5555,0.0,0.0,-3.7367,0.0,0.0,-3.5059,-3.4619,0.0,-3.3844,-3.3807,0.0,-3.3807,-3.3807,-3.399,-3.4435,-3.4802,0.0,-3.5701,0.0,0.0,-3.6978,-3.7404,-3.7554,-3.7388,-3.5721,0.0,-3.4202,0.0,0.0,-3.07,0.0,0.0,0.0,0.0,-3.0514,0.0,-3.119,-3.0768,-3.0055,-2.9651,-2.8805,0.0,-2.7334,-2.6979,-2.6691,-2.6691,-2.6691,-2.6691,-2.6691,-2.6691,-2.6691,-2.6691,-2.6691,-2.6691,-2.6691,-2.6691,-2.6691,-2.6691,-2.6691,-2.6691,-2.6691,-2.6691,-2.6776,-2.7114,-2.7182,-2.73,0.0,-2.7469,-2.7215,0.0,0.0,0.0,0.0,0.0,0.0,0.0,0.0,0.0,0.0,-2.6691,0.0,-2.6691,-2.6691,-2.7148,-2.8247,-2.8332,0.0,0.0,0.0,0.0,-2.7824,-2.708,-2.6691,-2.6691,-2.6691,-2.6539,-2.6218,-2.6633,-2.6833,-2.6816,-2.672,-2.7031,-2.7587,-2.688,-2.6743,-2.7019,-2.6791,-2.6691,-2.6691,-2.6691,-2.6691,-2.6691,-2.6691,-2.6691,-2.6691,-3.6597,0.0,0.0,0.0,0.0,0.0,0.0,-3.4986,0.0,-3.3899,0.0,-3.3807,-3.3807,-3.3807,-3.3807,-3.3807,0.0,-3.4839,-3.4839,-3.5661,-3.6138,-3.6138,-3.6229,-3.644,-3.6687,-3.5454,-3.4603,0.0,-3.283,-3.1515,0.0,0.0,0.0,0.0,0.0,0.0,0.0,-3.119,-3.0717,-2.9973,-2.9973,-2.9024,-2.7655,-2.7655,-2.7249,-2.6691,-2.6691,-2.6691,-2.6691,-2.6691,-2.6691,-2.6691,-2.6691,-2.6691,-2.6691,-2.6691,-2.6691,-2.6691,-2.6691,-2.6691,-2.6691,-2.6691,-2.6691,-2.686,-2.7503,-2.7655,-2.7621,-2.7536,-2.7587,-2.7435,0.0,0.0,0.0,0.0,0.0,0.0,0.0,0.0,0.0,0.0,0.0,0.0,0.0,-2.6691,-2.73,-2.8739,-2.884,0.0,0.0,0.0,0.0,-2.7824,-2.708,-2.6691,-2.6691,0.0,-2.637,-2.5744,-2.6004,-2.6135,-2.61,-2.5455,-2.5856,-2.7037,-2.6126,-2.6116,-2.6691,-2.6691,-2.6691,-2.6691,-2.6691,-2.6691,-2.6691,-2.6691,-2.6691,-2.6691,-3.8157,0.0,0.0,0.0,0.0,-3.7015,-3.6193,-3.4908,-3.3972,-3.3825,-3.3807,-3.3807,-3.3807,-3.3807,-3.3807,-3.3807,-3.3935,0.0,0.0,0.0,0.0,-3.5224,-3.5917,-3.644,-3.6687,-3.5454,-3.4603,-3.4202,-3.2317,-3.1258,-3.0987,0.0,0.0,0.0,0.0,0.0,-3.119,-3.119,0.0,-2.9196,-2.9196,-2.8282,-2.6894,-2.6894,-2.681,-2.6691,-2.6691,-2.6691,-2.6691,-2.6691,-2.6691,-2.6691,-2.6691,-2.6691,-2.6691,-2.6691,-2.6691,-2.6691,-2.6691,-2.6691,-2.6691,-2.6691,-2.6691,-2.6725,-2.686,-2.6894,-2.6725,-2.61,-2.6471,-2.6674,-2.593,0.0,0.0,0.0,0.0,0.0,0.0,0.0,0.0,0.0,0.0,-2.6691,0.0,-2.6691,-2.7063,-2.7942,0.0,0.0,0.0,0.0,0.0,0.0,-2.708,0.0,0.0,0.0,-2.664,-2.6488,-2.5944,-2.5721,-2.5704,-2.5568,-2.5653,-2.5925,-2.6335,-2.6573,-2.6691,-2.6691,-2.6691,-2.6691,-2.6691,-2.6691,-2.6691,-2.6691,-2.6691,-2.6691,0.0,0.0,0.0,0.0,0.0,0.0,0.0,-3.4596,-3.3807,-3.3807,-3.3807,-3.3807,-3.3807,-3.3807,-3.3807,-3.3807,-3.3807,-3.3807,-3.3807,-3.4174,-3.438,-3.438,-3.478,-3.5148,-3.5445,-3.4618,-3.3969,-3.3576,-3.2366,-3.1582,-3.119,0.0,0.0,0.0,0.0,-3.119,0.0,0.0,0.0,-2.8993,-2.8993,-2.8079,-2.6691,-2.6691,-2.6691,-2.6691,-2.6691,-2.6691,-2.6691,-2.6691,-2.6691,-2.6691,-2.6691,-2.6691,-2.6691,-2.6691,-2.6691,-2.6691,-2.6691,-2.6691,-2.6691,-2.6691,-2.6404,-2.6133,-2.6133,-2.5828,-2.5455,-2.5101,-2.532,-2.5574,-2.5592,-2.6201,0.0,0.0,0.0,0.0,0.0,0.0,-2.6691,0.0,0.0,0.0,0.0,0.0,0.0,0.0,0.0,0.0,0.0,0.0,0.0,0.0,0.0,0.0,0.0,0.0,0.0,-2.6116,-2.5372,-2.5033,-2.5,-2.4239,-2.4511,-2.5592,-2.5558,-2.5997,-2.6691,-2.6691,-2.6691,-2.6691,-2.6691,-2.6691,-2.6691,-2.6691,-2.6556,-2.6332,0.0,-3.8579,0.0,0.0,-3.656,0.0,-3.5096,-3.4307,-3.3807,-3.3807,-3.3807,-3.3807,-3.3807,-3.3807,-3.3807,-3.3807,-3.3807,-3.3807,-3.3807,-3.3807,-3.3807,-3.3807,-3.3807,-3.3962,-3.4294,-3.4115,-3.3811,0.0,-3.2936,-3.2338,0.0,-3.1317,-3.119,-3.119,0.0,0.0,0.0,0.0,-3.0448,-2.923,-2.9061,-2.818,-2.6911,-2.6759,-2.6691,-2.6691,-2.6691,-2.6691,-2.6691,-2.6691,-2.6691,-2.6691,-2.6691,-2.6691,-2.6691,-2.6691,-2.6691,-2.6691,-2.6691,-2.6691,-2.6657,-2.6505,-2.6031,-2.5558,-2.5406,-2.4915,-2.4457,-2.4305,-2.4271,-2.4541,-2.5439,-2.6065,0.0,0.0,0.0,0.0,0.0,0.0,0.0,0.0,0.0,0.0,-2.6691,0.0,0.0,0.0,0.0,0.0,-2.757,0.0,0.0,0.0,0.0,-2.6623,-2.6471,0.0,-2.6099,-2.5372,-2.4626,-2.4271,-2.422,-2.3054,-2.3579,-2.5338,-2.4915,-2.5489,-2.6691,-2.6691,-2.6691,-2.6691,-2.6691,-2.6691,-2.6691,-2.6691,-2.6401,-2.5979,0.0,0.0,0.0,0.0,0.0,0.0,-3.5023,-3.4307,-3.3807,-3.3807,-3.3807,-3.3807,-3.3807,-3.3807,-3.3807,-3.3807,-3.3807,-3.3807,-3.3807,-3.3807,-3.3807,-3.3807,-3.3807,-3.3962,-3.4294,-3.4981,-3.5091,0.0,0.0,-3.3642,0.0,-3.1732,-3.119,-3.119,0.0,0.0,0.0,-3.119,-3.0734,-2.9939,-2.9281,-2.8467,-2.7621,-2.6945,-2.6691,-2.6691,-2.6691,-2.6691,-2.6691,-2.6691,-2.6691,-2.6691,-2.6691,-2.6691,-2.6691,-2.6691,-2.6691,-2.6691,-2.6691,-2.6691,-2.6539,-2.5879,-2.5643,-2.5423,-2.4762,-2.4541,-2.4305,-2.3644,-2.3494,-2.3934,-2.5339,-2.5659,-2.593,0.0,0.0,0.0,0.0,0.0,-2.6691,-2.6691,0.0,0.0,0.0,-2.6691,0.0,0.0,-2.6759,0.0,0.0,0.0,0.0,-2.6793,0.0,-2.637,-2.571,-2.5694,-2.5321,-2.4592,-2.3864,-2.3494,-2.3509,-2.3359,-2.3765,-2.4643,-2.5236,-2.5947,-2.6691,-2.6691,-2.6691,-2.6691,-2.6691,-2.6691,-2.6691,-2.6691,-2.6401,-2.5924,0.0,0.0,0.0,0.0,0.0,0.0,0.0,-3.4009,-3.3807,-3.3807,-3.3807,-3.3807,-3.3807,-3.3807,-3.3807,-3.3807,-3.3807,-3.3807,-3.3807,-3.3807,-3.3807,-3.3807,-3.3807,-3.3854,-3.3996,-3.4992,-3.4949,0.0,0.0,0.0,-3.2346,-3.1581,-3.119,-3.119,0.0,-3.119,-3.119,-3.119,-3.0514,-2.9397,-2.9128,-2.8247,-2.7114,-2.681,-2.6691,-2.6691,-2.6691,-2.6691,-2.6691,-2.6691,-2.6691,-2.6691,-2.6691,-2.6691,-2.6691,-2.6691,-2.6691,-2.6691,-2.6691,-2.6691,-2.6623,-2.6336,-2.5592,-2.4863,-2.4558,-2.3831,-2.3105,-2.2801,-2.3088,-2.3579,-2.4171,-2.5,-2.571,-2.5998,0.0,0.0,0.0,0.0,0.0,-2.6691,0.0,-2.6691,0.0,0.0,0.0,0.0,0.0,-2.6894,-2.7334,-2.6945,0.0,-2.7351,0.0,-2.6353,-2.5609,-2.5592,-2.522,-2.4491,-2.3763,-2.3393,-2.3376,-2.2936,-2.3376,-2.4558,-2.5744,-2.642,-2.6691,-2.6691,-2.6691,-2.6674,-2.6384,-2.6279,-2.6228,-2.5926,-2.5486,-2.5012,-3.6083,0.0,-3.5661,0.0,-3.4656,-3.4454,-3.3899,-3.3807,-3.3807,-3.3807,-3.3807,-3.3807,-3.3807,-3.3807,-3.3807,-3.3807,-3.3807,-3.3807,-3.3807,-3.3807,-3.3807,-3.3807,-3.3807,0.0,-3.3807,-3.4703,-3.4645,-3.3542,-3.3776,0.0,-3.2242,-3.1528,-3.119,0.0,-3.119,-3.119,-3.119,-3.119,-3.0463,-2.9314,-2.9094,-2.8214,-2.6996,-2.6776,-2.6691,-2.6691,-2.6691,-2.6691,-2.6691,-2.6691,-2.6691,-2.6691,-2.6691,-2.6691,-2.6691,-2.6691,-2.6691,-2.6691,-2.6691,-2.6691,-2.659,-2.6166,-2.5269,-2.4389,-2.3949,-2.3054,-2.2296,-2.2296,-2.2702,-2.3139,-2.3359,-2.4425,-2.5355,-2.5559,0.0,0.0,0.0,-2.6691,0.0,-2.6691,-2.6691,-2.6691,-2.6691,-2.6691,0.0,0.0,0.0,-2.6928,-2.7452,-2.6979,0.0,0.0,0.0,0.0,-2.5287,-2.527,-2.4797,-2.3848,-2.3325,-2.3071,-2.3071,-2.2987,-2.3526,-2.4575,-2.6065,-2.6691,-2.6691,-2.6691,-2.6624,-2.647,-2.6279,-2.6033,-2.5726,-2.5521,-2.5008,-2.441,-3.5188,-3.5023,-3.4766,-3.3954,-3.3807,-3.3807,-3.3807,-3.3807,-3.3807,-3.3807,-3.3807,-3.3807,-3.3807,-3.3807,-3.3807,-3.3807,-3.3807,-3.3807,-3.3807,-3.3807,-3.3807,0.0,0.0,-3.3807,-3.3807,-3.4189,-3.439,-3.439,0.0,0.0,-3.306,-3.1788,-3.119,-3.119,-3.119,-3.119,-3.119,-3.119,-3.0768,-3.0023,-2.9279,-2.8518,-2.7705,-2.6979,-2.6691,-2.6691,-2.6691,-2.6691,-2.6691,-2.6691,-2.6691,-2.6691,-2.6691,-2.6691,-2.6691,-2.6691,-2.6691,-2.6691,-2.6691,-2.6691,-2.6352,-2.488,-2.4508,-2.4118,-2.2651,-2.2313,-2.2296,-2.2296,-2.2296,-2.2533,-2.3274,-2.4017,-2.4745,-2.549,0.0,0.0,0.0,-2.6691,0.0,-2.6691,-2.6691,-2.6691,-2.6691,-2.6691,0.0,0.0,0.0,-2.6691,-2.6708,0.0,0.0,-2.6708,-2.6691,0.0,-2.4525,-2.4508,-2.378,-2.233,-2.2313,-2.2313,-2.2347,-2.3799,-2.4474,-2.4575,-2.6065,-2.6691,-2.6691,-2.6691,-2.6419,-2.6049,-2.6505,-2.6087,-2.5278,-2.5797,-2.5316,-2.441,-3.4325,-3.4192,-3.41,-3.3844,-3.3807,-3.3807,-3.3807,-3.3807,-3.3807,-3.3807,-3.3807,-3.3807,-3.3807,-3.3807,-3.3807,0.0,-3.3807,-3.3807,0.0,-3.3807,-3.3807,-3.3807,-3.3807,-3.3807,-3.3807,-3.4452,-3.4411,-3.3578,0.0,0.0,0.0,-3.139,-3.119,-3.119,-3.119,-3.092,-3.0446,-3.0446,-2.9719,-2.8517,-2.828,-2.774,-2.7029,-2.6793,-2.6691,-2.6691,-2.6691,-2.6691,-2.6691,-2.6691,-2.6691,-2.6691,-2.6691,-2.6691,-2.6691,-2.6691,-2.6691,-2.6691,-2.6691,-2.6691,-2.6471,-2.549,-2.488,-2.4254,-2.3274,-2.2651,-2.2296,-2.2296,-2.2296,-2.2364,-2.2615,-2.3661,-2.4575,-2.4812,-2.5879,0.0,-2.6691,0.0,-2.6691,-2.6691,-2.6691,-2.6691,-2.6691,-2.6691,0.0,0.0,0.0,0.0,0.0,0.0,0.0,0.0,-2.6962,0.0,-2.4508,-2.5,-2.4509,-2.3054,-2.3562,-2.3814,-2.3831,-2.4797,-2.5253,-2.5304,-2.6268,-2.6691,-2.6691,-2.6691,-2.6419,-2.5995,-2.5762,-2.5262,-2.4617,-2.443,-2.4158,-2.3858,-3.3899,-3.3807,-3.3807,-3.3807,-3.3807,-3.3807,-3.3807,-3.3807,-3.3807,-3.3807,-3.3807,-3.3807,-3.3807,-3.3807,0.0,-3.3807,-3.3807,-3.3807,-3.3807,-3.3807,-3.3807,-3.3807,-3.3807,-3.3807,-3.3807,-3.4146,0.0,-3.3199,-3.3062,-3.2456,-3.143,-3.1271,-3.119,-3.119,-3.0903,-3.0531,-3.0072,-2.9803,-2.8975,-2.7807,-2.7807,-2.735,-2.6691,-2.6691,-2.6691,-2.6691,-2.6691,-2.6691,-2.6691,-2.6691,-2.6691,-2.6691,-2.6691,-2.6691,-2.6691,-2.6691,-2.6691,-2.6691,-2.6691,-2.6691,-2.6522,-2.5795,-2.505,-2.4237,-2.3224,-2.2632,-2.2296,-2.2296,-2.2296,-2.2381,-2.2651,-2.3695,-2.4592,-2.488,-2.5913,-2.6691,-2.6691,0.0,-2.6691,0.0,0.0,0.0,0.0,-2.6691,-2.6691,0.0,0.0,0.0,0.0,0.0,0.0,-2.7367,-2.6674,-2.5828,-2.4915,-2.5101,-2.4712,-2.3831,-2.4271,-2.4491,-2.4525,-2.527,-2.5592,-2.5642,-2.6387,-2.6691,-2.6691,-2.6691,-2.6298,-2.5689,-2.5559,-2.493,-2.4074,-2.3948,-2.3773,-2.3595,-3.3807,-3.3807,-3.3807,0.0,-3.3807,0.0,-3.3807,-3.3807,-3.3807,-3.3807,-3.3807,-3.3807,-3.3807,-3.3807,-3.3807,-3.3807,0.0,0.0,0.0,-3.3807,-3.3807,-3.3807,-3.3807,-3.3807,-3.3807,-3.3419,-3.3229,-3.3199,-3.2298,-3.1843,-3.1789,-3.1411,-3.123,-3.1157,-3.0429,-3.0074,-2.9989,-2.9228,-2.845,-2.7722,-2.7722,-2.73,-2.6691,-2.6691,-2.6691,-2.6691,-2.6691,-2.6691,-2.6691,-2.6691,-2.6691,-2.6691,-2.6691,-2.6691,-2.6691,-2.6691,-2.6691,-2.6691,-2.6691,-2.6691,-2.6522,-2.5795,-2.505,-2.4135,-2.2699,-2.2381,-2.2347,-2.2313,-2.233,-2.2584,-2.3274,-2.4051,-2.4795,-2.549,-2.6218,-2.6691,-2.6691,-2.6691,-2.6691,0.0,0.0,0.0,-2.6691,-2.6691,-2.6691,0.0,0.0,0.0,0.0,0.0,-2.6691,-2.6691,-2.6031,-2.5643,-2.5592,-2.4982,-2.4643,-2.4643,-2.4643,-2.4643,-2.4677,-2.5355,-2.5693,-2.571,-2.6404,-2.6691,-2.6691,-2.6691,-2.6105,-2.5259,-2.5744,-2.4973,-2.3659,-2.4158,-2.4032,-2.3595,0.0,0.0,-3.3807,-3.3807,-3.3807,-3.3807,-3.3807,-3.3807,-3.3807,-3.3807,-3.3807,-3.3807,-3.3807,-3.3807,-3.3807,-3.3807,-3.3807,-3.3807,-3.3807,-3.3807,-3.3807,-3.3807,-3.3807,-3.3807,-3.3807,-3.3707,-3.3508,-3.3199,-3.2632,-3.2144,-3.1807,-3.1715,-3.1488,-3.1157,-3.0429,-2.9786,-2.9213,-2.8433,-2.7655,-2.6962,-2.6962,-2.686,-2.6691,-2.6691,-2.6691,-2.6691,-2.6691,-2.6691,-2.6691,-2.6691,-2.6691,-2.6691,-2.6691,-2.6691,-2.6691,-2.6691,-2.6691,-2.6691,-2.6691,-2.6691,-2.6522,-2.5795,-2.505,-2.4254,-2.3342,-2.3139,-2.2987,-2.2429,-2.275,-2.319,-2.3359,-2.4458,-2.5406,-2.5575,-2.6218,-2.6691,-2.6691,-2.6691,-2.6691,0.0,-2.6691,-2.6691,-2.6691,-2.6691,-2.6691,0.0,0.0,0.0,-2.6691,-2.6691,-2.6691,-2.6691,-2.6522,-2.6167,-2.5609,-2.5981,-2.6183,-2.6183,-2.6183,-2.6183,-2.62,-2.6353,-2.6437,-2.6437,-2.6623,-2.6691,-2.6691,-2.6691,-2.6105,-2.5221,-2.5335,-2.4672,-2.3616,-2.373,-2.3724,-2.3595,-3.3815,-3.3807,-3.3807,-3.3807,-3.3807,-3.3807,-3.3807,-3.3807,-3.3807,-3.3807,-3.3807,-3.3807,-3.3807,-3.3807,-3.3807,-3.3807,-3.3807,-3.3807,-3.3807,-3.3807,-3.3807,-3.3807,-3.3807,-3.3807,-3.3807,-3.3807,-3.3694,-3.348,-3.3045,-3.2697,-3.2433,-3.2004,-3.1678,-3.1416,-3.017,-2.9364,-2.8925,-2.7774,-2.7063,-2.6691,-2.6691,-2.6691,-2.6691,-2.6691,-2.6691,-2.6691,-2.6691,-2.6691,-2.6691,-2.6691,-2.6691,-2.6691,-2.6691,-2.6691,-2.6691,-2.6691,-2.6691,-2.6691,-2.6691,-2.6691,-2.6522,-2.5795,-2.5304,-2.4712,-2.3646,-2.3393,-2.3291,-2.2885,-2.3122,-2.3613,-2.4272,-2.5067,-2.571,-2.6048,-2.6437,-2.6691,-2.6691,-2.6691,-2.6691,-2.6691,-2.6691,-2.6691,-2.6691,-2.6691,-2.6691,-2.6691,-2.6691,0.0,-2.6691,-2.6691,-2.6691,-2.6691,-2.637,-2.6167,-2.6099,-2.6488,-2.6691,-2.6691,-2.6691,-2.6691,-2.6691,-2.6691,-2.6691,-2.6691,-2.6691,-2.659,-2.6384,-2.6384,-2.5764,-2.4835,-2.4835,-2.4328,-2.3595,-2.3595,-2.3595,-2.3595,-3.3842,-3.3807,-3.3807,-3.3807,-3.3807,-3.3807,-3.3807,-3.3807,-3.3807,-3.3807,-3.3807,-3.3807,-3.3807,-3.3807,-3.3807,-3.3807,-3.3807,-3.3807,-3.3807,-3.3807,-3.3807,-3.3807,-3.3807,-3.3807,-3.3807,-3.3807,-3.3807,-3.3807,-3.3465,-3.3258,-3.3184,-3.2383,-3.1969,-3.1827,-3.0051,-2.9254,-2.9152,-2.769,-2.7046,-2.7046,-2.7046,-2.6962,-2.686,-2.686,-2.6793,-2.6691,-2.6691,-2.6691,-2.6691,-2.6691,-2.6691,-2.6691,-2.6691,-2.6691,-2.6691,-2.6691,-2.6691,-2.6691,-2.6691,-2.6691,-2.6539,-2.593,-2.5778,-2.5423,-2.4036,-2.3731,-2.3697,-2.3579,-2.3646,-2.4103,-2.5372,-2.5693,-2.5981,-2.659,-2.6691,-2.6691,-2.6691,0.0,-2.6691,-2.6691,-2.6691,-2.6691,-2.6691,-2.6691,-2.6691,-2.6691,-2.6691,-2.6691,-2.6691,-2.6691,-2.6691,-2.6691,-2.6099,-2.6065,-2.6691,-2.6691,-2.6691,-2.6691,-2.6691,-2.6691,-2.6691,-2.6691,-2.6691,-2.6691,-2.6624,-2.6367,-2.5979,-2.5906,-2.5297,-2.441,-2.441,-2.4074,-2.3595,-2.3595,-2.3595,-2.3595,-3.382,-3.3807,-3.3807,-3.3807,-3.3807,-3.3807,-3.3807,-3.3807,-3.3807,-3.3807,-3.3807,-3.3807,-3.3807,-3.3807,-3.3807,-3.3807,-3.3807,-3.3807,-3.3807,-3.3807,-3.3807,-3.3807,-3.3807,-3.3807,-3.3807,-3.3807,-3.3807,-3.3807,-3.3734,-3.3536,-3.3199,-3.3045,-3.2777,-3.2331,-3.1011,-3.0439,-3.0352,-2.9139,-2.8637,-2.8637,-2.8637,-2.823,-2.7621,-2.7621,-2.7232,-2.6691,-2.6691,-2.6691,-2.6691,-2.6691,-2.6691,-2.6691,-2.6691,-2.6691,-2.6691,-2.6691,-2.6691,-2.6691,-2.6691,-2.6691,-2.6674,-2.6556,-2.6522,-2.6302,-2.5456,-2.527,-2.5084,-2.4457,-2.4814,-2.5338,-2.5559,-2.6116,-2.6573,-2.6674,-2.6691,-2.6691,-2.6691,0.0,-2.6691,-2.6691,-2.6691,-2.6691,-2.6691,-2.6691,-2.6691,-2.6691,-2.6691,-2.6691,-2.6691,-2.6691,-2.6691,-2.6691,-2.659,-2.6573,-2.6691,-2.6691,-2.6691,-2.6691,-2.6691,-2.6691,-2.6691,-2.6691,-2.6691,-2.6674,-2.6279,-2.6067,-2.5961,-2.5505,-2.4969,-2.441,-2.441,-2.4074,-2.3595,-2.3595,-2.3595,-2.3595,-3.3829,-3.3458,-3.3293,-3.3715,-3.344,-3.3311,-3.3733,-3.3807,-3.3807,-3.3807,-3.3807,-3.3807,-3.3807,-3.3421,-3.3146,-3.3146,-3.2761,-3.2504,-3.2504,-3.3311,-3.3807,-3.3807,-3.3807,-3.3807,-3.3807,-3.3807,-3.3807,-3.3807,-3.3807,-3.3707,-3.3522,-3.3302,-3.3075,-3.282,-3.1621,-3.0938,-3.063,-2.9713,-2.921,-2.8993,-2.8993,-2.8518,-2.7807,-2.7807,-2.7334,-2.6691,-2.6691,-2.6691,-2.6691,-2.6691,-2.6691,-2.6691,-2.6691,-2.6691,-2.6691,-2.6691,-2.6691,-2.6691,-2.6691,-2.6691,-2.6691,-2.6691,-2.6691,-2.6505,-2.5778,-2.5592,-2.5507,-2.5152,-2.5372,-2.5711,-2.6116,-2.6471,-2.6691,-2.6691,-2.6691,0.0,-2.6691,-2.6691,-2.6691,-2.6691,-2.6691,-2.6539,-2.615,-2.6116,-2.593,-2.554,-2.5523,-2.5523,-2.5523,-2.5879,-2.6116,-2.6116,-2.6488,-2.6691,-2.6691,-2.6691,-2.6691,-2.6691,-2.6691,-2.6691,-2.6691,-2.6436,-2.6332,-2.6297,-2.5781,-2.5411,-2.5125,-2.4855,-2.445,-2.397,-2.397,-2.3815,-2.3595,-2.3595,-2.3595,-2.3595,-3.3683,-3.307,-3.2729,-3.3164,-3.2889,-3.2803,-3.344,-3.3678,-3.3807,-3.3807,-3.3807,-3.3807,-3.3807,-3.3256,-3.2876,-3.2876,-3.2137,-3.1678,-3.1678,-3.2651,-3.3238,-3.3238,-3.3421,-3.3605,-3.3807,-3.3807,-3.3807,-3.3807,-3.3807,-3.3807,-3.3775,-3.3494,-3.3288,-3.3148,-3.2121,-3.1402,-3.0907,-3.0248,-2.9795,-2.9517,-2.9517,-2.8941,-2.8077,-2.8077,-2.7503,-2.6691,-2.6691,-2.6691,-2.6691,-2.6691,-2.6691,-2.6691,-2.6691,-2.6691,-2.6691,-2.6691,-2.6691,-2.6691,-2.6691,-2.6691,-2.6691,-2.6691,-2.6691,-2.6539,-2.5981,-2.5862,-2.5862,-2.5862,-2.5862,-2.6031,-2.659,-2.6691,-2.6691,-2.6691,0.0,-2.6691,-2.6691,-2.6691,-2.6691,-2.6691,-2.6539,-2.6218,-2.5643,-2.5439,-2.5101,-2.4541,-2.4491,-2.4491,-2.4491,-2.5033,-2.5423,-2.5592,-2.6319,-2.6691,-2.6691,-2.6691,-2.6691,-2.6691,-2.659,-2.659,-2.6674,-2.6086,-2.5888,-2.5961,-2.5297,-2.4792,-2.4389,-2.4282,-2.397,-2.3595,-2.3595,-2.3595,-2.3595,-2.3595,-2.3595,-2.3595,-3.3208,-3.281,-3.2381,-3.1696,-3.2137,-3.2619,-3.2674,-3.333,-3.3807,-3.3807,-3.3807,-3.3807,-3.3807,-3.3752,-3.3715,-3.3715,-3.2981,-3.2509,-3.2509,-3.1916,-3.158,-3.158,-3.2284,-3.3041,-3.377,-3.3807,-3.3807,-3.3807,-3.3807,-3.3807,-3.3807,-3.3762,-3.355,-3.3184,-3.266,-3.216,-3.1702,-3.1255,-3.106,-3.1038,-3.1038,-3.0194,-2.8908,-2.8908,-2.7994,-2.6691,-2.6691,-2.6691,-2.6691,-2.6691,-2.6691,-2.6691,-2.6691,-2.6691,-2.6691,-2.6691,-2.6691,-2.6691,-2.6691,-2.6691,-2.6691,-2.6691,-2.6691,-2.6691,-2.6623,-2.6623,-2.6623,-2.6623,-2.6623,-2.664,-2.6691,-2.6691,-2.6691,-2.6691,0.0,0.0,-2.6691,-2.6691,-2.6691,-2.6691,-2.6099,-2.5659,-2.5609,-2.4983,-2.4558,-2.4491,-2.4491,-2.4491,-2.4491,-2.4541,-2.4897,-2.5576,-2.6319,-2.6691,-2.6691,-2.6691,-2.6691,-2.6691,-2.6262,-2.6279,-2.6674,-2.5691,-2.554,-2.5943,-2.491,-2.443,-2.4369,-2.3858,-2.3638,-2.3595,-2.3595,-2.3595,-2.3595,-2.3595,-2.3595,-2.3595,-3.2512,-3.244,-3.2491,-3.221,-3.2399,-3.2766,-3.3275,-3.3605,-3.3807,-3.3807,-3.3807,-3.3807,-3.3807,-3.3348,-3.2852,-3.2357,-3.1586,-3.1109,-3.1109,-3.1292,-3.1397,-3.1397,-3.2173,-3.2729,-3.3041,-3.3532,-3.3807,-3.3807,-3.3807,-3.3807,-3.3807,-3.3807,-3.3721,-3.355,-3.3121,-3.2681,-3.2213,-3.177,-3.143,-3.119,-3.119,-3.033,-2.8993,-2.8993,-2.8045,-2.6691,-2.6691,-2.6691,-2.6691,-2.6691,-2.6691,-2.6691,-2.6691,-2.6691,-2.6691,-2.6691,-2.6691,-2.6691,-2.6691,-2.6691,-2.6691,-2.6691,-2.6691,-2.6691,-2.6691,-2.6691,-2.6691,-2.6691,-2.6691,-2.6691,-2.6691,-2.6691,-2.6691,-2.6691,0.0,-2.6691,-2.6691,-2.6691,-2.6691,-2.6691,-2.6048,-2.5423,-2.4965,-2.4254,-2.3628,-2.3173,-2.3139,-2.3139,-2.3139,-2.4,-2.4846,-2.5576,-2.6319,-2.6691,-2.6691,-2.6691,-2.6691,-2.6691,-2.6505,-2.6539,-2.6674,-2.5654,-2.5316,-2.5449,-2.4369,-2.3885,-2.39,-2.3666,-2.3595,-2.3595,-2.3595,-2.3595,-2.3595,-2.3595,-2.3595,-2.3595,-3.2594,-3.2385,-3.2348,-3.2342,-3.2494,-3.2784,-3.3348,-3.3642,-3.3807,-3.3807,-3.3807,-3.3807,-3.3807,-3.3311,-3.2651,-3.1843,-3.1274,-3.0852,-3.0595,-3.1091,-3.1635,-3.2131,-3.2449,-3.2711,-3.2981,-3.3532,-3.3807,-3.3807,-3.3807,-3.3807,-3.3807,-3.3807,-3.3734,-3.3592,-3.3317,-3.2937,-3.2467,-3.1986,-3.1641,-3.1372,-3.1014,-3.0108,-2.8976,-2.8722,-2.7807,-2.6691,-2.6691,-2.6691,-2.6691,-2.6691,-2.6691,-2.6691,-2.6691,-2.6691,-2.6691,-2.6691,-2.6691,-2.6691,-2.6691,-2.6691,-2.6691,-2.6691,-2.6691,-2.6691,-2.6691,-2.6691,-2.6691,-2.6691,-2.6691,-2.6691,-2.6691,-2.6691,-2.6691,-2.6691,-2.6691,-2.6691,-2.6691,-2.6691,-2.6691,-2.6691,-2.5828,-2.5152,-2.488,-2.3765,-2.2936,-2.2682,-2.2431,-2.2296,-2.2296,-2.3712,-2.4728,-2.5236,-2.6184,-2.6691,-2.6691,-2.6691,-2.6691,-2.6691,-2.6539,-2.6573,-2.6657,-2.547,-2.5047,-2.5144,-2.4074,-2.3595,-2.3595,-2.3595,-2.3595,-2.3595,-2.3595,-2.3595,-2.3595,-2.3595,-2.3595,-2.3595,-3.3611,-3.2722,-3.1834,-3.1811,-3.2249,-3.2601,-3.2601,-3.3293,-3.3807,-3.3807,-3.3807,-3.3807,-3.3807,-3.3807,-3.3476,-3.2674,-3.2601,-3.2265,-3.147,-3.1415,-3.2131,-3.3733,-3.3036,-3.2981,-3.377,-3.3807,-3.3807,-3.3807,-3.3807,-3.3807,-3.3807,-3.3807,-3.3578,-3.3199,-3.3199,-3.2952,-3.2467,-3.2004,-3.1807,-3.1719,-3.057,-2.967,-2.8925,-2.8129,-2.7351,-2.6691,-2.6691,-2.6691,-2.6691,-2.6691,-2.6691,-2.6691,-2.6691,-2.6691,-2.6691,-2.6691,-2.6691,-2.6691,-2.6691,-2.6691,-2.6691,-2.6691,-2.6691,-2.6691,-2.6691,-2.6691,-2.6691,-2.6691,-2.6691,-2.6691,-2.6691,-2.6691,-2.6691,-2.6691,-2.6691,-2.6691,-2.6691,-2.6691,-2.6691,-2.6691,-2.5405,-2.4795,-2.5541,-2.3598,-2.2615,-2.3342,-2.2733,-2.2296,-2.2296,-2.3712,-2.4508,-2.4508,-2.5929,-2.6691,-2.6691,-2.6691,-2.6691,-2.6691,-2.6227,-2.6244,-2.6641,-2.5109,-2.4692,-2.5128,-2.4053,-2.3595,-2.3595,-2.3595,-2.3595,-2.3595,-2.3595,-2.3595,-2.3595,-2.3595,-2.3595,-2.3595,-3.2222,-3.3014,-3.3567,-3.2773,-3.3255,-3.3654,-3.3479,-3.3642,-3.3807,-3.3807,-3.3807,-3.3807,-3.3807,-3.3807,-3.3476,-3.2674,-3.2601,-3.2491,-3.2265,-3.2779,-3.3293,-3.377,-3.3036,-3.2711,-3.2949,-3.3513,-3.3807,-3.3807,-3.3807,-3.3807,-3.3807,-3.3807,-3.3734,-3.3606,-3.3317,-3.3105,-3.2968,-3.2501,-3.2299,-3.2247,-3.1916,-3.0838,-2.9386,-2.9145,-2.8083,-2.6691,-2.6691,-2.6691,-2.6691,-2.6691,-2.6691,-2.6691,-2.6691,-2.6691,-2.6691,-2.6691,-2.6691,-2.6691,-2.6691,-2.6691,-2.6691,-2.6691,-2.6691,-2.6691,-2.6691,-2.6691,-2.6691,-2.6691,-2.6691,-2.6691,-2.6691,-2.6691,-2.6522,-2.6015,-2.6353,-2.6522,-2.5998,-2.637,-2.6691,-2.6691,-2.5405,-2.4795,-2.5541,-2.4069,-2.3156,-2.3376,-2.319,-2.3071,-2.3071,-2.4475,-2.527,-2.527,-2.6201,-2.6691,-2.6691,-2.6691,-2.6691,-2.6691,-2.6573,-2.6384,-2.6191,-2.5354,-2.4835,-2.4612,-2.3885,-2.3595,-2.3595,-2.3595,-2.3595,-2.3595,-2.3595,-2.3595,-2.3595,-2.3595,-2.3595,-2.3595,-3.2448,-3.3187,-3.3819,-3.3833,-3.4159,-3.4288,-3.4012,-3.3961,-3.3928,-3.3802,-3.3807,-3.3807,-3.3807,-3.3807,-3.3476,-3.2674,-3.2601,-3.2729,-3.3041,-3.3532,-3.3807,-3.3807,-3.333,-3.306,-3.306,-3.355,-3.3807,-3.3807,-3.3807,-3.3807,-3.3807,-3.3807,-3.3807,-3.3775,-3.355,-3.3451,-3.3404,-3.295,-3.2777,-3.2707,-3.1909,-3.0904,-2.9766,-2.9154,-2.8211,-2.7178,-2.7178,-2.7178,-2.7178,-2.7178,-2.7067,-2.6906,-2.6758,-2.6691,-2.6691,-2.6691,-2.6691,-2.6691,-2.6691,-2.6691,-2.6691,-2.6691,-2.6691,-2.6691,-2.6691,-2.6691,-2.6691,-2.6691,-2.6691,-2.6691,-2.6691,-2.6691,-2.6539,-2.6116,-2.6167,-2.6201,-2.6065,-2.6167,-2.637,-2.6657,-2.5405,-2.4795,-2.5541,-2.4002,-2.297,-2.297,-2.3241,-2.3393,-2.3393,-2.4797,-2.5592,-2.5592,-2.6319,-2.6691,-2.6691,-2.6691,-2.6607,-2.6419,-2.6419,-2.6157,-2.567,-2.5125,-2.4712,-2.4369,-2.3837,-2.3595,-2.3595,-2.3595,-2.3595,-2.3595,-2.3595,-2.3595,-2.3595,-2.3595,-2.3595,-2.3595,-3.3603,-3.3312,-3.3168,-3.4819,-3.4908,-3.4614,-3.4281,-3.4235,-3.4147,-3.3863,-3.3842,-3.3829,-3.3788,-3.3807,-3.3513,-3.2766,-3.2711,-3.3023,-3.3752,-3.3807,-3.3807,-3.3807,-3.3807,-3.3807,-3.3807,-3.3807,-3.3807,-3.3807,-3.3807,-3.3807,-3.3807,-3.3807,-3.3807,-3.3807,-3.3807,-3.3807,-3.378,-3.3404,-3.3258,-3.3102,-3.1183,-3.0361,-3.0102,-2.8628,-2.7979,-2.7897,-2.7897,-2.7897,-2.7897,-2.7897,-2.7666,-2.7303,-2.6923,-2.6808,-2.6808,-2.6808,-2.6808,-2.6808,-2.6808,-2.6808,-2.6791,-2.6758,-2.6758,-2.6741,-2.6708,-2.6691,-2.6691,-2.6691,-2.6691,-2.6691,-2.6691,-2.6691,-2.6674,-2.6607,-2.6048,-2.5812,-2.642,-2.593,-2.5744,-2.642,-2.5269,-2.4694,-2.5439,-2.3615,-2.2398,-2.2398,-2.3088,-2.3509,-2.3509,-2.4898,-2.571,-2.571,-2.6353,-2.6691,-2.6691,-2.6691,-2.6504,-2.605,-2.6031,-2.5707,-2.5182,-2.4637,-2.4369,-2.4287,-2.3815,-2.3595,-2.3595,-2.3595,-2.3595,-2.3595,-2.3595,-2.3595,-2.3595,-2.3595,-2.3595,-2.3595,-3.2949,-3.3538,-3.4096,-3.4939,-3.5043,-3.4926,-3.4624,-3.4582,-3.4486,-3.4159,-3.4111,-3.4031,-3.3815,-3.3807,-3.3733,-3.3568,-3.3532,-3.3605,-3.3788,-3.3807,-3.3807,-3.3807,-3.3807,-3.3807,-3.3807,-3.3807,-3.3807,-3.3807,-3.3807,-3.3807,-3.3807,-3.3807,-3.3807,-3.3807,-3.3807,-3.3807,-3.3788,-3.3707,-3.368,-3.3575,-3.2506,-3.1551,-3.0632,-2.9624,-2.8675,-2.7897,-2.7897,-2.7897,-2.7897,-2.7897,-2.784,-2.7751,-2.7681,-2.7634,-2.7634,-2.7634,-2.7634,-2.7634,-2.7634,-2.7634,-2.756,-2.7257,-2.7178,-2.7083,-2.6775,-2.6691,-2.6691,-2.6691,-2.6691,-2.6691,-2.6691,-2.6691,-2.6505,-2.593,-2.5694,-2.5456,-2.5032,-2.4846,-2.4795,-2.4965,-2.4186,-2.3932,-2.4677,-2.3782,-2.3156,-2.3156,-2.3848,-2.4254,-2.4254,-2.5659,-2.6454,-2.6454,-2.6607,-2.6691,-2.6691,-2.6691,-2.6657,-2.6556,-2.6191,-2.5707,-2.5182,-2.4637,-2.4178,-2.3773,-2.3659,-2.3595,-2.3595,-2.3595,-2.3595,-2.3595,-2.3595,-2.3595,-2.3595,-2.3595,-2.3595,-2.3595,-3.216,-3.3006,-3.3807,-3.4546,-3.5009,-3.5198,-3.4935,-3.4898,-3.4784,-3.4467,-3.4434,-3.4323,-3.4018,-3.3999,-3.3935,-3.3802,-3.3807,-3.3807,-3.3807,-3.3807,-3.3807,-3.3807,-3.3807,-3.3807,-3.3807,-3.3807,-3.3807,-3.3807,-3.3807,-3.3807,-3.3807,-3.3807,-3.3807,-3.3807,-3.3807,-3.3807,-3.3807,-3.3807,-3.3807,-3.3733,-3.2913,-3.2015,-3.105,-3.0199,-2.9285,-2.843,-2.843,-2.843,-2.8404,-2.8197,-2.8143,-2.8116,-2.7954,-2.7897,-2.7897,-2.7897,-2.7897,-2.7897,-2.7897,-2.7897,-2.7794,-2.7394,-2.7303,-2.7194,-2.6791,-2.6691,-2.6691,-2.6691,-2.6691,-2.6691,-2.6691,-2.6691,-2.6573,-2.6184,-2.5845,-2.5473,-2.5067,-2.4728,-2.4491,-2.4491,-2.3848,-2.341,-2.3444,-2.3105,-2.2885,-2.2885,-2.3881,-2.4491,-2.4491,-2.5912,-2.6691,-2.6691,-2.6691,-2.6691,-2.6691,-2.6691,-2.6691,-2.6691,-2.6227,-2.5707,-2.5182,-2.4637,-2.4246,-2.397,-2.3724,-2.3595,-2.3595,-2.3595,-2.3595,-2.3595,-2.3595,-2.3595,-2.3595,-2.3595,-2.3595,-2.3595,-3.1718,-3.2449,-3.3218,-3.4237,-3.5026,-3.5432,-3.5207,-3.5174,-3.5079,-3.4793,-3.4764,-3.4653,-3.4334,-3.4223,-3.4086,-3.3815,-3.3807,-3.3807,-3.3807,-3.3807,-3.3807,-3.3807,-3.3807,-3.3807,-3.3807,-3.3807,-3.3807,-3.3807,-3.3807,-3.3807,-3.3807,-3.3807,-3.3807,-3.3807,-3.3807,-3.3807,-3.3807,-3.3807,-3.3807,-3.3733,-3.2913,-3.221,-3.1494,-3.0558,-2.9879,-2.9372,-2.9097,-2.9005,-2.894,-2.8602,-2.8496,-2.8446,-2.8188,-2.8093,-2.8093,-2.8093,-2.8093,-2.8093,-2.8093,-2.8093,-2.7982,-2.7515,-2.7394,-2.7288,-2.6808,-2.6691,-2.6691,-2.6691,-2.6691,-2.6691,-2.6691,-2.6691,-2.6691,-2.6691,-2.6082,-2.5558,-2.5439,-2.4897,-2.4406,-2.4152,-2.3579,-2.297,-2.2347,-2.2398,-2.2496,-2.2496,-2.3849,-2.4694,-2.4694,-2.598,-2.6691,-2.6691,-2.6691,-2.6691,-2.6691,-2.6691,-2.6691,-2.6691,-2.6314,-2.5835,-2.5316,-2.4592,-2.4307,-2.4369,-2.3837,-2.3595,-2.3595,-2.3595,-2.3595,-2.3595,-2.3595,-2.3595,-2.3595,-2.3595,-2.3595,-2.3595,-3.2429,-3.2833,-3.341,-3.5038,-3.5423,-3.5493,-3.5446,-3.5446,-3.5354,-3.5088,-3.5053,-3.4944,-3.4663,-3.4379,-3.4086,-3.3815,-3.3807,-3.3807,-3.3807,-3.3807,-3.3807,-3.3807,-3.3807,-3.3807,-3.3807,-3.3807,-3.3807,-3.3807,-3.3807,-3.3807,-3.3807,-3.3807,-3.3807,-3.3807,-3.3807,-3.3807,-3.3807,-3.3807,-3.3807,-3.3733,-3.2913,-3.2528,-3.2271,-3.0779,-3.0558,-3.0889,-2.95,-2.9005,-2.8994,-2.894,-2.8917,-2.8917,-2.887,-2.8839,-2.8839,-2.8839,-2.8839,-2.8839,-2.8839,-2.8839,-2.8688,-2.7996,-2.7826,-2.7619,-2.6873,-2.6691,-2.6691,-2.6691,-2.6691,-2.6691,-2.6691,-2.6691,-2.6691,-2.6691,-2.6082,-2.5389,-2.4745,-2.4558,-2.4034,-2.275,-2.2513,-2.2398,-2.2313,-2.2885,-2.3241,-2.3241,-2.4628,-2.5456,-2.5456,-2.6251,-2.6691,-2.6691,-2.6691,-2.6691,-2.6691,-2.6691,-2.6691,-2.6691,-2.6641,-2.6349,-2.5852,-2.4369,-2.3948,-2.4369,-2.3837,-2.3595,-2.3595,-2.3595,-2.3595,-2.3595,-2.3595,-2.3595,-2.3595,-2.3595,-2.3595,-2.3595,-3.1987,-3.2583,-3.3295,-3.4545,-3.5173,-3.55,-3.55,-3.55,-3.5453,-3.5346,-3.532,-3.5223,-3.4954,-3.45,-3.4159,-3.4031,-3.3889,-3.3807,-3.3807,-3.3807,-3.3807,-3.3807,-3.3807,-3.3807,-3.3807,-3.3807,-3.3807,-3.3807,-3.3807,-3.3807,-3.3807,-3.3807,-3.3807,-3.3807,-3.3807,-3.3807,-3.3807,-3.3807,-3.3807,-3.377,-3.3421,-3.2999,-3.2509,-3.1812,-3.1476,-3.1323,-3.0595,-3.0063,-2.9666,-2.9666,-2.9372,-2.9005,-2.9005,-2.9005,-2.9005,-2.9005,-2.9005,-2.9005,-2.9005,-2.9005,-2.8815,-2.8079,-2.7897,-2.7678,-2.689,-2.6691,-2.6691,-2.6691,-2.6691,-2.6691,-2.6691,-2.6691,-2.6691,-2.6691,-2.642,-2.5964,-2.522,-2.5101,-2.4712,-2.3661,-2.3528,-2.3528,-2.3528,-2.3831,-2.4017,-2.4017,-2.5,-2.5592,-2.5592,-2.6302,-2.6691,-2.6691,-2.6691,-2.6691,-2.6691,-2.6691,-2.6691,-2.6691,-2.6436,-2.6209,-2.5977,-2.4953,-2.4471,-2.4369,-2.3837,-2.3595,-2.3595,-2.3595,-2.3595,-2.3595,-2.3595,-2.3595,-2.3595,-2.3595,-2.3595,-2.3595]},{"header":{"parameterUnit":"m.s-1","parameterCategory":1,"la1":30.6,"la2":28.766,"lo1":-90.7593,"lo2":-88.6598,"dy":0.0162,"dx":0.0183,"nx":116,"ny":114,"refTime":"2024-06-24T12:00:00:Z","depth":0,"parameterNumber":3,"parameterNumberName":"V-component_of_WINDS"},"data":[0.0,0.0,0.0,0.0,0.0,0.0,0.0,0.0,0.0,0.0,0.0,0.0,0.0,0.0,0.0,0.0,0.0,0.0,0.0,0.0,0.0,0.0,0.0,0.0,0.0,0.0,0.0,0.0,0.0,0.0,0.0,0.0,0.0,0.0,0.0,0.0,0.0,0.0,0.0,0.0,0.0,0.0,0.0,0.0,0.0,0.0,0.0,0.0,0.0,0.0,0.0,0.0,0.0,0.0,0.0,0.0,0.0,0.0,0.0,0.0,0.0,0.0,0.0,0.0,0.0,0.0,0.0,0.0,0.0,0.0,0.0,0.0,0.0,0.0,0.0,0.0,0.0,0.0,0.0,0.0,0.0,0.0,0.0,0.0,0.0,0.0,0.0,0.0,0.0,0.0,0.0,0.0,0.0,0.0,0.0,0.0,0.0,0.0,0.0,0.0,0.0,0.0,0.0,0.0,0.0,0.0,0.0,0.0,0.0,0.0,0.0,0.0,0.0,0.0,0.0,0.0,0.0,0.0,0.0,0.0,0.0,0.0,0.0,0.0,0.0,0.0,0.0,0.0,0.0,0.0,0.0,0.0,0.0,0.0,0.0,0.0,0.0,0.0,0.0,0.0,0.0,0.0,0.0,0.0,0.0,0.0,0.0,0.0,0.0,0.0,0.0,0.0,0.0,0.0,0.0,0.0,0.0,0.0,0.0,0.0,0.0,0.0,0.0,0.0,0.0,0.0,0.0,0.0,0.0,0.0,0.0,0.0,0.0,0.0,0.0,0.0,0.0,0.0,0.0,0.0,0.0,0.0,0.0,0.0,0.0,0.0,0.0,0.0,0.0,0.0,0.0,0.0,0.0,0.0,0.0,0.0,0.0,0.0,0.0,0.0,0.0,0.0,0.0,0.0,0.0,0.0,0.0,0.0,0.0,0.0,0.0,0.0,0.0,0.0,0.0,0.0,0.0,0.0,0.0,0.0,0.0,0.0,0.0,0.0,0.0,0.0,0.0,0.0,0.0,0.0,0.0,0.0,0.0,0.0,0.0,0.0,0.0,0.0,0.0,0.0,0.0,0.0,0.0,0.0,0.0,0.0,0.0,0.0,0.0,0.0,0.0,0.0,0.0,0.0,0.0,0.0,0.0,0.0,0.0,0.0,0.0,0.0,0.0,0.0,0.0,0.0,0.0,0.0,0.0,0.0,0.0,0.0,0.0,0.0,0.0,0.0,0.0,0.0,0.0,0.0,0.0,0.0,0.0,0.0,0.0,0.0,0.0,0.0,0.0,0.0,0.0,0.0,0.0,0.0,0.0,0.0,0.0,0.0,0.0,0.0,0.0,0.0,0.0,0.0,0.0,0.0,0.0,0.0,0.0,0.0,0.0,0.0,0.0,0.0,0.0,0.0,0.0,0.0,0.0,0.0,0.0,0.0,0.0,0.0,0.0,0.0,0.0,0.0,0.0,0.0,0.0,0.0,0.0,0.0,0.0,0.0,0.0,0.0,0.0,0.0,0.0,0.0,0.0,0.0,0.0,0.0,0.0,0.0,0.0,0.0,0.0,0.0,0.0,0.0,0.0,0.0,0.0,0.0,0.0,0.0,0.0,0.0,0.0,0.0,0.0,0.0,0.0,0.0,0.0,0.0,0.0,0.0,0.0,0.0,0.0,0.0,0.0,0.0,0.0,0.0,0.0,0.0,0.0,0.0,0.0,0.0,0.0,0.0,0.0,0.0,0.0,0.0,0.0,0.0,0.0,0.0,0.0,0.0,0.0,0.0,0.0,0.0,0.0,0.0,0.0,0.0,0.0,0.0,0.0,0.0,0.0,0.0,0.0,0.0,0.0,0.0,0.0,0.0,0.0,0.0,0.0,0.0,0.0,0.0,0.0,0.0,0.0,0.0,0.0,0.0,0.0,0.0,0.0,0.0,0.0,0.0,0.0,0.0,0.0,0.0,0.0,0.0,0.0,0.0,0.0,0.0,0.0,0.0,0.0,0.0,0.0,0.0,0.0,0.0,0.0,0.0,0.0,0.0,0.0,0.0,0.0,0.0,0.0,0.0,0.0,0.0,0.0,0.0,0.0,0.0,0.0,0.0,0.0,0.0,0.0,0.0,0.0,0.0,0.0,0.0,0.0,0.0,0.0,0.0,0.0,0.0,0.0,0.0,0.0,0.0,0.0,0.0,0.0,0.0,0.0,0.0,0.0,0.0,0.0,0.0,0.0,0.0,0.0,0.0,0.0,0.0,0.0,0.0,0.0,0.0,0.0,0.0,0.0,0.0,0.0,0.0,0.0,0.0,0.0,0.0,0.0,0.0,0.0,0.0,0.0,0.0,0.0,0.0,0.0,0.0,0.0,0.0,0.0,0.0,0.0,0.0,0.0,0.0,0.0,0.0,0.0,0.0,0.0,0.0,0.0,0.0,0.0,0.0,0.0,0.0,0.0,0.0,0.0,0.0,0.0,0.0,0.0,0.0,0.0,0.0,0.0,0.0,0.0,0.0,0.0,0.0,0.0,0.0,0.0,0.0,0.0,0.0,0.0,0.0,0.0,0.0,0.0,0.0,0.0,0.0,0.0,0.0,0.0,0.0,0.0,0.0,0.0,0.0,0.0,0.0,0.0,0.0,0.0,0.0,0.0,0.0,0.0,0.0,0.0,0.0,0.0,0.0,0.0,0.0,0.0,0.0,0.0,0.0,0.0,0.0,0.0,0.0,0.0,0.0,0.0,0.0,0.0,0.0,0.0,0.0,0.0,0.0,0.0,0.0,0.0,0.0,0.0,0.0,0.0,0.0,0.0,0.0,0.0,0.0,0.0,0.0,0.0,0.0,0.0,0.0,0.0,0.0,0.0,0.0,0.0,0.0,0.0,0.0,0.0,0.0,0.0,0.0,0.0,0.0,0.0,0.0,0.0,0.0,0.0,0.0,0.0,0.0,0.0,0.0,0.0,0.0,0.0,0.0,0.0,0.0,0.0,0.0,0.0,0.0,0.0,0.0,0.0,0.0,0.0,0.0,0.0,0.0,0.0,0.0,0.0,0.0,0.0,0.0,0.0,0.0,0.0,0.0,0.0,0.0,0.0,0.0,0.0,0.0,0.0,0.0,0.0,0.0,0.0,0.0,0.0,0.0,0.0,0.0,0.0,0.0,0.0,0.0,0.0,0.0,0.0,0.0,0.0,0.0,0.0,0.0,0.0,0.0,0.0,0.0,0.0,0.0,0.0,0.0,0.0,0.0,0.0,0.0,0.0,0.0,0.0,0.0,0.0,0.0,0.0,0.0,0.0,0.0,0.0,0.0,0.0,0.0,0.0,0.0,0.0,0.0,0.0,0.0,0.0,0.0,0.0,0.0,0.0,0.0,0.0,0.0,0.0,0.0,0.0,0.0,0.0,0.0,0.0,0.0,0.0,0.0,0.0,0.0,0.0,0.0,0.0,0.0,0.0,0.0,0.0,0.0,0.0,0.0,0.0,0.0,0.0,0.0,0.0,0.0,0.0,0.0,0.0,0.0,0.0,0.0,0.0,0.0,0.0,0.0,0.0,0.0,0.0,0.0,0.0,0.0,0.0,0.0,0.0,0.0,0.0,0.0,0.0,0.0,0.0,0.0,0.0,0.0,0.0,0.0,0.0,0.0,0.0,0.0,0.0,0.0,0.0,0.0,0.0,0.0,0.0,0.0,0.0,0.0,0.0,0.0,0.0,0.0,0.0,0.0,0.0,0.0,0.0,0.0,0.0,0.0,0.0,0.0,0.0,0.0,0.0,0.0,0.0,0.0,0.0,0.0,0.0,0.0,0.0,0.0,0.0,0.0,0.0,0.0,0.0,0.0,0.0,0.0,0.0,0.0,0.0,0.0,0.0,0.0,0.0,0.0,0.0,0.0,0.0,0.0,0.0,0.0,0.0,0.0,0.0,0.0,0.0,0.0,0.0,0.0,0.0,0.0,0.0,0.0,0.0,0.0,0.0,0.0,0.0,0.0,0.0,0.0,0.0,0.0,0.0,0.0,0.0,0.0,0.0,0.0,0.0,0.0,0.0,0.0,0.0,0.0,0.0,0.0,0.0,0.0,0.0,0.0,0.0,0.0,0.0,0.0,0.0,0.0,0.0,0.0,0.0,0.0,0.0,0.0,0.0,0.0,0.0,0.0,0.0,0.0,0.0,0.0,0.0,0.0,0.0,0.0,0.0,0.0,0.0,0.0,0.0,0.0,0.0,0.0,0.0,0.0,0.0,0.0,0.0,0.0,0.0,0.0,0.0,0.0,0.0,0.0,0.0,0.0,0.0,0.0,0.0,0.0,0.0,0.0,0.0,0.0,0.0,0.0,0.0,0.0,0.0,0.0,0.0,0.0,0.0,0.0,0.0,0.0,0.0,0.0,0.0,0.0,0.0,0.0,0.0,0.0,0.0,0.0,0.0,0.0,0.0,0.0,0.0,0.0,0.0,0.0,0.0,0.0,0.0,0.0,0.0,0.0,0.0,0.0,0.0,0.0,0.0,0.0,0.0,0.0,0.0,0.0,0.0,0.0,0.0,0.0,0.0,0.0,0.0,0.0,0.0,0.0,0.0,0.0,0.0,0.0,0.0,0.0,0.0,0.0,0.0,0.0,0.0,0.0,0.0,0.0,0.0,0.0,0.0,0.0,0.0,0.0,0.0,0.0,0.0,0.0,0.0,0.0,0.0,0.0,0.0,0.0,0.0,0.0,0.0,0.0,0.0,0.0,0.0,0.0,0.0,0.0,0.0,0.0,0.0,0.0,0.0,0.0,0.0,0.0,0.0,0.0,0.0,0.0,0.0,0.0,0.0,0.0,0.0,0.0,0.0,0.0,0.0,0.0,0.0,0.0,0.0,0.0,0.0,0.0,0.0,0.0,0.0,0.0,0.0,0.0,0.0,0.0,0.0,0.0,0.0,0.0,0.0,0.0,0.0,0.0,0.0,0.0,0.0,0.0,0.0,0.0,0.0,0.0,0.0,0.0,0.0,0.0,0.0,0.0,0.0,0.0,0.0,0.0,0.0,0.0,0.0,0.0,0.0,0.0,0.0,0.0,0.0,0.0,0.0,0.0,0.0,0.0,0.0,0.0,0.0,0.0,0.0,0.0,0.0,0.0,0.0,0.0,0.0,0.0,0.0,0.0,0.0,0.0,0.0,0.0,0.0,0.0,0.0,0.0,0.0,0.0,0.0,0.0,0.0,0.0,0.0,0.0,0.0,0.0,0.0,0.0,0.0,0.0,0.0,0.0,0.0,0.0,0.0,0.0,0.0,0.0,0.0,0.0,0.0,0.0,0.0,0.0,0.0,0.0,0.0,0.0,0.0,0.0,0.0,0.0,0.0,0.0,0.0,0.0,0.0,0.0,0.0,0.0,0.0,0.0,0.0,0.0,0.0,0.0,0.0,0.0,0.0,0.0,0.0,0.0,0.0,0.0,0.0,0.0,0.0,0.0,0.0,0.0,0.0,0.0,0.0,0.0,0.0,0.0,0.0,0.0,0.0,0.0,0.0,0.0,0.0,0.0,0.0,0.0,0.0,0.0,0.0,0.0,0.0,0.0,0.0,0.0,0.0,0.0,0.0,0.0,0.0,0.0,0.0,0.0,0.0,0.0,0.0,0.0,0.0,0.0,0.0,0.0,0.0,0.0,0.0,0.0,0.0,0.0,0.0,0.0,0.0,0.0,0.0,0.0,0.0,0.0,0.0,0.0,0.0,0.0,0.0,0.0,0.0,0.0,0.0,0.0,0.0,0.0,0.0,0.0,0.0,0.0,0.0,0.0,0.0,0.0,0.0,0.0,0.0,0.0,0.0,0.0,0.0,0.0,0.0,0.0,0.0,0.0,0.0,0.0,0.0,0.0,0.0,0.0,0.0,0.0,0.0,0.0,0.0,0.0,0.0,0.0,0.0,0.0,0.0,0.0,0.0,0.0,0.0,0.0,0.0,0.0,0.0,0.0,0.0,0.0,0.0,0.0,0.0,0.0,0.0,0.0,0.0,0.0,0.0,0.0,0.0,0.0,0.0,0.0,0.0,0.0,0.0,0.0,0.0,0.0,0.0,0.0,0.0,0.0,0.0,0.0,0.0,0.0,0.0,0.0,0.0,0.0,0.0,0.0,-1.4425,0.0,0.0,0.0,0.0,0.0,0.0,0.0,0.0,0.0,0.0,0.0,0.0,0.0,0.0,0.0,0.0,0.0,0.0,0.0,0.0,0.0,0.0,0.0,0.0,-0.855,-0.8804,-0.8804,-0.8804,-0.8804,-0.8804,0.0,0.0,0.0,0.0,0.0,-0.7816,-0.7876,-0.7826,-0.7689,-0.7395,-0.7174,-0.7006,-0.7326,-0.7691,-0.8132,0.0,0.0,0.0,0.0,0.0,0.0,0.0,0.0,0.0,0.0,0.0,0.0,0.0,0.0,0.0,0.0,0.0,0.0,0.0,0.0,0.0,0.0,0.0,0.0,0.0,0.0,0.0,0.0,0.0,0.0,0.0,0.0,0.0,0.0,0.0,0.0,0.0,0.0,0.0,0.0,0.0,0.0,0.0,0.0,0.0,0.0,0.0,0.0,0.0,0.0,0.0,0.0,0.0,0.0,0.0,0.0,0.0,0.0,0.0,0.0,0.0,0.0,0.0,0.0,0.0,0.0,0.0,0.0,0.0,0.0,0.0,-1.4884,0.0,0.0,0.0,0.0,0.0,0.0,0.0,0.0,0.0,0.0,0.0,0.0,0.0,0.0,0.0,0.0,0.0,0.0,0.0,0.0,0.0,-0.7792,-0.7899,-0.8385,-0.8751,-0.8804,-0.8672,-0.8619,-0.8619,0.0,0.0,0.0,0.0,-0.7503,-0.7503,-0.7741,-0.7812,-0.7702,-0.7227,-0.7,-0.7,-0.7,0.0,0.0,-0.9675,0.0,0.0,0.0,0.0,0.0,0.0,0.0,0.0,0.0,0.0,0.0,0.0,0.0,0.0,0.0,0.0,0.0,0.0,0.0,0.0,0.0,0.0,0.0,0.0,0.0,0.0,0.0,0.0,0.0,0.0,0.0,0.0,0.0,0.0,0.0,0.0,0.0,0.0,0.0,0.0,0.0,0.0,0.0,0.0,0.0,0.0,0.0,0.0,0.0,0.0,0.0,0.0,0.0,0.0,0.0,0.0,0.0,0.0,0.0,0.0,0.0,0.0,0.0,-1.3873,-1.3978,-1.4405,-1.5068,-1.5581,-1.5919,-1.5631,-1.6093,-1.6886,-1.5967,0.0,0.0,0.0,0.0,0.0,0.0,0.0,0.0,0.0,0.0,0.0,0.0,0.0,0.0,0.0,0.0,0.0,0.0,0.0,-0.7319,-0.7846,-0.823,-0.8556,-0.8784,-0.8209,-0.7857,-0.7857,0.0,0.0,0.0,-0.675,-0.675,-0.675,-0.7388,-0.7471,-0.6954,-0.6972,-0.7,-0.7,0.0,0.0,0.0,-0.8761,-0.9504,0.0,0.0,0.0,0.0,0.0,0.0,0.0,0.0,0.0,0.0,0.0,0.0,0.0,0.0,0.0,0.0,0.0,0.0,0.0,0.0,0.0,0.0,0.0,0.0,0.0,0.0,0.0,0.0,0.0,0.0,0.0,0.0,0.0,0.0,0.0,0.0,0.0,0.0,0.0,0.0,0.0,0.0,-1.0889,-1.0929,0.0,0.0,0.0,0.0,0.0,0.0,0.0,0.0,0.0,0.0,0.0,0.0,0.0,-1.3968,-1.3968,-1.4559,-1.4683,-1.4462,-1.4422,-1.4787,-1.5496,-1.5617,-1.6692,-1.851,-1.8466,0.0,-1.73,-1.8259,0.0,0.0,0.0,0.0,0.0,0.0,0.0,0.0,0.0,0.0,0.0,0.0,0.0,0.0,0.0,0.0,0.0,0.0,0.0,0.0,0.0,-0.7943,-0.8243,-0.8537,-0.7841,-0.7463,0.0,0.0,0.0,-0.5977,-0.5982,-0.5982,-0.5982,-0.6966,-0.7373,-0.7182,-0.7076,-0.7,0.0,0.0,0.0,0.0,0.0,-0.9644,0.0,0.0,0.0,0.0,0.0,0.0,0.0,0.0,0.0,0.0,0.0,0.0,0.0,0.0,0.0,0.0,0.0,0.0,0.0,0.0,0.0,0.0,0.0,0.0,0.0,0.0,0.0,0.0,0.0,0.0,0.0,0.0,0.0,0.0,0.0,0.0,0.0,0.0,0.0,0.0,0.0,-1.0226,-1.0397,-1.0736,-1.1035,-1.1223,0.0,0.0,0.0,0.0,0.0,0.0,0.0,0.0,0.0,-1.3247,-1.3794,-1.4168,-1.4329,-1.475,-1.5239,-1.5696,-1.5475,-1.5909,-1.6893,-1.7343,-1.806,-1.9054,-1.99,-1.9823,-1.9146,-1.9116,-1.93,-1.9504,0.0,0.0,0.0,0.0,-1.9734,-1.9355,0.0,0.0,0.0,0.0,0.0,0.0,0.0,0.0,0.0,0.0,0.0,0.0,-0.7484,-0.7675,-0.7858,-0.8057,0.0,0.0,0.0,0.0,0.0,-0.5174,-0.5222,-0.5246,-0.5246,-0.6183,-0.6867,0.0,0.0,0.0,0.0,0.0,0.0,0.0,0.0,0.0,0.0,0.0,0.0,0.0,0.0,0.0,0.0,0.0,0.0,0.0,0.0,0.0,0.0,0.0,0.0,0.0,0.0,0.0,0.0,0.0,0.0,0.0,0.0,0.0,0.0,0.0,0.0,0.0,0.0,0.0,0.0,0.0,0.0,0.0,0.0,0.0,0.0,0.0,0.0,0.0,0.0,-1.0143,-1.0022,-1.0637,-1.1182,-1.1456,0.0,0.0,0.0,0.0,0.0,0.0,-1.2904,-1.3153,-1.338,-1.3593,-1.4001,-1.4302,-1.4516,-1.4816,-1.5482,-1.6461,-1.6215,-1.6814,-1.8152,-1.8731,-1.9164,-1.946,-2.0552,-2.0869,-2.0537,-1.9839,-2.0044,-2.0644,-1.9764,-1.9761,-2.0273,-2.0527,-2.0204,-1.9744,0.0,0.0,0.0,0.0,0.0,0.0,0.0,0.0,0.0,0.0,0.0,-0.7154,0.0,0.0,0.0,0.0,0.0,0.0,0.0,0.0,0.0,-0.4256,-0.4443,-0.4543,-0.4543,-0.487,0.0,0.0,0.0,0.0,0.0,0.0,0.0,0.0,0.0,0.0,0.0,0.0,0.0,0.0,0.0,0.0,0.0,0.0,0.0,0.0,0.0,0.0,0.0,0.0,0.0,0.0,0.0,0.0,0.0,0.0,0.0,0.0,0.0,0.0,0.0,0.0,0.0,0.0,0.0,0.0,0.0,0.0,0.0,0.0,0.0,0.0,0.0,0.0,0.0,0.0,0.0,0.0,0.0,-1.0903,-1.1524,0.0,0.0,0.0,0.0,-1.2717,-1.3006,-1.3186,-1.3186,-1.342,-1.3586,-1.36,-1.4153,-1.4502,-1.4522,-1.4816,-1.5378,-1.6119,-1.6104,-1.71,-1.8944,-1.8966,-1.9559,-2.0527,-2.0586,-2.0625,-2.0635,-2.0946,-2.1121,-2.1122,-2.0693,-2.0771,-2.1083,-2.0713,-2.0576,-2.0546,0.0,0.0,0.0,-0.651,-0.6591,-0.6748,-0.6528,-0.6466,-0.6593,-0.6953,-0.7,0.0,0.0,0.0,0.0,0.0,0.0,0.0,0.0,0.0,-0.3955,-0.3955,-0.4097,-0.4407,-0.4888,-0.514,-0.5634,0.0,0.0,0.0,0.0,0.0,0.0,0.0,0.0,0.0,0.0,0.0,0.0,0.0,0.0,0.0,0.0,0.0,0.0,0.0,0.0,0.0,0.0,0.0,0.0,0.0,0.0,0.0,0.0,0.0,0.0,0.0,0.0,0.0,0.0,0.0,0.0,0.0,0.0,0.0,0.0,0.0,0.0,0.0,0.0,0.0,0.0,0.0,0.0,0.0,0.0,0.0,0.0,-1.1181,-1.179,0.0,-1.2144,-1.2449,-1.275,-1.3019,-1.332,-1.3447,-1.3447,-1.3768,-1.3928,-1.3928,-1.4315,-1.4522,-1.4522,-1.5541,-1.6439,-1.7207,-1.7904,-1.8871,-2.004,-2.004,-2.0245,-2.0605,-2.0605,-2.0605,-2.0615,-2.0732,-2.0801,-2.0791,-2.0664,-2.0703,-2.0781,-2.0664,-2.0605,-2.0605,-0.7575,-0.7709,0.0,-0.6144,-0.6312,-0.6557,-0.6365,-0.6405,-0.66,-0.6953,-0.7,-0.6886,0.0,0.0,0.0,0.0,0.0,0.0,0.0,0.0,-0.3744,-0.3744,-0.3914,-0.4214,-0.4662,0.0,0.0,0.0,0.0,0.0,0.0,0.0,0.0,0.0,0.0,0.0,0.0,0.0,0.0,0.0,0.0,0.0,-1.4607,0.0,0.0,0.0,0.0,0.0,0.0,0.0,0.0,0.0,0.0,0.0,0.0,0.0,0.0,0.0,0.0,0.0,0.0,0.0,0.0,0.0,0.0,0.0,0.0,0.0,0.0,0.0,0.0,0.0,0.0,0.0,0.0,0.0,0.0,0.0,-1.0551,-1.1299,-1.1944,-1.2265,-1.2164,-1.2643,-1.3025,-1.32,-1.3533,-1.3753,-1.3753,-1.3981,-1.4088,-1.4088,-1.4275,-1.4541,-1.4913,-1.582,-1.6958,-1.8201,-1.8929,-1.9731,-2.0605,-2.0605,-2.0605,-2.0605,-2.0605,-2.0605,-2.0605,-2.0605,-2.0605,-2.0605,-2.0605,-2.0693,-2.0771,-2.0664,-2.0605,-2.0644,-0.7178,-0.7094,-0.6924,-0.6376,-0.609,-0.6076,-0.6517,-0.6391,-0.6405,-0.6926,-0.6993,0.0,0.0,0.0,0.0,0.0,0.0,0.0,0.0,-0.3405,-0.3597,-0.3604,-0.3856,-0.3941,-0.3788,0.0,0.0,0.0,0.0,0.0,0.0,0.0,0.0,0.0,0.0,0.0,0.0,0.0,0.0,0.0,0.0,0.0,-1.5718,0.0,0.0,0.0,0.0,0.0,0.0,0.0,0.0,0.0,0.0,0.0,0.0,0.0,0.0,0.0,0.0,0.0,0.0,0.0,0.0,0.0,0.0,0.0,0.0,0.0,0.0,0.0,0.0,0.0,0.0,0.0,0.0,0.0,-1.0989,-1.0776,-1.083,-1.138,-1.1957,-1.2191,-1.196,-1.2692,-1.3213,-1.3227,-1.3761,-1.4088,-1.4088,-1.4088,-1.4088,-1.4088,-1.4088,-1.4615,-1.5703,-1.5745,-1.6838,-1.8997,-1.9036,-1.9599,-2.0605,-2.0605,-2.0605,-2.0605,-2.0605,-2.0605,-2.0605,-2.0605,-2.0605,-2.0605,-2.0605,-2.083,-2.1122,-2.0723,-2.0605,-2.0789,-0.7178,-0.7094,-0.6861,-0.6136,-0.6305,-0.6495,-0.6333,-0.6586,-0.684,-0.698,-0.684,0.0,0.0,0.0,0.0,0.0,0.0,0.0,-0.3113,0.0,-0.3441,-0.3597,-0.3754,0.0,0.0,0.0,0.0,0.0,0.0,0.0,0.0,0.0,0.0,0.0,0.0,0.0,0.0,0.0,0.0,0.0,0.0,0.0,-1.6274,0.0,0.0,0.0,0.0,0.0,0.0,0.0,0.0,0.0,0.0,0.0,0.0,0.0,0.0,0.0,0.0,0.0,0.0,0.0,0.0,0.0,0.0,0.0,0.0,0.0,0.0,0.0,0.0,0.0,0.0,0.0,0.0,-1.1414,-1.0812,-1.1191,-1.166,-1.2008,-1.2204,-1.2358,-1.2529,-1.2933,-1.33,-1.3467,-1.3874,-1.4088,-1.4088,-1.4088,-1.4088,-1.4088,-1.4088,-1.4615,-1.5703,-1.6478,-1.7577,-1.9006,-1.9805,-2.0323,-2.0605,-2.0605,-2.0605,-2.0605,-2.0605,-2.0605,-2.0605,-2.0605,-2.0605,-2.0605,-2.0605,-2.0683,-2.0732,-2.0644,-2.1039,-2.1849,-0.7403,-0.7514,-0.7442,-0.6814,-0.6935,-0.7041,-0.6739,-0.6778,-0.6867,-0.6986,-0.6767,0.0,0.0,0.0,0.0,0.0,0.0,0.0,-0.3032,-0.3192,-0.3398,0.0,0.0,0.0,0.0,0.0,0.0,0.0,0.0,0.0,0.0,0.0,0.0,0.0,0.0,0.0,0.0,0.0,0.0,0.0,0.0,0.0,-1.6491,-1.6254,-1.6253,-1.635,-1.6115,-1.548,-1.477,-1.477,0.0,0.0,0.0,0.0,0.0,0.0,0.0,0.0,0.0,0.0,0.0,0.0,0.0,0.0,0.0,0.0,0.0,0.0,0.0,0.0,0.0,0.0,0.0,0.0,-1.1563,-1.1768,-1.1373,-1.1755,-1.2118,-1.2278,-1.2305,-1.2371,-1.2583,-1.2878,-1.3086,-1.3253,-1.3661,-1.3901,-1.3901,-1.4021,-1.4088,-1.4088,-1.4088,-1.4615,-1.5703,-1.6764,-1.7868,-1.8997,-2.0089,-2.0605,-2.0605,-2.0605,-2.0605,-2.0605,-2.0605,-2.0605,-2.0605,-2.0605,-2.0605,0.0,0.0,0.0,0.0,0.0,-2.2075,-2.3404,-0.7841,-0.8184,-0.8335,-0.7939,-0.7783,-0.765,-0.7437,-0.7021,-0.6814,-0.6987,0.0,0.0,0.0,0.0,0.0,0.0,0.0,0.0,0.0,0.0,0.0,0.0,0.0,0.0,0.0,0.0,0.0,0.0,0.0,0.0,0.0,0.0,0.0,0.0,0.0,0.0,0.0,0.0,0.0,0.0,0.0,0.0,-1.6401,-1.5938,-1.6401,-1.7199,-1.6697,-1.62,-1.5795,-1.5789,0.0,0.0,0.0,0.0,0.0,0.0,0.0,0.0,0.0,0.0,0.0,0.0,0.0,0.0,0.0,0.0,0.0,0.0,0.0,0.0,0.0,0.0,0.0,0.0,-1.1703,-1.204,-1.2265,-1.2305,-1.2305,-1.2305,-1.2305,-1.2305,-1.2305,-1.261,-1.2784,-1.2784,-1.33,-1.36,-1.36,0.0,0.0,0.0,0.0,-1.4734,-1.5696,-1.6887,-1.7989,-1.8997,-2.0089,-2.0605,-2.0605,-2.0605,-2.0605,-2.0605,-2.0605,-2.0605,-2.0605,-2.0605,-2.0615,-2.0681,-2.0731,-2.075,-2.0905,-2.1962,-2.3444,-2.4933,-0.876,-0.8828,-0.8759,-0.8343,-0.8433,-0.8302,-0.7525,-0.7546,-0.7487,-0.7056,-0.6767,0.0,0.0,0.0,0.0,0.0,0.0,0.0,0.0,0.0,0.0,0.0,0.0,0.0,0.0,0.0,0.0,0.0,0.0,0.0,0.0,0.0,0.0,0.0,0.0,0.0,0.0,0.0,0.0,0.0,0.0,0.0,-1.6185,-1.6186,-1.6566,-1.7078,-1.665,-1.6437,-1.6356,-1.6342,-1.5619,-1.4752,-1.4809,0.0,0.0,0.0,0.0,0.0,0.0,0.0,0.0,0.0,0.0,0.0,0.0,0.0,0.0,0.0,0.0,0.0,0.0,0.0,0.0,-1.1382,-1.187,-1.2238,-1.2291,-1.2305,-1.2305,-1.2305,-1.2305,-1.2305,-1.2305,-1.261,-1.2784,-1.2784,-1.33,-1.36,-1.36,-1.3928,-1.4088,-1.4088,-1.4936,-1.5496,-1.5696,-1.7698,-1.8798,-1.8997,0.0,0.0,-2.0605,-2.0605,-2.0605,-2.0605,-2.0605,-2.0605,-2.0605,-2.0605,-2.0801,-2.1116,-2.1552,-2.1735,-2.1962,-2.3745,-2.4378,-2.4515,-0.96,-0.9463,-0.9246,-0.9042,-0.9087,-0.8979,-0.8523,-0.8137,-0.7787,-0.7489,-0.6956,0.0,0.0,0.0,0.0,0.0,0.0,0.0,0.0,0.0,0.0,0.0,0.0,0.0,0.0,0.0,0.0,0.0,0.0,0.0,0.0,0.0,0.0,0.0,0.0,0.0,0.0,0.0,0.0,0.0,0.0,0.0,-1.5933,-1.5846,-1.6505,-1.7441,-1.697,-1.6836,-1.6909,-1.6902,-1.6362,-1.5702,-1.5735,-1.5296,-1.4685,0.0,0.0,0.0,0.0,0.0,0.0,0.0,0.0,0.0,0.0,0.0,0.0,0.0,0.0,-1.0593,-1.0593,0.0,-1.1256,-1.1369,-1.1635,-1.1917,-1.2064,-1.1957,-1.1971,-1.2265,-1.2305,-1.2305,-1.2305,-1.2438,-1.2563,-1.2563,-1.3086,-1.3387,-1.3387,-1.3848,-1.4088,-1.4088,-1.5137,-1.5696,-1.5696,-1.79,-1.8997,-1.8997,-2.0089,-2.0605,-2.0605,-2.0605,-2.0605,-2.0605,-2.0605,-2.0605,-2.0586,-2.037,-2.0524,-2.0958,-2.1721,-2.2265,-2.2797,-2.412,-2.4723,-2.5019,-1.0234,-1.0,-0.9737,-0.9737,-0.9696,-0.9645,-0.9618,-0.8885,-0.8276,-0.8113,-0.7487,-0.6984,-0.6787,-0.6592,-0.6317,0.0,0.0,0.0,0.0,0.0,0.0,0.0,0.0,0.0,0.0,0.0,0.0,0.0,0.0,0.0,0.0,0.0,0.0,0.0,0.0,0.0,0.0,0.0,0.0,0.0,0.0,0.0,-1.6144,-1.5878,-1.6639,-1.7784,-1.7283,-1.7324,-1.7585,-1.7374,-1.6936,-1.6498,-1.6505,-1.5684,-1.4778,-1.5088,-1.4232,0.0,0.0,0.0,0.0,0.0,0.0,0.0,0.0,0.0,-1.0274,-1.0546,-1.0593,-1.0593,-1.0593,-1.0827,-1.1069,-1.1303,-1.1355,-1.1475,-1.175,-1.1577,-1.1568,-1.2078,-1.2184,-1.2218,-1.2218,-1.2271,-1.2305,-1.2305,-1.2812,-1.312,-1.312,-1.3627,-1.3941,-1.4001,-1.5043,-1.5636,-1.5696,-1.79,-1.8997,-1.8997,-2.0089,-2.0605,-2.0605,-2.0605,-2.0605,-2.0595,-2.0517,-2.0429,-2.0331,-1.9941,-2.0135,-2.0772,-2.1559,-2.242,-2.3362,-2.4054,-2.4728,-2.5297,-1.0293,-1.0263,-1.0215,-1.0215,-1.0215,-1.0164,-1.0042,-0.993,-0.9606,-0.8891,-0.8693,-0.8332,-0.7483,-0.7385,-0.7428,-0.7616,0.0,0.0,0.0,0.0,0.0,0.0,0.0,0.0,0.0,0.0,0.0,0.0,0.0,0.0,0.0,0.0,0.0,0.0,0.0,0.0,0.0,0.0,0.0,0.0,0.0,0.0,-1.7473,-1.7451,-1.7538,-1.768,-1.7254,-1.7805,-1.8574,-1.7626,-1.6949,-1.65,-1.6494,-1.5724,-1.4804,-1.4778,0.0,-1.4058,-1.3256,-1.2464,-1.2011,-1.2627,-1.1675,-1.0624,0.0,0.0,-1.0553,-1.0586,-1.0593,-1.0593,-1.0593,-1.0827,-1.1002,-1.1035,-1.1256,-1.1402,-1.1435,-1.1415,-1.1415,-1.1482,-1.1757,-1.1953,-1.1953,-1.2151,-1.2305,-1.2305,-1.265,-1.2837,-1.2837,-1.312,-1.3427,-1.3646,-1.476,-1.5453,-1.5696,-1.79,-1.8997,-1.8997,-2.0089,-2.0605,-2.0605,-2.0605,-2.0605,-2.0586,-2.0156,-1.9775,-1.9424,-1.9375,-2.0062,-2.1152,-2.1252,-2.204,-2.3256,-2.4315,-2.4498,-2.4255,-1.0303,-1.0303,-1.0303,-1.0303,-1.0478,-1.0622,-1.056,-1.0532,-1.0293,-0.9677,-0.9058,-0.8476,-0.8017,-0.7834,-0.7789,-0.7899,-0.7931,0.0,0.0,0.0,0.0,0.0,0.0,0.0,0.0,0.0,0.0,0.0,0.0,0.0,0.0,0.0,0.0,0.0,0.0,0.0,0.0,0.0,0.0,0.0,0.0,0.0,-1.7713,-1.7713,-1.7938,-1.8261,-1.8083,-1.8415,0.0,0.0,-1.7196,-1.6487,-1.6503,-1.5287,-1.4023,-1.4833,-1.414,0.0,-1.2931,-1.2709,0.0,0.0,-1.181,-1.1163,-1.0713,-1.0593,-1.0593,-1.0593,-1.0593,-1.0593,-1.0593,-1.0687,-1.0827,0.0,-1.0955,-1.0982,-1.1149,-1.1029,-1.0922,-1.0922,-1.1329,-1.1683,-1.1886,-1.2013,-1.2124,-1.2285,-1.2616,-1.2784,-1.2784,-1.3039,-1.3267,-1.3347,-1.4616,-1.5631,-1.6405,-1.8148,-1.9164,-1.9524,-2.0246,-2.0478,-2.0195,-2.0488,-2.0468,-2.0166,-1.9736,-1.9307,-1.8942,-1.9455,-2.0128,-2.0882,-2.141,-2.2212,-2.3208,-2.401,-2.4192,-2.4029,-1.0303,-1.0303,-1.0303,-1.0303,-1.0625,-1.0908,-1.0908,-1.0854,-1.0733,-1.0433,-0.9722,-0.9101,-0.8752,-0.8365,-0.8145,-0.8145,-0.837,-0.8516,0.0,0.0,0.0,0.0,0.0,0.0,0.0,0.0,0.0,0.0,0.0,0.0,0.0,0.0,0.0,0.0,0.0,0.0,0.0,0.0,0.0,0.0,0.0,0.0,-1.8775,-1.861,-1.8835,-1.9193,-1.8837,-1.8788,0.0,0.0,-1.7394,-1.6461,-1.6166,-1.4746,-1.3391,-1.4412,-1.3529,-1.2282,-1.2609,0.0,0.0,-1.1813,-1.155,-1.132,-1.0744,-1.0593,-1.0593,-1.0593,-1.0593,-1.0593,-1.0593,-1.0593,-1.066,-1.0868,-1.0534,-1.0309,-1.0516,-1.0367,-1.0263,-1.0341,-1.0916,-1.1456,-1.1866,-1.198,-1.2078,-1.2285,-1.2536,-1.2663,-1.2663,-1.2839,-1.2999,-1.308,-1.4091,-1.5293,-1.6693,-1.7722,-1.8711,-1.9746,-2.0059,-2.0049,-1.9746,-2.0106,-1.9971,-1.9541,-1.9238,-1.9,-1.8819,-1.9452,-2.0215,-2.1005,-2.1647,-2.2384,-2.3158,-2.3572,-2.3753,-2.3753,-1.0303,-1.0303,-1.0303,-1.0303,-1.0625,-1.0908,-1.0908,-1.0897,-1.0956,-1.1148,-1.1154,-1.0771,-0.9859,-0.9176,-0.8784,-0.8784,-0.8791,-0.8791,-0.8791,-0.8556,0.0,0.0,0.0,0.0,0.0,0.0,0.0,0.0,0.0,0.0,0.0,0.0,0.0,0.0,0.0,0.0,0.0,0.0,0.0,0.0,0.0,0.0,-2.15,-2.0872,-2.0613,-2.0464,-1.9181,0.0,0.0,0.0,-1.7394,-1.6323,-1.534,-1.4201,0.0,-1.3159,-1.2759,0.0,0.0,0.0,-1.1175,-1.1286,-1.0967,-1.0618,-1.0624,-1.0593,-1.0593,-1.0593,-1.0593,-1.0593,-1.0593,-1.0593,-1.0593,-1.06,-0.9888,-0.9338,-0.935,-0.9338,-0.9432,-0.9714,-1.0493,-1.1236,0.0,-1.2124,-1.2291,-1.2305,-1.2311,-1.2318,-1.2318,-1.2325,-1.2496,-1.279,-1.2842,-1.3954,-1.6198,-1.6253,-1.7318,-1.9307,-1.9316,-1.9316,-1.9307,-1.9316,-1.9082,-1.8637,-1.8627,-1.8883,-1.9287,-1.932,-2.0312,-2.1846,-2.1877,-2.2384,-2.3108,-2.312,-2.3133,-2.3133,-1.0303,-1.0303,-1.0303,-1.0303,-1.04,-1.0488,-1.0488,-1.0997,-1.1402,-1.1462,-1.1306,0.0,0.0,0.0,0.0,0.0,-0.8804,-0.8804,-0.8804,-0.9139,0.0,0.0,0.0,0.0,0.0,0.0,0.0,0.0,0.0,0.0,0.0,0.0,0.0,0.0,0.0,0.0,0.0,0.0,0.0,0.0,0.0,0.0,-2.1625,-2.0964,-2.0487,-2.0045,0.0,0.0,0.0,0.0,0.0,0.0,-1.5487,0.0,0.0,-1.1976,0.0,-1.1532,0.0,0.0,-1.0165,-1.0224,-1.0137,-1.0057,-1.0221,-1.0267,-1.0321,-1.0553,-1.0593,-1.0593,-1.0593,-1.0142,-0.9722,-0.9722,-0.9498,-0.9107,-0.8517,-0.8941,-0.9167,-0.8746,-0.9695,0.0,0.0,0.0,0.0,-1.2285,-1.2305,-1.2305,-1.2305,-1.2305,-1.2345,-1.2452,-1.2683,-1.3793,-1.5902,-1.6104,-1.7086,-1.8857,-1.8857,-1.9014,-1.9277,-1.8984,-1.8734,-1.8588,-1.8305,-1.8626,-1.9332,-1.9911,-2.0846,-2.1939,-2.2476,-2.2854,-2.3108,-2.3108,-2.3108,-2.3108,-1.0498,-1.0508,-1.0577,-1.0733,-1.0635,0.0,0.0,0.0,0.0,0.0,0.0,0.0,0.0,0.0,0.0,0.0,0.0,-0.9159,-0.9159,0.0,0.0,0.0,0.0,0.0,0.0,0.0,0.0,0.0,0.0,0.0,0.0,0.0,0.0,0.0,0.0,0.0,0.0,0.0,0.0,0.0,0.0,0.0,-2.1987,-2.131,-2.059,0.0,0.0,0.0,0.0,0.0,0.0,0.0,0.0,0.0,0.0,0.0,-1.1146,-1.122,-1.0082,-0.984,-0.9861,-0.9583,-0.9606,-0.9733,-0.992,-1.004,-1.0174,-1.0392,-1.0261,-1.0142,-1.0142,-0.9428,-0.8844,-0.8844,-0.8581,-0.8188,-0.76,-0.8027,-0.8237,-0.7932,-0.8885,-0.9808,0.0,0.0,0.0,-1.2248,-1.2305,-1.2305,-1.2305,-1.2305,-1.2305,-1.2305,-1.2522,-1.3576,-1.5574,-1.5769,-1.6683,-1.8383,-1.8383,-1.8529,-1.8828,-1.85,-1.8383,-1.8364,-1.8091,-1.8654,-1.9824,-2.0365,-2.129,-2.2384,-2.2884,-2.3108,-2.3108,-2.3108,-2.3108,-2.3108,-1.083,-1.0928,-1.1074,0.0,0.0,0.0,0.0,0.0,0.0,0.0,0.0,0.0,0.0,0.0,0.0,0.0,0.0,0.0,0.0,0.0,0.0,0.0,0.0,0.0,-0.9488,-0.9758,0.0,0.0,0.0,0.0,0.0,0.0,0.0,0.0,0.0,0.0,0.0,0.0,0.0,0.0,0.0,0.0,-2.2577,-2.1899,0.0,0.0,0.0,0.0,0.0,0.0,0.0,0.0,0.0,0.0,0.0,0.0,0.0,-1.1257,-0.9292,-0.9459,-1.0004,-0.9323,-0.9406,-0.9655,-0.9653,-0.9886,-1.007,-1.0114,-0.9656,-0.9306,-0.9306,0.0,-0.7944,-0.7944,-0.7256,-0.6699,-0.6638,-0.6671,-0.6835,0.0,0.0,0.0,0.0,0.0,0.0,-1.2224,0.0,-1.2305,-1.2305,-1.2305,-1.2305,-1.2305,-1.2305,-1.323,-1.5163,-1.5305,-1.6228,-1.8008,-1.8008,-1.8008,-1.8008,-1.8008,-1.8008,-1.8008,-1.8008,-1.8977,-2.059,-2.059,-2.1573,-2.3108,-2.3108,-2.3108,-2.3108,-2.3108,-2.3108,-2.3108,0.0,0.0,0.0,0.0,0.0,0.0,0.0,0.0,0.0,0.0,0.0,0.0,0.0,0.0,0.0,0.0,0.0,0.0,0.0,0.0,0.0,0.0,0.0,0.0,0.0,0.0,0.0,0.0,0.0,0.0,0.0,0.0,0.0,0.0,0.0,0.0,0.0,0.0,0.0,0.0,0.0,0.0,-2.1885,0.0,0.0,0.0,0.0,0.0,0.0,0.0,0.0,0.0,0.0,0.0,-1.1689,0.0,0.0,-0.974,-0.8473,-0.8326,-0.8534,-0.8588,-0.8677,-0.8844,-0.9224,-0.9579,-0.986,-1.0074,-0.9656,-0.9306,-0.9306,0.0,0.0,-0.7169,-0.7,0.0,-0.5965,-0.6433,0.0,-0.6236,0.0,-0.8186,-0.9546,-1.0256,0.0,0.0,-1.2305,-1.2305,-1.2305,-1.2305,-1.2305,-1.2305,-1.2305,-1.323,-1.5163,-1.6585,-1.7545,-1.8008,-1.8008,-1.8008,-1.8008,-1.8008,-1.8008,-1.8008,-1.8008,-1.8977,-2.059,-2.059,-2.1573,-2.3108,-2.3108,-2.3108,-2.3108,-2.3108,-2.3108,-2.3108,0.0,0.0,0.0,0.0,0.0,0.0,0.0,0.0,0.0,0.0,0.0,0.0,0.0,0.0,0.0,0.0,0.0,0.0,0.0,0.0,0.0,0.0,0.0,0.0,0.0,0.0,0.0,0.0,0.0,0.0,0.0,0.0,0.0,0.0,0.0,0.0,0.0,0.0,0.0,0.0,0.0,0.0,0.0,0.0,0.0,0.0,0.0,0.0,0.0,0.0,0.0,-1.3348,-1.3017,-1.2393,-1.1619,-1.0683,0.0,-0.9187,-0.817,-0.7905,-0.7979,-0.8328,-0.8402,-0.8516,-0.8918,-0.9379,-0.9639,-0.9398,-0.9035,0.0,-0.8221,-0.7149,0.0,0.0,0.0,0.0,-0.5658,-0.6031,-0.6164,0.0,-0.632,0.0,-0.905,-0.9578,-1.0466,0.0,-1.2231,-1.2305,-1.2305,-1.2305,-1.2305,-1.2305,-1.2305,-1.323,-1.5163,-1.7044,-1.8008,-1.8008,-1.8008,-1.8008,-1.8008,-1.8008,-1.8008,-1.8008,0.0,-1.8977,-2.059,-2.059,-2.1573,-2.3108,-2.3108,-2.3108,-2.3108,-2.3108,-2.3108,-2.3108,0.0,0.0,0.0,0.0,0.0,0.0,0.0,0.0,0.0,-1.1045,-1.1697,0.0,0.0,0.0,0.0,0.0,0.0,0.0,0.0,0.0,0.0,0.0,0.0,0.0,0.0,0.0,0.0,0.0,0.0,0.0,0.0,0.0,0.0,0.0,0.0,0.0,0.0,0.0,0.0,0.0,0.0,0.0,0.0,0.0,0.0,0.0,0.0,0.0,0.0,0.0,-1.3806,-1.2983,-1.2925,-1.232,-1.1502,-1.0615,-0.9811,-0.8999,-0.8038,-0.7786,-0.7866,-0.823,-0.8342,-0.841,-0.8784,-0.9292,-0.9453,-0.861,0.0,-0.773,-0.685,-0.6082,-0.5589,-0.5589,0.0,-0.5616,-0.5616,-0.5637,-0.564,-0.562,-0.5844,-0.6729,-0.8658,-0.8804,-0.9556,-1.1514,-1.1972,-1.2184,-1.2184,-1.2184,-1.2204,-1.2245,-1.2528,-1.3484,-1.5163,-1.7044,-1.8008,-1.8008,-1.8008,-1.8008,-1.8008,-1.8008,-1.8008,-1.8008,-1.8008,-1.8977,-2.059,-2.059,-2.1573,-2.3108,-2.3108,-2.3108,-2.3108,-2.3108,-2.3108,-2.3108,0.0,0.0,0.0,0.0,0.0,0.0,0.0,-1.1557,-1.1577,-1.1477,-1.1904,-1.2293,-1.257,0.0,0.0,0.0,0.0,0.0,0.0,0.0,0.0,0.0,0.0,0.0,0.0,0.0,0.0,0.0,0.0,0.0,0.0,0.0,0.0,0.0,0.0,0.0,0.0,0.0,0.0,0.0,0.0,0.0,0.0,0.0,0.0,0.0,0.0,0.0,0.0,0.0,-1.4149,-1.334,-1.2988,-1.2024,-1.0864,-1.0248,-0.9159,-0.8024,-0.7328,-0.716,-0.7293,-0.7846,-0.7985,-0.8185,-0.8964,-0.9432,0.0,0.0,-0.8343,-0.773,-0.685,-0.6082,-0.5589,-0.5589,0.0,0.0,0.0,0.0,-0.5908,0.0,0.0,0.0,0.0,0.0,0.0,0.0,0.0,-1.1542,-1.1542,-1.1542,-1.169,-1.1973,-1.3731,-1.4879,-1.5199,-1.7044,-1.8008,-1.8008,-1.8008,-1.8008,-1.8008,-1.8008,-1.8008,-1.8008,-1.8008,0.0,-2.059,-2.059,-2.1573,-2.3108,-2.3108,-2.3108,-2.3108,-2.3108,-2.3108,-2.3108,0.0,0.0,0.0,0.0,0.0,0.0,0.0,-1.1438,-1.1685,-1.1875,-1.2077,-1.2242,-1.2322,-1.2532,-1.2402,0.0,0.0,0.0,0.0,0.0,0.0,0.0,0.0,0.0,0.0,0.0,0.0,0.0,0.0,0.0,0.0,0.0,0.0,0.0,0.0,0.0,0.0,0.0,0.0,0.0,0.0,0.0,0.0,0.0,0.0,0.0,0.0,0.0,0.0,0.0,-1.4512,-1.4,-1.3017,-1.1827,-1.0664,-0.9899,-0.8842,-0.7812,-0.7375,-0.7141,-0.7146,-0.7752,-0.7905,-0.8099,-0.8825,0.0,0.0,0.0,-0.8283,-0.773,-0.685,0.0,0.0,0.0,0.0,0.0,0.0,0.0,0.0,0.0,0.0,0.0,0.0,0.0,0.0,0.0,0.0,-1.1109,-1.1375,-1.1389,-1.1455,-1.163,-1.3588,-1.4727,-1.4944,-1.6516,-1.7535,-1.8008,-1.7793,-1.7803,-1.8008,-1.8008,-1.8008,-1.8008,-1.8008,0.0,-1.9944,-2.0398,-2.1353,-2.2506,-2.2944,-2.3108,-2.3108,-2.3108,-2.3108,-2.3108,0.0,0.0,0.0,0.0,0.0,0.0,0.0,-1.1281,-1.1633,-1.2135,-1.2203,-1.22,-1.2178,-1.2691,-1.2846,0.0,0.0,0.0,0.0,0.0,0.0,0.0,0.0,0.0,0.0,0.0,0.0,0.0,0.0,0.0,0.0,0.0,0.0,0.0,0.0,0.0,0.0,0.0,0.0,0.0,0.0,0.0,0.0,0.0,0.0,0.0,0.0,0.0,0.0,0.0,-1.4515,-1.4035,-1.2671,-1.1702,-1.0833,-0.9795,-0.8827,-0.8012,-0.7669,-0.7395,-0.7326,-0.7866,-0.8052,-0.8252,-0.8864,-0.9399,0.0,0.0,-0.8278,-0.773,-0.685,0.0,-0.5552,0.0,0.0,0.0,0.0,0.0,0.0,0.0,0.0,0.0,0.0,0.0,0.0,0.0,0.0,0.0,-1.1216,-1.1262,-1.1295,-1.1295,-1.3122,-1.4255,-1.4571,-1.5998,-1.7038,-1.7734,-1.75,-1.7559,-1.7881,-1.7969,-1.8008,-1.8008,-1.8008,0.0,0.0,-2.0236,-2.1101,-2.197,-2.2793,-2.3108,-2.3108,-2.3108,-2.3108,-2.3108,0.0,0.0,0.0,0.0,0.0,0.0,0.0,-1.1222,-1.1248,-1.2096,-1.2203,-1.2492,-1.3249,-1.2253,-1.1632,0.0,0.0,0.0,0.0,0.0,0.0,0.0,0.0,0.0,0.0,0.0,0.0,0.0,0.0,0.0,0.0,0.0,0.0,0.0,0.0,0.0,0.0,0.0,0.0,0.0,0.0,0.0,0.0,0.0,0.0,0.0,0.0,0.0,0.0,0.0,0.0,-1.2485,-1.1674,-1.1581,-1.1518,-1.0157,0.0,0.0,-0.8019,-0.7846,-0.7899,-0.825,-0.853,-0.8878,-0.9466,0.0,0.0,-0.934,-0.8581,-0.773,-0.685,-0.5987,-0.5463,-0.5566,0.0,0.0,0.0,0.0,0.0,0.0,0.0,0.0,0.0,0.0,0.0,0.0,0.0,0.0,-1.0667,-1.0889,-1.1035,-1.1035,-1.3032,-1.4131,-1.4164,-1.5859,-1.6746,-1.6824,-1.7207,-1.7402,-1.7484,-1.7832,-1.8008,-1.8008,-1.8008,0.0,0.0,-2.0236,-2.1101,-2.197,-2.2793,-2.3108,-2.3108,-2.3108,-2.3108,-2.3108,0.0,0.0,0.0,0.0,0.0,0.0,-1.1508,-1.1438,-1.1523,-1.2125,-1.2461,-1.2743,-1.3097,-1.2868,-1.2926,-1.3589,0.0,0.0,0.0,0.0,0.0,0.0,0.0,0.0,0.0,0.0,0.0,0.0,0.0,0.0,0.0,0.0,0.0,0.0,0.0,0.0,0.0,0.0,0.0,0.0,0.0,0.0,0.0,0.0,0.0,0.0,0.0,0.0,0.0,0.0,0.0,0.0,-1.1995,-1.1722,0.0,0.0,-0.9289,-0.8758,-0.8498,-0.8179,-0.8019,-0.8517,-0.8717,-0.8958,-0.9546,0.0,-0.9897,-0.9159,-0.8472,-0.773,-0.685,-0.5976,-0.5446,-0.5566,-0.5708,-0.5854,-0.5973,0.0,0.0,0.0,0.0,0.0,0.0,0.0,0.0,0.0,0.0,0.0,-1.0593,-1.07,-1.0767,-1.0767,-1.2514,-1.3537,-1.3784,-1.521,-1.6171,-1.6697,-1.6631,-1.6728,-1.697,-1.7126,-1.7213,-1.7223,-1.7519,0.0,0.0,-1.9347,-2.0333,-2.1195,-2.2063,-2.2659,-2.3108,-2.3108,-2.3108,-2.3108,0.0,0.0,0.0,0.0,0.0,-1.125,-1.1712,-1.1685,-1.1839,-1.2496,-1.2764,-1.2941,-1.3085,-1.3408,-1.3796,-1.423,-1.3981,0.0,0.0,0.0,0.0,0.0,0.0,0.0,0.0,0.0,0.0,0.0,0.0,0.0,0.0,0.0,0.0,0.0,0.0,0.0,0.0,0.0,0.0,0.0,0.0,0.0,0.0,0.0,0.0,0.0,0.0,0.0,0.0,0.0,0.0,0.0,0.0,0.0,0.0,0.0,-0.9519,-0.9158,-0.8951,-0.8671,-0.8498,-0.8825,-0.9065,-0.9215,0.0,-0.9665,-0.9618,-0.8757,-0.8069,-0.7437,-0.6817,-0.5976,-0.5446,0.0,-0.5708,-0.5854,-0.5973,0.0,0.0,0.0,0.0,0.0,0.0,0.0,0.0,0.0,0.0,0.0,-1.0593,-1.0593,-1.0593,-1.0593,-1.2151,-1.3133,-1.3411,-1.4738,-1.5693,-1.6307,-1.6183,-1.6261,-1.6543,-1.6638,-1.6697,-1.6716,-1.7061,0.0,0.0,-1.8563,-1.9609,-2.0484,-2.1495,-2.2384,-2.3108,-2.3108,-2.3108,-2.3108,0.0,0.0,0.0,0.0,0.0,0.0,-1.2125,-1.1868,-1.2044,-1.332,-1.3135,-1.3081,-1.3548,-1.3598,-1.3433,-1.3058,-1.3756,0.0,0.0,0.0,0.0,0.0,0.0,0.0,0.0,0.0,0.0,0.0,0.0,0.0,0.0,0.0,0.0,0.0,0.0,0.0,0.0,0.0,0.0,0.0,0.0,0.0,-1.541,0.0,0.0,0.0,0.0,0.0,0.0,0.0,0.0,0.0,0.0,0.0,0.0,0.0,-1.0077,-0.995,-0.9364,-0.9446,-0.9593,-0.9277,-0.9644,-0.9851,0.0,-0.9068,-0.9069,-0.8183,-0.7307,-0.6719,-0.6687,-0.5976,-0.5446,-0.5566,-0.5708,-0.5854,-0.5973,0.0,0.0,0.0,0.0,0.0,0.0,0.0,0.0,0.0,0.0,0.0,-1.0593,-1.0593,-1.0593,-1.0593,-1.2151,-1.3009,-1.3017,-1.4608,-1.5391,-1.543,-1.5889,-1.6095,-1.6114,-1.6533,-1.6697,-1.6697,0.0,0.0,0.0,-1.809,-1.9102,-2.0051,-2.1385,-2.2384,-2.3108,-2.3108,-2.3108,-2.3108,0.0,0.0,0.0,0.0,0.0,0.0,0.0,-1.2582,-1.2739,-1.3418,-1.3617,-1.3898,-1.4363,-1.4659,-1.479,-1.4649,-1.3356,0.0,0.0,0.0,0.0,0.0,0.0,0.0,0.0,0.0,0.0,0.0,0.0,0.0,0.0,0.0,0.0,0.0,0.0,0.0,0.0,0.0,0.0,0.0,0.0,-1.541,-1.541,0.0,0.0,0.0,0.0,0.0,0.0,0.0,0.0,0.0,0.0,0.0,0.0,-1.0479,-1.0274,-1.0043,-0.9857,-0.976,-0.9706,-0.9784,-0.995,-1.0076,-1.005,-0.9654,-0.9043,-0.8188,-0.7307,-0.6527,-0.5914,-0.5591,-0.5477,-0.5694,-0.5772,0.0,0.0,0.0,0.0,0.0,0.0,0.0,0.0,0.0,0.0,0.0,0.0,0.0,-1.0593,-1.0593,-1.0593,-1.0593,-1.2151,-1.3009,-1.3009,-1.4599,-1.541,-1.541,-1.5557,-1.5615,-1.5625,-1.5762,-1.58,0.0,0.0,0.0,0.0,-1.7479,-1.846,-1.9609,-2.0619,-2.1522,-2.2353,-2.2884,-2.3108,-2.3108,0.0,0.0,0.0,0.0,0.0,0.0,0.0,-1.2905,-1.3111,-1.3636,-1.3938,-1.422,-1.4544,-1.481,-1.4688,-1.4106,-1.2679,0.0,0.0,0.0,0.0,0.0,0.0,0.0,0.0,0.0,0.0,0.0,0.0,0.0,0.0,0.0,0.0,0.0,0.0,0.0,0.0,0.0,0.0,0.0,-1.541,-1.541,-1.5381,0.0,0.0,0.0,0.0,0.0,0.0,0.0,0.0,0.0,0.0,0.0,0.0,0.0,-1.0459,-1.0261,0.0,-1.0067,-1.0057,-1.01,-1.02,-1.0172,-0.9704,-0.9198,-0.8452,-0.7279,-0.6597,-0.6042,-0.5491,-0.5443,-0.5542,-0.5691,-0.5817,0.0,0.0,0.0,0.0,0.0,0.0,0.0,0.0,0.0,0.0,0.0,0.0,0.0,-1.0593,-1.0593,-1.0593,-1.0593,-1.2151,-1.3009,-1.3009,-1.4599,-1.541,-1.541,-1.541,-1.541,-1.541,-1.541,-1.541,0.0,0.0,0.0,0.0,-1.6894,-1.7785,-1.8912,-2.0125,-2.1132,-2.2013,-2.2793,-2.3108,-2.3108,0.0,0.0,0.0,0.0,0.0,0.0,0.0,-1.2886,-1.3138,-1.3917,-1.399,-1.4015,-1.4093,-1.4115,-1.3507,-1.2012,0.0,0.0,0.0,0.0,0.0,0.0,0.0,0.0,0.0,0.0,0.0,-1.0688,-1.0688,-1.0713,-1.0776,0.0,0.0,0.0,0.0,0.0,0.0,0.0,0.0,0.0,-1.5235,-1.5235,0.0,0.0,0.0,0.0,0.0,0.0,0.0,0.0,0.0,0.0,0.0,0.0,0.0,0.0,0.0,0.0,0.0,-1.0347,-1.0526,-1.0214,-1.0354,-1.0168,-0.8479,-0.8059,0.0,-0.5851,-0.5428,-0.5399,-0.5409,-0.5528,-0.5596,-0.5616,0.0,0.0,0.0,0.0,0.0,0.0,0.0,0.0,0.0,0.0,0.0,0.0,0.0,0.0,-1.0593,-1.0593,-1.0624,-1.0681,-1.2182,-1.3009,-1.3009,-1.4599,-1.541,-1.541,-1.541,-1.541,-1.541,-1.541,-1.541,0.0,0.0,0.0,0.0,-1.6317,-1.717,-1.8122,-1.9871,-2.1078,-2.1908,-2.2793,-2.3108,-2.3108,0.0,0.0,0.0,0.0,0.0,0.0,0.0,0.0,0.0,0.0,-1.2967,-1.2922,-1.3262,-1.3282,-1.313,0.0,0.0,0.0,0.0,0.0,0.0,0.0,0.0,0.0,0.0,0.0,0.0,-1.1531,-1.1531,-1.1841,-1.2428,-1.2634,0.0,0.0,0.0,0.0,0.0,0.0,0.0,0.0,-1.3545,-1.3545,0.0,0.0,0.0,0.0,-1.2358,-1.195,0.0,0.0,0.0,0.0,0.0,0.0,0.0,0.0,-1.0593,-1.0579,-1.0506,0.0,-1.0573,-1.0506,-1.0539,-1.0333,0.0,-0.8484,-0.7697,0.0,0.0,-0.5429,-0.5549,-0.5566,-0.5664,0.0,0.0,0.0,0.0,0.0,0.0,0.0,0.0,0.0,0.0,0.0,0.0,0.0,0.0,-1.0593,-1.0593,-1.0593,-1.0863,-1.15,-1.2481,-1.3009,-1.3009,-1.4599,-1.541,-1.541,-1.541,-1.541,-1.541,-1.541,-1.541,0.0,0.0,0.0,-1.5958,-1.6163,-1.6737,-1.7712,-1.9409,-2.0412,-2.1069,-2.2567,-2.3108,-2.3108,0.0,0.0,0.0,0.0,0.0,0.0,0.0,0.0,0.0,0.0,0.0,-1.3112,-1.3511,-1.3221,0.0,0.0,0.0,0.0,0.0,0.0,0.0,0.0,0.0,0.0,0.0,0.0,0.0,0.0,0.0,-1.1476,0.0,0.0,0.0,0.0,0.0,0.0,0.0,0.0,0.0,-1.3009,-1.3009,0.0,0.0,0.0,0.0,0.0,-1.1531,-1.1257,0.0,-1.0744,-1.0593,-1.0593,0.0,0.0,0.0,0.0,-1.0593,-1.0593,-1.0593,-1.0687,-1.0787,-1.0787,-1.0787,-1.0561,-0.9678,0.0,0.0,0.0,0.0,0.0,-0.5562,0.0,0.0,0.0,0.0,0.0,0.0,0.0,0.0,0.0,0.0,0.0,0.0,0.0,0.0,0.0,0.0,-1.0593,-1.0593,-1.0958,-1.1344,-1.1803,-1.294,-1.3545,-1.3545,-1.4776,-1.541,-1.541,-1.541,-1.541,-1.541,-1.541,-1.541,0.0,0.0,0.0,-1.5811,-1.6007,-1.6378,-1.6977,-1.8816,-1.9672,-2.0124,-2.1761,-2.2506,-2.2732,0.0,0.0,0.0,0.0,0.0,0.0,0.0,0.0,0.0,0.0,0.0,0.0,0.0,0.0,0.0,0.0,0.0,0.0,0.0,0.0,0.0,0.0,0.0,0.0,0.0,0.0,0.0,0.0,0.0,0.0,0.0,0.0,-1.0593,0.0,0.0,0.0,0.0,0.0,-1.2642,-1.2642,-1.2642,0.0,0.0,0.0,0.0,0.0,0.0,0.0,0.0,-1.0593,-1.0593,-1.0593,-1.0593,0.0,0.0,0.0,0.0,0.0,-1.0646,-1.0868,-1.1035,-1.0949,-1.0962,-1.0712,-0.9663,0.0,0.0,0.0,0.0,0.0,0.0,0.0,0.0,0.0,0.0,0.0,0.0,0.0,0.0,0.0,0.0,0.0,0.0,0.0,0.0,0.0,0.0,-1.0593,-1.0593,-1.1351,-1.1865,-1.1989,-1.3416,-1.4273,-1.4392,-1.505,-1.541,-1.541,-1.541,-1.541,-1.541,-1.541,-1.541,-1.541,0.0,0.0,-1.5439,-1.584,-1.6036,-1.6276,-1.8251,-1.9044,-1.929,-2.099,-2.1907,-2.2322,0.0,0.0,0.0,0.0,0.0,0.0,0.0,0.0,0.0,0.0,0.0,0.0,0.0,0.0,0.0,0.0,0.0,0.0,0.0,0.0,0.0,0.0,0.0,0.0,0.0,0.0,0.0,0.0,0.0,0.0,-1.0593,-1.0593,-1.0593,-1.0624,0.0,0.0,0.0,-1.0926,-1.0958,-1.0958,-1.0958,0.0,0.0,0.0,0.0,0.0,0.0,0.0,0.0,-1.0593,-1.0593,-1.0593,-1.0593,0.0,0.0,0.0,0.0,0.0,-1.0894,-1.1136,-1.1243,-1.078,-1.0847,-1.0522,0.0,0.0,0.0,0.0,0.0,0.0,0.0,0.0,0.0,0.0,0.0,0.0,0.0,0.0,0.0,0.0,0.0,0.0,0.0,0.0,0.0,0.0,0.0,-1.0593,-1.0593,-1.1351,-1.2112,-1.2795,-1.3726,-1.454,-1.5206,-1.5352,-1.541,-1.541,-1.541,-1.541,-1.541,-1.541,-1.541,-1.541,0.0,-1.541,-1.542,-1.5488,-1.5732,-1.6276,-1.7952,-1.8812,-1.9335,-2.1406,-2.2234,-2.2343,0.0,0.0,0.0,0.0,0.0,0.0,0.0,0.0,0.0,0.0,0.0,0.0,0.0,0.0,0.0,0.0,0.0,0.0,0.0,0.0,0.0,0.0,0.0,0.0,0.0,0.0,0.0,0.0,0.0,-1.0512,-1.0321,-1.0519,-1.0593,-1.0593,0.0,0.0,0.0,-1.0593,-1.068,-1.0827,0.0,0.0,0.0,0.0,0.0,0.0,0.0,0.0,0.0,0.0,-1.0593,-1.0593,-1.0593,0.0,0.0,0.0,0.0,0.0,-1.0754,-1.0969,-1.1129,-1.0894,-1.1169,-1.1252,-1.0318,0.0,0.0,0.0,0.0,0.0,0.0,0.0,0.0,0.0,0.0,0.0,0.0,0.0,0.0,0.0,0.0,0.0,0.0,0.0,0.0,0.0,0.0,0.0,-1.0593,-1.1787,-1.2604,-1.2978,-1.4213,-1.5021,-1.541,-1.541,-1.541,-1.541,-1.541,-1.541,-1.541,-1.541,-1.541,-1.541,0.0,-1.541,-1.541,-1.541,-1.5527,-1.5822,-1.6969,-1.7528,-1.7952,-2.0075,-2.1283,-2.1945,0.0,0.0,0.0,0.0,0.0,0.0,0.0,0.0,0.0,0.0,0.0,0.0,0.0,0.0,0.0,0.0,0.0,0.0,0.0,0.0,0.0,0.0,0.0,0.0,0.0,0.0,-1.0347,-1.0083,-1.0347,-1.0374,-1.0227,-1.0553,-1.0693,0.0,0.0,0.0,0.0,-1.0767,-1.0888,-1.1002,0.0,0.0,0.0,0.0,0.0,0.0,0.0,0.0,0.0,0.0,0.0,0.0,0.0,0.0,0.0,-1.0593,-1.0593,-1.0606,-1.0673,-1.0854,-1.1009,-1.1076,0.0,-1.1642,-1.1503,0.0,0.0,0.0,0.0,0.0,0.0,0.0,0.0,0.0,0.0,0.0,0.0,0.0,0.0,0.0,0.0,0.0,0.0,0.0,0.0,0.0,0.0,0.0,-1.0593,-1.212,-1.3009,-1.3009,-1.4569,-1.541,-1.541,-1.541,-1.541,-1.541,-1.541,-1.541,-1.541,-1.541,-1.541,-1.541,-1.541,-1.541,-1.541,-1.541,-1.541,-1.5468,-1.6208,-1.6697,-1.7166,-1.8953,-2.0374,-2.1505,0.0,0.0,0.0,0.0,0.0,0.0,0.0,0.0,0.0,0.0,0.0,0.0,0.0,0.0,0.0,0.0,0.0,0.0,0.0,0.0,0.0,0.0,0.0,0.0,0.0,-1.0294,-1.011,-1.0083,-1.011,-1.0281,-1.0566,-1.0828,-1.0962,-1.0975,0.0,0.0,0.0,0.0,-1.1223,-1.1015,-1.1283,0.0,0.0,0.0,0.0,0.0,0.0,0.0,0.0,0.0,0.0,0.0,0.0,0.0,-1.0593,-1.0593,-1.0593,-1.0646,-1.0889,-1.0982,-1.1056,-1.1295,0.0,0.0,-1.0353,0.0,0.0,0.0,0.0,0.0,0.0,0.0,0.0,0.0,0.0,0.0,0.0,0.0,0.0,0.0,0.0,0.0,0.0,0.0,0.0,0.0,0.0,0.0,-1.0593,-1.212,-1.3009,-1.3009,-1.4569,-1.541,-1.541,-1.541,-1.541,-1.541,-1.541,-1.541,-1.541,-1.541,-1.541,-1.541,-1.541,-1.541,-1.541,-1.541,-1.541,-1.5468,-1.6208,-1.7259,-1.8464,-1.9289,-2.028,-2.1313,0.0,0.0,0.0,0.0,0.0,0.0,0.0,0.0,0.0,0.0,0.0,0.0,0.0,0.0,0.0,0.0,0.0,0.0,0.0,0.0,0.0,0.0,0.0,-1.1129,-1.0835,-1.0573,-1.0301,-1.0083,-1.0083,-1.0361,-1.0861,-1.0787,0.0,0.0,0.0,0.0,0.0,0.0,-1.1329,-1.1289,-1.1583,-1.1523,0.0,0.0,0.0,0.0,0.0,0.0,0.0,0.0,-1.0593,-1.0593,-1.0593,-1.0593,-1.0593,-1.0593,-1.0593,-1.062,-1.0727,-1.0855,0.0,0.0,0.0,0.0,0.0,0.0,0.0,0.0,0.0,0.0,0.0,0.0,0.0,0.0,0.0,0.0,0.0,0.0,0.0,0.0,0.0,0.0,0.0,0.0,0.0,0.0,0.0,0.0,-1.0593,-1.212,-1.3009,-1.3009,-1.4569,-1.541,-1.541,-1.541,-1.541,-1.541,-1.541,-1.541,-1.541,-1.541,-1.541,-1.541,-1.541,-1.541,-1.541,-1.541,-1.541,-1.5439,-1.5719,-1.6425,-1.7287,-1.7559,-1.8954,-2.0751,0.0,0.0,0.0,0.0,0.0,0.0,0.0,0.0,0.0,0.0,0.0,0.0,0.0,0.0,0.0,0.0,0.0,0.0,0.0,0.0,0.0,0.0,0.0,-1.1196,-1.0995,-1.074,-1.0445,-1.0083,-1.0083,-1.0367,-1.0855,0.0,0.0,0.0,0.0,0.0,0.0,0.0,0.0,-1.1583,-1.1826,-1.169,0.0,0.0,0.0,0.0,0.0,0.0,0.0,0.0,-1.0593,-1.0593,-1.0593,-1.0593,-1.0593,-1.0593,-1.066,-1.0727,-1.0727,-1.0874,-1.1015,0.0,0.0,0.0,0.0,0.0,0.0,0.0,0.0,0.0,0.0,0.0,0.0,0.0,0.0,0.0,0.0,0.0,0.0,0.0,0.0,0.0,0.0,0.0,0.0,0.0,0.0,0.0,0.0,-1.212,-1.3009,-1.3009,-1.4569,-1.541,-1.541,-1.541,-1.541,-1.541,-1.541,-1.541,-1.541,-1.541,-1.541,-1.541,-1.541,-1.541,-1.541,-1.541,-1.541,-1.541,-1.541,-1.5719,-1.6179,-1.6397,-1.7744,-1.9483,0.0,0.0,0.0,0.0,0.0,0.0,0.0,0.0,0.0,0.0,0.0,0.0,0.0,0.0,0.0,0.0,0.0,0.0,0.0,0.0,0.0,0.0,0.0,-1.0995,-1.0995,-1.0747,-1.0452,-1.009,-1.009,-1.0274,-1.0613,-1.1149,0.0,0.0,0.0,0.0,0.0,0.0,0.0,0.0,-1.1899,-1.169,-1.1389,0.0,0.0,0.0,0.0,0.0,0.0,0.0,-1.0593,-1.0593,-1.0593,-1.0593,-1.0593,-1.0593,-1.0801,-1.0995,-1.0995,-1.0995,0.0,0.0,0.0,0.0,0.0,0.0,0.0,0.0,0.0,0.0,0.0,0.0,0.0,0.0,0.0,0.0,0.0,0.0,0.0,0.0,0.0,0.0,0.0,0.0,0.0,0.0,0.0,0.0,0.0,-1.212,-1.3009,-1.3009,-1.4569,-1.541,-1.541,-1.541,-1.541,-1.541,-1.541,-1.541,-1.541,-1.541,-1.541,-1.541,-1.541,-1.541,-1.541,-1.541,-1.541,-1.541,-1.541,-1.541,-1.5497,-1.6208,-1.689,-1.7568,0.0,0.0,0.0,0.0,0.0,0.0,0.0,0.0,0.0,0.0,0.0,0.0,0.0,0.0,0.0,0.0,0.0,0.0,0.0,0.0,0.0,0.0,0.0,0.0,0.0,0.0,-1.0929,-1.0459,-1.0459,-1.0613,0.0,0.0,0.0,-1.1002,0.0,0.0,0.0,0.0,0.0,0.0,-1.1476,-1.1383,-1.1122,0.0,0.0,0.0,0.0,0.0,0.0,0.0,0.0,0.0,-1.0593,-1.0734,-1.0894,-1.0894,-1.0922,-1.0995,-1.0995,-1.0995,0.0,0.0,0.0,0.0,0.0,0.0,0.0,0.0,0.0,0.0,0.0,0.0,0.0,0.0,0.0,0.0,0.0,0.0,0.0,0.0,0.0,0.0,0.0,0.0,0.0,0.0,0.0,0.0,0.0,-1.212,-1.3009,-1.3009,-1.4569,-1.541,-1.541,-1.541,-1.541,-1.541,-1.541,-1.541,-1.541,-1.541,-1.541,-1.541,-1.541,-1.541,-1.541,-1.541,-1.541,-1.541,-1.541,-1.541,-1.5439,-1.5642,-1.6427,-1.7437,0.0,0.0,0.0,0.0,0.0,0.0,0.0,0.0,0.0,0.0,0.0,0.0,0.0,0.0,0.0,0.0,0.0,0.0,0.0,0.0,0.0,0.0,0.0,0.0,0.0,-1.1389,-1.1249,0.0,0.0,0.0,0.0,0.0,0.0,-1.0861,0.0,-1.0895,0.0,0.0,0.0,0.0,-1.1229,-1.1149,-1.0995,0.0,0.0,0.0,0.0,0.0,0.0,0.0,0.0,0.0,-1.0727,-1.0888,-1.1015,-1.1129,-1.1249,-1.1377,-1.1377,0.0,0.0,0.0,0.0,0.0,0.0,0.0,0.0,0.0,0.0,0.0,0.0,0.0,0.0,0.0,0.0,0.0,0.0,0.0,0.0,0.0,0.0,0.0,0.0,0.0,0.0,0.0,0.0,0.0,0.0,-1.2305,-1.3161,-1.3463,-1.4726,-1.541,-1.541,-1.541,-1.541,-1.541,-1.541,-1.541,-1.541,-1.541,-1.541,-1.541,-1.541,-1.541,-1.541,-1.541,-1.541,-1.541,-1.541,-1.541,-1.541,-1.541,-1.5918,-1.6619,0.0,0.0,-1.3726,-1.2917,0.0,0.0,0.0,0.0,0.0,0.0,0.0,-1.0593,0.0,0.0,0.0,-1.0593,0.0,0.0,0.0,0.0,0.0,0.0,0.0,0.0,0.0,0.0,0.0,0.0,0.0,0.0,0.0,0.0,-1.0847,-1.06,0.0,-1.0955,0.0,0.0,0.0,0.0,-1.1062,-1.0955,-1.0955,-1.0955,0.0,0.0,0.0,0.0,0.0,0.0,0.0,0.0,-1.0949,-1.1049,-1.1122,-1.139,-1.1657,-1.1906,-1.1906,0.0,0.0,0.0,0.0,0.0,0.0,0.0,0.0,0.0,0.0,0.0,0.0,0.0,0.0,0.0,0.0,0.0,0.0,0.0,0.0,0.0,0.0,0.0,0.0,0.0,0.0,0.0,0.0,0.0,0.0,-1.2573,-1.3373,-1.4174,-1.4991,-1.541,-1.541,-1.541,-1.541,-1.541,-1.541,-1.541,-1.541,-1.541,-1.541,-1.541,-1.541,-1.541,-1.541,-1.541,-1.541,-1.541,-1.541,-1.541,-1.541,-1.541,-1.541,-1.5469,0.0,0.0,-1.205,-1.1264,0.0,0.0,0.0,0.0,-1.0807,-1.0624,-1.0593,-1.0593,-1.0593,-1.0593,0.0,-1.0593,-1.0593,0.0,0.0,0.0,0.0,0.0,0.0,0.0,0.0,0.0,0.0,0.0,0.0,0.0,0.0,0.0,0.0,-1.0593,0.0,-1.0687,0.0,0.0,0.0,-1.0774,-1.0713,-1.0687,-1.0687,-1.0687,-1.0787,0.0,0.0,0.0,0.0,0.0,0.0,0.0,-1.1316,-1.1496,-1.1732,-1.1792,-1.1852,-1.1906,0.0,0.0,0.0,0.0,0.0,0.0,0.0,0.0,0.0,0.0,0.0,0.0,0.0,0.0,0.0,0.0,0.0,0.0,0.0,0.0,0.0,0.0,0.0,0.0,0.0,0.0,0.0,0.0,0.0,0.0,-1.1772,-1.2573,-1.3373,-1.4174,-1.4991,-1.541,-1.541,-1.541,-1.541,0.0,-1.541,-1.541,-1.541,-1.541,-1.541,-1.541,-1.541,-1.541,-1.541,-1.541,-1.541,-1.541,-1.541,-1.541,-1.541,-1.541,-1.541,-1.542,0.0,0.0,0.0,0.0,0.0,0.0,0.0,0.0,-1.0875,-1.0626,-1.0593,-1.0593,-1.0593,-1.0593,0.0,0.0,-1.0593,-1.0593,0.0,0.0,0.0,0.0,0.0,0.0,0.0,0.0,0.0,0.0,0.0,0.0,0.0,0.0,0.0,-1.0801,0.0,-1.0801,0.0,0.0,-1.0593,-1.0593,-1.0593,-1.0593,-1.0593,-1.0593,-1.0687,-1.0841,-1.0942,0.0,0.0,0.0,0.0,0.0,0.0,0.0,-1.1933,-1.2037,-1.2078,-1.2078,0.0,0.0,0.0,0.0,0.0,0.0,0.0,0.0,0.0,0.0,0.0,0.0,0.0,0.0,0.0,0.0,0.0,0.0,0.0,0.0,0.0,0.0,0.0,0.0,0.0,0.0,0.0,0.0,0.0,-1.1531,-1.2328,-1.3152,-1.3936,-1.4756,-1.5167,-1.541,-1.541,-1.541,-1.541,-1.541,-1.541,-1.541,-1.541,-1.541,-1.541,-1.541,-1.541,-1.541,-1.541,-1.541,-1.541,-1.541,-1.541,-1.541,-1.541,-1.541,-1.541,-1.541,0.0,0.0,0.0,0.0,0.0,0.0,0.0,0.0,0.0,-1.0653,-1.0593,-1.0593,-1.0593,-1.0593,-1.0593,0.0,0.0,0.0,-1.0593,0.0,0.0,0.0,0.0,0.0,0.0,0.0,0.0,0.0,0.0,0.0,0.0,0.0,0.0,-1.1069,0.0,0.0,0.0,0.0,-1.074,-1.074,-1.074,-1.074,-1.074,-1.074,-1.0774,-1.0847,-1.1095,-1.1176,-1.1256,-1.1496,0.0,0.0,0.0,0.0,-1.2027,-1.2231,-1.2305,-1.2305,0.0,0.0,0.0,0.0,0.0,0.0,0.0,0.0,0.0,0.0,0.0,0.0,0.0,0.0,0.0,0.0,0.0,0.0,0.0,0.0,0.0,0.0,0.0,0.0,0.0,0.0,0.0,0.0,0.0,-1.2358,-1.3152,-1.3846,-1.4569,-1.5381,-1.5264,-1.5264,-1.541,-1.5264,-1.5196,-1.5196,-1.505,-1.505,-1.5196,-1.5196,-1.5264,-1.541,-1.541,-1.541,-1.541,-1.541,-1.541,-1.541,-1.541,-1.541,-1.541,-1.541,-1.541,-1.541,0.0,0.0,0.0,0.0,0.0,0.0,0.0,0.0,0.0,0.0,-1.0593,-1.0593,-1.0593,-1.0593,-1.0593,-1.0593,-1.0593,-1.0593,0.0,0.0,0.0,0.0,0.0,0.0,0.0,0.0,0.0,0.0,0.0,0.0,0.0,0.0,0.0,-1.1335,0.0,0.0,0.0,0.0,-1.1275,-1.1275,-1.1275,-1.1275,-1.1275,-1.1275,-1.147,-1.1732,-1.1772,-1.1917,-1.2131,-1.2171,-1.2184,0.0,0.0,0.0,0.0,-1.2291,-1.2305,0.0,0.0,0.0,0.0,0.0,0.0,0.0,0.0,0.0,0.0,0.0,0.0,0.0,0.0,0.0,0.0,0.0,0.0,0.0,0.0,0.0,0.0,0.0,0.0,0.0,0.0,0.0,0.0,0.0,-1.2389,-1.3183,-1.3995,-1.4145,-1.4569,-1.5381,-1.4717,-1.4688,-1.5381,-1.4717,-1.4362,-1.4353,-1.3636,-1.3704,-1.4362,-1.4362,-1.4746,-1.541,-1.541,-1.541,-1.541,-1.541,-1.541,-1.541,-1.541,-1.541,-1.541,-1.541,-1.541,-1.541,0.0,0.0,0.0,0.0,0.0,0.0,0.0,0.0,0.0,0.0,0.0,-1.0653,-1.0814,-1.0687,-1.0593,-1.0593,-1.0593,0.0,0.0,0.0,0.0,0.0,0.0,0.0,0.0,0.0,0.0,0.0,0.0,0.0,0.0,-1.2037,-1.1917,0.0,0.0,0.0,0.0,0.0,-1.1389,-1.1389,-1.1389,-1.1523,-1.1657,-1.1455,-1.161,-1.1906,-1.1906,-1.1986,-1.2084,-1.2245,-1.2305,-1.2305,-1.2305,0.0,0.0,0.0,0.0,0.0,0.0,0.0,0.0,0.0,0.0,0.0,0.0,0.0,0.0,0.0,0.0,0.0,0.0,0.0,0.0,0.0,0.0,0.0,0.0,0.0,0.0,0.0,0.0,0.0,0.0,0.0,0.0,0.0,-1.3213,-1.3825,-1.4183,-1.4628,-1.5021,-1.5381,-1.4628,-1.4599,-1.5381,-1.4599,-1.4213,-1.4174,-1.3364,-1.3191,-1.3524,-1.3524,-1.4204,-1.541,-1.541,-1.541,-1.541,-1.541,-1.541,-1.541,-1.541,-1.541,-1.541,-1.541,-1.541,-1.541,0.0,0.0,0.0,0.0,0.0,0.0,0.0,0.0,0.0,0.0,0.0,-1.076,-1.0868,0.0,0.0,0.0,-1.0593,0.0,0.0,0.0,0.0,0.0,0.0,0.0,0.0,0.0,0.0,0.0,0.0,0.0,-1.2412,-1.2412,-1.2412,0.0,-1.2338,0.0,0.0,0.0,0.0,-1.1657,-1.173,-1.1891,-1.2114,-1.1937,-1.2017,-1.2234,-1.2154,-1.2127,-1.2147,-1.2258,-1.2305,-1.2305,-1.2305,0.0,0.0,0.0,0.0,0.0,0.0,0.0,0.0,0.0,0.0,0.0,0.0,0.0,0.0,0.0,0.0,0.0,0.0,0.0,0.0,0.0,0.0,0.0,0.0,0.0,0.0,0.0,0.0,0.0,0.0,0.0,0.0,0.0,-1.4055,-1.451,-1.451,-1.5079,-1.541,-1.541,-1.4536,-1.4468,-1.5381,-1.4392,-1.3906,-1.3876,-1.2879,-1.2489,-1.2704,-1.2704,-1.3455,-1.4805,-1.5021,-1.5196,-1.541,-1.541,-1.541,-1.541,-1.541,-1.541,-1.541,-1.541,-1.541,-1.541,0.0,0.0,0.0,0.0,0.0,0.0,0.0,0.0,0.0,0.0,0.0,-1.0901,-1.064,-1.0847,-1.0894,-1.062,-1.0593,0.0,0.0,0.0,0.0,0.0,0.0,0.0,0.0,0.0,0.0,0.0,0.0,0.0,-1.2764,-1.2764,-1.2764,-1.275,-1.2425,-1.2291,-1.2278,0.0,0.0,-1.2278,-1.2603,-1.2723,-1.277,-1.3013,-1.3126,-1.31,-1.2844,-1.2737,-1.2697,-1.2392,-1.2305,-1.2305,-1.2305,-1.2305,-1.2305,0.0,0.0,0.0,0.0,0.0,0.0,0.0,0.0,0.0,0.0,0.0,0.0,0.0,0.0,0.0,0.0,0.0,0.0,0.0,0.0,0.0,0.0,0.0,0.0,0.0,0.0,0.0,0.0,0.0,0.0,0.0,-1.4874,-1.5352,-1.5352,-1.5381,-1.541,-1.541,-1.4257,-1.419,-1.5381,-1.3855,-1.307,-1.3039,-1.1483,-1.1108,-1.1857,-1.1857,-1.2328,-1.3161,-1.3936,-1.4688,-1.541,-1.541,-1.541,-1.541,-1.541,-1.541,-1.541,-1.541,-1.541,-1.541,0.0,0.0,0.0,0.0,0.0,0.0,0.0,0.0,0.0,0.0,0.0,0.0,0.0,-1.0801,-1.0707,-1.06,-1.0593,0.0,0.0,0.0,0.0,0.0,0.0,0.0,0.0,0.0,0.0,0.0,0.0,-1.2171,-1.2496,-1.2496,-1.2496,-1.2465,-1.2589,-1.2623,-1.2616,-1.2385,0.0,-1.2879,-1.2824,-1.3018,-1.3313,-1.324,-1.3327,-1.3407,-1.3153,-1.3046,0.0,0.0,-1.2623,-1.2556,-1.2181,-1.2024,-1.2168,-1.2763,0.0,0.0,0.0,0.0,0.0,0.0,0.0,0.0,0.0,0.0,0.0,0.0,0.0,0.0,0.0,0.0,0.0,0.0,0.0,0.0,0.0,0.0,0.0,0.0,0.0,0.0,0.0,0.0,0.0,0.0,0.0,-1.5293,-1.5029,-1.501,-1.4883,-1.4572,-1.3654,-1.3163,-1.3146,-1.2889,-1.2454,-1.1901,-1.0812,-1.0554,-1.1021,-1.1021,-1.1476,-1.2266,-1.2535,-1.3416,-1.4658,-1.5206,-1.541,-1.541,-1.541,-1.541,-1.541,-1.541,-1.541,-1.541,0.0,0.0,0.0,-1.2945,0.0,-1.2138,-1.165,-1.1577,-1.147,-1.1176,0.0,0.0,0.0,0.0,-1.0807,-1.0613,-1.0593,-1.0593,-1.0593,0.0,0.0,0.0,0.0,0.0,0.0,0.0,0.0,0.0,0.0,0.0,0.0,-1.2204,-1.2387,-1.2776,-1.2917,-1.2835,0.0,0.0,0.0,-1.2906,0.0,-1.314,-1.346,-1.35,-1.3627,-1.3713,-1.342,0.0,0.0,0.0,0.0,-1.2697,-1.2208,-1.1913,-1.1927,-1.2826,-1.3033,0.0,0.0,0.0,0.0,0.0,0.0,0.0,0.0,0.0,0.0,0.0,0.0,0.0,0.0,0.0,0.0,0.0,0.0,0.0,0.0,0.0,0.0,0.0,0.0,0.0,0.0,0.0,0.0,0.0,0.0,0.0,-1.501,-1.5,-1.4795,-1.4338,-1.3598,-1.2909,-1.2319,-1.2217,-1.187,-1.1301,-1.0597,-1.0367,-1.0593,-1.0593,-1.0895,-1.1406,-1.1679,-1.2565,-1.3846,-1.4658,-1.4991,-1.5021,-1.5294,-1.541,-1.541,-1.541,-1.541,-1.541,-1.3586,-1.336,-1.32,-1.32,-1.2705,-1.2204,-1.1946,-1.1906,-1.1799,-1.1429,0.0,0.0,0.0,0.0,0.0,-1.0667,-1.0613,-1.0606,-1.0606,-1.0593,0.0,0.0,0.0,0.0,0.0,0.0,0.0,0.0,0.0,0.0,0.0,0.0,-1.2571,-1.37,-1.3437,-1.2942,-1.2328,0.0,-1.2355,-1.2392,0.0,-1.3213,-1.33,0.0,-1.4082,0.0,-1.372,-1.3613,0.0,-1.328,0.0,-1.2744,-1.2385,-1.1897,-1.1642,-1.2485,-1.2755,-1.2957,0.0,0.0,0.0,0.0,0.0,0.0,0.0,0.0,0.0,0.0,0.0,0.0,0.0,0.0,0.0,0.0,0.0,0.0,0.0,0.0,0.0,0.0,0.0,0.0,0.0,0.0,0.0,0.0,-1.541,-1.5371,-1.5391,-1.5381,-1.5157,-1.4747,-1.4138,-1.355,-1.3014,-1.1884,-1.1293,-1.1264,-1.0791,-1.0586,-1.0593,-1.0593,-1.0593,-1.0656,-1.1437,-1.2205,-1.3009,-1.3846,-1.4213,-1.4273,-1.5079,-1.541,-1.541,-1.541,-1.541,-1.541,-1.3287,-1.3086,-1.2911,-1.2911,-1.2559,-1.2204,-1.1946,-1.1906,-1.1799,0.0,0.0,0.0,-1.1035,-1.1062,-1.1136,-1.1182,-1.0995,-1.0875,-1.0875,-1.0707,-1.0593,-1.0593,-1.1116,-1.1389,0.0,0.0,0.0,0.0,0.0,0.0,0.0,0.0,0.0,0.0,-1.3366,-1.3038,-1.2892,-1.3179,0.0,-1.3207,-1.2979,-1.33,0.0,0.0,0.0,0.0,0.0,-1.3968,-1.3921,0.0,-1.3327,-1.2953,-1.2254,-1.2367,-1.29,-1.354,-1.4338,-1.508,-1.5409,0.0,0.0,0.0,0.0,0.0,0.0,0.0,0.0,0.0,0.0,0.0,0.0,0.0,0.0,0.0,0.0,0.0,0.0,0.0,0.0,0.0,0.0,0.0,0.0,0.0,0.0,0.0,-1.541,-1.5283,-1.4971,-1.463,-1.415,-1.3451,-1.3567,-1.2817,-1.1098,-1.1226,-1.0894,-1.0144,-1.0214,-1.0385,-1.0593,-1.0593,-1.0593,-1.0624,-1.0832,-1.1052,-1.1421,-1.3394,-1.4213,-1.4273,-1.5079,-1.541,-1.541,-1.541,-1.541,-1.541,-1.2979,-1.2911,-1.2784,-1.2784,-1.2536,-1.2245,-1.2078,-1.2087,-1.1984,0.0,0.0,0.0,-1.139,-1.1136,-1.1062,-1.1229,-1.0982,-1.0847,-1.0847,-1.0687,-1.0593,-1.0593,-1.1002,-1.1303,-1.1389,0.0,0.0,0.0,0.0,0.0,0.0,0.0,0.0,0.0,-1.4451,-1.431,-1.4265,-1.4308,0.0,0.0,-1.2878,0.0,0.0,-1.348,-1.3567,0.0,0.0,0.0,-1.3694,-1.348,-1.314,0.0,-1.2107,-1.2164,-1.2711,-1.3783,-1.4595,-1.5325,-1.6121,-1.6128,0.0,0.0,0.0,0.0,0.0,-1.5483,0.0,0.0,0.0,0.0,0.0,0.0,0.0,0.0,0.0,0.0,0.0,0.0,0.0,0.0,0.0,0.0,0.0,-1.541,-1.541,-1.541,-1.541,-1.5303,-1.5059,-1.4777,-1.4436,-1.3951,-1.3448,-1.2552,-1.126,-1.0953,-1.0492,-0.9866,-1.016,-1.0425,-1.0593,-1.0593,-1.0593,-1.0593,-1.0593,-1.0593,-1.0776,-1.2848,-1.3696,-1.3816,-1.4962,-1.541,-1.541,-1.541,-1.541,-1.541,0.0,-1.2757,-1.2744,-1.2777,-1.2536,-1.2305,-1.2305,-1.2305,-1.2305,0.0,-1.2271,-1.2171,-1.198,-1.1396,-1.1069,-1.1129,-1.0847,-1.0653,-1.0687,-1.0626,-1.0593,-1.0593,-1.0868,-1.1109,-1.1335,-1.1409,0.0,0.0,0.0,0.0,0.0,0.0,0.0,0.0,-1.6045,-1.5996,-1.5856,-1.5391,-1.4199,-1.2613,-1.2698,-1.2777,0.0,0.0,-1.318,-1.3213,-1.3213,-1.3213,-1.3206,-1.3173,-1.2799,0.0,-1.2047,-1.1807,-1.1984,-1.3657,-1.4272,0.0,-1.6294,-1.6736,0.0,-1.5606,-1.6059,0.0,-1.5597,-1.5387,0.0,0.0,0.0,0.0,0.0,0.0,0.0,0.0,0.0,0.0,0.0,0.0,0.0,0.0,0.0,0.0,-1.541,-1.541,-1.541,-1.541,-1.541,-1.541,-1.541,-1.541,-1.5352,-1.5264,-1.355,-1.2572,-1.2443,-1.0919,-1.0147,-1.009,-1.0452,-1.0593,-1.0593,-1.0593,-1.0593,-1.0593,-1.0593,-1.0593,-1.0713,-1.2336,-1.3009,-1.3161,-1.4776,-1.541,-1.541,-1.541,-1.541,-1.541,-1.2737,-1.2589,-1.2465,-1.2744,-1.2536,-1.2305,-1.2305,-1.2305,-1.2305,-1.2305,-1.2098,-1.206,-1.2198,-1.169,-1.153,-1.2004,-1.1349,-1.1009,-1.1243,-1.0854,-1.0593,-1.0593,-1.0868,-1.1015,-1.1076,-1.1536,-1.1873,0.0,0.0,0.0,0.0,0.0,0.0,0.0,-1.6101,-1.5929,-1.5856,-1.5391,0.0,-1.4494,-1.3015,0.0,-1.31,-1.2951,-1.2993,-1.3213,-1.3213,-1.3213,-1.3173,-1.2958,-1.2797,-1.265,0.0,-1.2717,-1.3392,-1.4191,-1.5232,-1.6197,-1.6584,-1.6992,-1.7048,-1.6172,-1.6331,0.0,-1.6044,-1.5927,-1.6123,0.0,0.0,0.0,0.0,0.0,0.0,0.0,0.0,0.0,0.0,0.0,0.0,0.0,0.0,0.0,-1.541,-1.541,-1.541,-1.541,-1.541,-1.541,-1.541,-1.541,-1.5108,-1.4451,-1.3447,-1.2484,-1.1575,-1.0859,-1.0385,-1.009,-1.0452,-1.0593,-1.0593,-1.0593,-1.0593,-1.0593,-1.0593,-1.0593,-1.0713,-1.2336,-1.3009,-1.3161,-1.4776,-1.541,-1.541,-1.541,-1.541,-1.541,-1.2502,-1.2405,-1.2351,-1.2536,-1.2405,-1.2251,-1.2104,-1.2084,-1.2084,-1.2084,-1.2084,0.0,-1.2084,-1.1824,-1.1764,-1.2058,-1.155,-1.1209,-1.1209,-1.0942,-1.0747,-1.06,-1.0734,-1.0842,-1.0989,-1.1423,-1.1724,0.0,0.0,0.0,0.0,0.0,0.0,0.0,-1.6973,-1.6829,-1.6627,0.0,-1.5895,-1.5755,-1.4335,0.0,-1.3417,-1.3285,-1.3027,-1.2759,-1.2759,-1.2759,-1.2732,-1.2616,-1.2563,0.0,-1.2351,-1.2629,-1.3237,0.0,-1.5365,-1.6096,-1.7064,-1.7529,-1.7539,-1.6917,0.0,0.0,0.0,-1.5928,-1.5859,-1.6309,0.0,0.0,0.0,0.0,0.0,0.0,0.0,0.0,0.0,0.0,0.0,0.0,0.0,0.0,-1.5732,-1.5537,-1.541,-1.541,-1.541,-1.541,-1.541,-1.541,-1.5235,-1.4805,-1.4025,-1.3121,-1.216,-1.1512,-1.0906,-1.0341,-1.0519,-1.0593,-1.0593,-1.0593,-1.0593,-1.0593,-1.0593,-1.0593,-1.0713,-1.2336,-1.3009,-1.3161,-1.4776,-1.541,-1.541,-1.541,-1.541,-1.541,-1.2164,-1.2265,-1.2305,-1.2305,-1.2305,-1.2225,-1.2027,-1.1986,-1.1986,0.0,0.0,0.0,0.0,0.0,-1.1946,-1.2067,-1.171,-1.1436,-1.1256,-1.1196,-1.1062,-1.0774,-1.076,-1.0841,-1.0989,-1.1499,-1.1874,-1.2094,0.0,0.0,0.0,0.0,0.0,0.0,0.0,0.0,0.0,0.0,0.0,-1.6819,0.0,-1.4914,-1.3673,-1.3491,-1.3019,-1.246,-1.2406,-1.2317,-1.2218,-1.2218,-1.2258,-1.2305,-1.2305,-1.2409,0.0,0.0,0.0,-1.5834,0.0,0.0,-1.7891,-1.7383,0.0,-1.6668,0.0,0.0,0.0,-1.5909,0.0,0.0,0.0,0.0,0.0,0.0,0.0,0.0,0.0,0.0,0.0,0.0,0.0,0.0,-1.6222,-1.5791,-1.5498,-1.542,-1.541,-1.541,-1.541,-1.541,-1.541,-1.541,-1.4628,-1.3816,-1.3009,-1.2205,-1.1406,-1.0593,-1.0593,-1.0593,-1.0593,-1.0593,-1.0593,-1.0593,-1.0593,-1.0593,-1.0713,-1.2336,-1.3009,-1.3161,-1.4776,-1.541,-1.541,-1.541,-1.541,-1.541,-1.1899,-1.2124,-1.2305,-1.2305,-1.2305,-1.2291,-1.2258,-1.2251,-1.2251,0.0,0.0,0.0,0.0,0.0,0.0,0.0,0.0,0.0,-1.2138,-1.1946,-1.1637,-1.1302,-1.1295,-1.1223,-1.0995,-1.2382,-1.2984,-1.28,0.0,0.0,0.0,0.0,-1.7876,-1.7939,-1.7988,0.0,0.0,0.0,-1.7828,0.0,-1.7725,-1.6088,0.0,-1.2776,-1.2675,-1.2974,-1.2723,-1.2353,-1.1953,0.0,-1.2091,-1.2305,0.0,-1.2879,-1.3745,-1.4879,0.0,0.0,0.0,0.0,0.0,0.0,-1.7061,0.0,0.0,0.0,-1.5919,-1.5557,0.0,0.0,0.0,0.0,0.0,0.0,0.0,0.0,0.0,0.0,0.0,0.0,0.0,0.0,0.0,-1.625,-1.586,-1.5439,-1.541,-1.541,-1.541,-1.541,-1.541,-1.541,-1.4628,-1.3816,-1.3009,-1.2205,-1.1406,-1.0593,-1.0593,-1.0593,-1.0593,-1.0593,-1.0593,-1.0593,-1.0593,-1.0593,-1.0713,-1.2336,-1.3009,-1.3161,-1.4776,-1.541,-1.541,-1.541,-1.541,-1.541,-1.1846,-1.2104,-1.2305,-1.2305,-1.2305,-1.2245,-1.2078,-1.2191,-1.2178,0.0,0.0,0.0,0.0,0.0,0.0,0.0,0.0,-1.2395,0.0,0.0,-1.1911,-1.1415,-1.1389,-1.1478,-1.1689,-1.2535,-1.3146,-1.3594,-1.534,0.0,0.0,0.0,-1.8008,-1.8008,-1.8008,0.0,-1.8008,0.0,-1.7871,0.0,0.0,0.0,0.0,-1.4555,-1.4034,-1.3564,-1.3449,-1.3261,-1.307,0.0,-1.3281,0.0,0.0,0.0,0.0,-1.572,0.0,0.0,0.0,0.0,0.0,0.0,0.0,0.0,-1.5918,0.0,-1.5635,0.0,0.0,0.0,0.0,0.0,0.0,0.0,0.0,0.0,0.0,0.0,0.0,0.0,0.0,0.0,0.0,0.0,0.0,0.0,-1.5557,-1.541,-1.541,-1.541,-1.541,-1.541,-1.5079,-1.451,-1.3696,-1.2909,-1.2081,-1.1288,-1.0839,-1.0593,-1.0593,-1.0593,-1.0593,-1.0593,-1.0593,-1.0593,-1.0713,-1.2336,-1.3009,-1.3161,-1.4776,-1.541,-1.541,-1.541,-1.541,-1.541,-1.1866,-1.2104,-1.2305,-1.2305,-1.2305,-1.2231,-1.206,-1.2164,-1.2151,-1.1688,0.0,0.0,-1.2074,-1.2178,0.0,0.0,-1.2911,-1.2851,0.0,0.0,-1.2358,-1.1895,-1.1715,-1.1937,-1.2602,-1.3112,-1.3799,-1.4662,-1.5878,0.0,0.0,0.0,-1.7881,-1.7633,0.0,-1.7949,-1.7842,0.0,-1.7832,-1.7545,-1.7129,-1.6652,-1.6083,-1.5843,-1.4901,-1.3794,-1.3923,-1.3883,-1.377,-1.377,-1.4007,0.0,-1.4334,0.0,-1.5531,0.0,0.0,0.0,-1.7799,0.0,0.0,0.0,0.0,0.0,0.0,0.0,0.0,0.0,0.0,0.0,0.0,0.0,0.0,0.0,0.0,0.0,0.0,0.0,0.0,0.0,0.0,0.0,0.0,0.0,0.0,0.0,0.0,-1.541,-1.541,-1.541,-1.541,-1.541,-1.541,-1.5021,-1.4213,-1.3394,-1.2604,-1.1795,-1.0989,-1.0593,-1.0593,-1.0593,-1.0593,-1.0593,-1.0593,-1.0593,-1.0713,-1.2336,-1.3009,-1.3161,-1.4776,-1.541,-1.541,-1.541,-1.541,-1.541,-1.1899,-1.2104,0.0,-1.2305,-1.2305,-1.2298,-1.2291,-1.2291,-1.2291,-1.2278,0.0,0.0,0.0,0.0,0.0,0.0,0.0,-1.3273,-1.354,0.0,-1.3173,-1.3153,-1.2585,-1.2698,-1.3621,-1.4633,-1.5402,-1.6045,-1.7307,-1.775,0.0,0.0,0.0,0.0,-1.7603,-1.7783,-1.7432,-1.7842,-1.8008,-1.7988,-1.7964,-1.7434,-1.659,0.0,-1.4513,-1.3481,-1.3991,0.0,0.0,-1.3435,-1.3639,0.0,0.0,0.0,0.0,0.0,0.0,0.0,0.0,0.0,0.0,-1.6824,0.0,0.0,0.0,0.0,-1.5527,0.0,0.0,0.0,0.0,0.0,-1.541,-1.541,0.0,0.0,0.0,0.0,0.0,0.0,0.0,0.0,0.0,0.0,0.0,0.0,-1.542,0.0,-1.541,-1.541,-1.541,-1.541,-1.541,-1.5021,-1.4213,-1.3394,-1.2604,-1.1795,-1.0989,-1.0593,-1.0593,-1.0593,-1.0593,-1.0593,-1.0593,-1.0593,-1.0713,-1.2336,-1.3009,-1.3161,-1.4776,-1.541,-1.541,-1.541,-1.541,-1.541,0.0,0.0,0.0,0.0,0.0,-1.2305,-1.2305,-1.2509,-1.2563,0.0,-1.2472,0.0,0.0,-1.2305,-1.2545,0.0,0.0,-1.3293,-1.3586,-1.3513,0.0,-1.322,-1.3013,-1.3549,0.0,-1.5036,-1.5808,-1.7359,-1.7513,-1.7666,0.0,0.0,0.0,0.0,0.0,-1.7666,0.0,0.0,0.0,0.0,0.0,-1.696,-1.6597,0.0,-1.5104,-1.4754,-1.4921,-1.487,0.0,-1.4703,-1.5019,-1.5352,-1.5352,-1.586,-1.6432,-1.6432,-1.6677,-1.695,0.0,0.0,-1.6506,-1.6328,0.0,0.0,0.0,0.0,0.0,0.0,0.0,0.0,0.0,0.0,0.0,-1.541,0.0,0.0,0.0,0.0,0.0,0.0,0.0,0.0,0.0,0.0,0.0,0.0,-1.5576,0.0,0.0,-1.541,-1.541,-1.541,-1.541,-1.5264,-1.4991,-1.4213,-1.3666,-1.3386,-1.2012,-1.1375,-1.1375,-1.0832,-1.0593,-1.0624,-1.117,-1.1375,-1.1531,-1.3122,-1.3786,-1.3906,-1.4991,-1.541,-1.541,-1.541,-1.541,-1.541,-1.2024,0.0,0.0,0.0,0.0,-1.2425,-1.2318,-1.2465,0.0,0.0,-1.2509,0.0,-1.2325,0.0,-1.2505,0.0,-1.3146,-1.3293,-1.3586,-1.36,0.0,-1.3527,-1.332,-1.3892,0.0,0.0,-1.617,-1.7625,-1.7755,-1.7734,0.0,0.0,0.0,0.0,0.0,-1.7529,-1.7803,0.0,-1.7852,0.0,0.0,-1.6833,0.0,0.0,-1.5547,-1.541,0.0,-1.541,-1.541,-1.541,-1.5596,-1.586,-1.586,-1.6133,-1.6494,-1.6494,-1.6494,-1.6533,-1.6658,-1.6406,0.0,-1.6095,-1.588,0.0,-1.5644,0.0,-1.5771,0.0,0.0,0.0,0.0,0.0,0.0,0.0,-1.541,0.0,0.0,-1.541,0.0,0.0,0.0,0.0,0.0,0.0,-1.5997,-1.6279,-1.5889,0.0,0.0,0.0,-1.5566,-1.542,-1.541,-1.541,-1.541,-1.4599,-1.4213,-1.4183,-1.2565,-1.1803,-1.1772,-1.1257,-1.1021,-1.1076,-1.1872,-1.2235,-1.232,-1.3657,-1.4213,-1.4273,-1.5079,-1.541,-1.541,-1.541,-1.541,-1.541,-1.2325,0.0,0.0,0.0,-1.2797,0.0,0.0,0.0,-1.2305,0.0,-1.2305,-1.2305,-1.2305,-1.2305,-1.2418,-1.2757,-1.3019,-1.3273,-1.356,-1.3593,0.0,0.0,-1.354,-1.3853,-1.512,0.0,0.0,0.0,-1.8064,-1.7925,0.0,0.0,0.0,0.0,-1.7044,0.0,-1.7441,-1.7842,-1.7998,-1.7939,-1.7519,-1.709,-1.6619,-1.6232,-1.5801,-1.541,-1.541,-1.541,-1.541,-1.541,-1.541,-1.541,-1.541,-1.5693,-1.6065,-1.6065,-1.6065,-1.6153,-1.6521,-1.6357,-1.6065,-1.6065,-1.6065,0.0,0.0,0.0,-1.6183,0.0,0.0,0.0,0.0,0.0,0.0,0.0,0.0,0.0,0.0,0.0,0.0,0.0,0.0,0.0,0.0,0.0,-1.5742,-1.6609,-1.6339,0.0,0.0,0.0,-1.5909,-1.5459,-1.542,-1.541,-1.541,-1.4628,-1.4273,-1.4243,-1.2687,-1.1927,-1.1927,-1.1896,-1.1865,-1.1896,-1.2696,-1.307,-1.313,-1.3944,-1.4273,-1.4332,-1.5108,-1.541,-1.541,-1.541,-1.541,-1.541,-1.267,-1.3053,-1.3347,0.0,-1.2938,-1.2757,0.0,0.0,0.0,0.0,-1.2305,-1.2305,-1.2305,-1.2305,-1.2418,-1.2757,-1.2857,0.0,0.0,0.0,0.0,-1.3713,-1.3828,-1.4421,-1.5535,-1.5897,-1.6527,-1.752,0.0,0.0,-1.7642,0.0,0.0,0.0,0.0,0.0,-1.7852,-1.7969,-1.7832,-1.751,-1.707,-1.6631,-1.6191,0.0,-1.5508,-1.541,-1.541,-1.541,-1.541,-1.541,-1.541,-1.541,-1.541,-1.5488,-1.5576,-1.5576,-1.5576,-1.5605,-1.5723,-1.5664,-1.5576,-1.5576,-1.5576,-1.5576,0.0,0.0,0.0,0.0,0.0,0.0,0.0,0.0,0.0,0.0,0.0,0.0,0.0,0.0,0.0,-1.541,0.0,0.0,-1.5566,-1.5478,-1.5644,-1.6222,-1.6163,0.0,0.0,0.0,0.0,-1.5928,-1.5586,-1.541,-1.541,-1.5196,-1.5079,-1.5079,-1.4085,-1.3567,-1.3567,-1.297,-1.2696,-1.2726,-1.3545,-1.3876,-1.3936,-1.4746,-1.5079,-1.5108,-1.5323,-1.541,-1.541,-1.541,-1.541,-1.541,-1.2985,0.0,0.0,-1.3601,0.0,0.0,-1.2804,-1.2643,0.0,-1.2318,-1.2305,0.0,-1.2305,-1.2305,-1.2371,-1.2576,-1.271,0.0,-1.3038,0.0,0.0,-1.3413,-1.3614,-1.4275,-1.5487,-1.5904,0.0,-1.771,0.0,0.0,-1.7725,0.0,0.0,0.0,0.0,-1.7617,0.0,-1.8008,-1.7764,-1.7396,-1.7119,-1.6631,0.0,-1.5821,-1.5576,-1.541,-1.541,-1.541,-1.541,-1.541,-1.541,-1.541,-1.541,-1.541,-1.541,-1.541,-1.541,-1.541,-1.541,-1.541,-1.541,-1.541,-1.541,-1.5459,-1.5654,-1.5693,-1.5762,0.0,-1.5899,-1.5713,0.0,0.0,0.0,0.0,0.0,0.0,0.0,0.0,0.0,0.0,-1.541,0.0,-1.541,-1.541,-1.5674,-1.6309,-1.6357,0.0,0.0,0.0,0.0,-1.6105,-1.5635,-1.541,-1.541,-1.541,-1.5322,-1.5137,-1.431,-1.3931,-1.3922,-1.3249,-1.3147,-1.3567,-1.418,-1.4558,-1.4746,-1.5196,-1.541,-1.541,-1.541,-1.541,-1.541,-1.541,-1.541,-1.541,-1.332,0.0,0.0,0.0,0.0,0.0,0.0,-1.2777,0.0,-1.2338,0.0,-1.2305,-1.2305,-1.2305,-1.2305,-1.2305,0.0,-1.2723,-1.2723,-1.2979,-1.3153,-1.3153,-1.3186,-1.3852,-1.529,-1.5878,-1.669,0.0,-1.8245,-1.8149,0.0,0.0,0.0,0.0,0.0,0.0,0.0,-1.8008,-1.7734,-1.7305,-1.7305,-1.6799,-1.6007,-1.6007,-1.5772,-1.541,-1.541,-1.541,-1.541,-1.541,-1.541,-1.541,-1.541,-1.541,-1.541,-1.541,-1.541,-1.541,-1.541,-1.541,-1.541,-1.541,-1.541,-1.5508,-1.5919,-1.6007,-1.5987,-1.5938,-1.5968,-1.588,0.0,0.0,0.0,0.0,0.0,0.0,0.0,0.0,0.0,0.0,0.0,0.0,0.0,-1.541,-1.5722,-1.6551,-1.6609,0.0,0.0,0.0,0.0,-1.6105,-1.5635,-1.541,-1.541,0.0,-1.5225,-1.4863,-1.4119,-1.375,-1.3732,-1.3322,-1.3567,-1.43,-1.4706,-1.5078,-1.541,-1.541,-1.541,-1.541,-1.541,-1.541,-1.541,-1.541,-1.541,-1.541,-1.3888,0.0,0.0,0.0,0.0,-1.3427,-1.3173,-1.2705,-1.2365,-1.2311,-1.2305,-1.2305,-1.2305,-1.2305,-1.2305,-1.2305,-1.2351,0.0,0.0,0.0,0.0,-1.2864,-1.3073,-1.3852,-1.529,-1.5878,-1.669,-1.771,-1.796,-1.8047,-1.7891,0.0,0.0,0.0,0.0,0.0,-1.8008,-1.8008,0.0,-1.6814,-1.6814,-1.6287,-1.5527,-1.5527,-1.5478,-1.541,-1.541,-1.541,-1.541,-1.541,-1.541,-1.541,-1.541,-1.541,-1.541,-1.541,-1.541,-1.541,-1.541,-1.541,-1.541,-1.541,-1.541,-1.543,-1.5508,-1.5527,-1.543,-1.5107,-1.5283,-1.54,-1.4971,0.0,0.0,0.0,0.0,0.0,0.0,0.0,0.0,0.0,0.0,-1.541,0.0,-1.541,-1.5625,-1.6173,0.0,0.0,0.0,0.0,0.0,0.0,-1.5635,0.0,0.0,0.0,-1.5342,-1.5293,-1.4828,-1.4589,-1.458,-1.4502,-1.4551,-1.4705,-1.5128,-1.5342,-1.541,-1.541,-1.541,-1.541,-1.541,-1.541,-1.541,-1.541,-1.541,-1.541,0.0,0.0,0.0,0.0,0.0,0.0,0.0,-1.2592,-1.2305,-1.2305,-1.2305,-1.2305,-1.2305,-1.2305,-1.2305,-1.2305,-1.2305,-1.2305,-1.2305,-1.2438,-1.2556,-1.2556,-1.2659,-1.3404,-1.4818,-1.5594,-1.6476,-1.7432,-1.8033,-1.8188,-1.8008,0.0,0.0,0.0,0.0,-1.8008,0.0,0.0,0.0,-1.6697,-1.6697,-1.6171,-1.541,-1.541,-1.541,-1.541,-1.541,-1.541,-1.541,-1.541,-1.541,-1.541,-1.541,-1.541,-1.541,-1.541,-1.541,-1.541,-1.541,-1.541,-1.541,-1.541,-1.5244,-1.5088,-1.5088,-1.4912,-1.466,-1.4492,-1.4582,-1.4728,-1.4775,-1.5127,0.0,0.0,0.0,0.0,0.0,0.0,-1.541,0.0,0.0,0.0,0.0,0.0,0.0,0.0,0.0,0.0,0.0,0.0,0.0,0.0,0.0,0.0,0.0,0.0,0.0,-1.5078,-1.4648,-1.4453,-1.4434,-1.3994,-1.4187,-1.4813,-1.4756,-1.4972,-1.541,-1.541,-1.541,-1.541,-1.541,-1.541,-1.541,-1.541,-1.5642,-1.5979,0.0,-1.4041,0.0,0.0,-1.3307,0.0,-1.2817,-1.2529,-1.2305,-1.2305,-1.2305,-1.2305,-1.2305,-1.2305,-1.2305,-1.2305,-1.2305,-1.2305,-1.2305,-1.2305,-1.2305,-1.2305,-1.2305,-1.2952,-1.4381,-1.5189,-1.6037,0.0,-1.7929,-1.8203,0.0,-1.7944,-1.8008,-1.8008,0.0,0.0,0.0,0.0,-1.7535,-1.6833,-1.6736,-1.6229,-1.5537,-1.5449,-1.541,-1.541,-1.541,-1.541,-1.541,-1.541,-1.541,-1.541,-1.541,-1.541,-1.541,-1.541,-1.541,-1.541,-1.541,-1.541,-1.5391,-1.5303,-1.5029,-1.4756,-1.4668,-1.4385,-1.4085,-1.3997,-1.3977,-1.4133,-1.4687,-1.5049,0.0,0.0,0.0,0.0,0.0,0.0,0.0,0.0,0.0,0.0,-1.541,0.0,0.0,0.0,0.0,0.0,-1.5958,0.0,0.0,0.0,0.0,-1.5371,-1.5283,0.0,-1.5068,-1.4648,-1.4182,-1.3977,-1.3948,-1.3311,-1.3613,-1.4629,-1.4385,-1.4679,-1.541,-1.541,-1.541,-1.541,-1.541,-1.541,-1.541,-1.541,-1.5864,-1.651,0.0,0.0,0.0,0.0,0.0,0.0,-1.279,-1.2529,-1.2305,-1.2305,-1.2305,-1.2305,-1.2305,-1.2305,-1.2305,-1.2305,-1.2305,-1.2305,-1.2305,-1.2305,-1.2305,-1.2305,-1.2305,-1.2952,-1.4381,-1.4714,-1.5349,0.0,0.0,-1.756,0.0,-1.7726,-1.8008,-1.8008,0.0,0.0,0.0,-1.8008,-1.7744,-1.7285,-1.6863,-1.6436,-1.5987,-1.5557,-1.541,-1.541,-1.541,-1.541,-1.541,-1.541,-1.541,-1.541,-1.541,-1.541,-1.541,-1.541,-1.541,-1.541,-1.541,-1.541,-1.5322,-1.4941,-1.4842,-1.4678,-1.426,-1.4133,-1.3997,-1.3617,-1.3564,-1.3818,-1.4666,-1.4814,-1.4971,0.0,0.0,0.0,0.0,0.0,-1.541,-1.541,0.0,0.0,0.0,-1.541,0.0,0.0,-1.5449,0.0,0.0,0.0,0.0,-1.5469,0.0,-1.5225,-1.4844,-1.4872,-1.4619,-1.4163,-1.3743,-1.3564,-1.3539,-1.3486,-1.3721,-1.4192,-1.457,-1.498,-1.541,-1.541,-1.541,-1.541,-1.541,-1.541,-1.541,-1.541,-1.5864,-1.6595,0.0,0.0,0.0,0.0,0.0,0.0,0.0,-1.2378,-1.2305,-1.2305,-1.2305,-1.2305,-1.2305,-1.2305,-1.2305,-1.2305,-1.2305,-1.2305,-1.2305,-1.2305,-1.2305,-1.2305,-1.2305,-1.2573,-1.3135,-1.4227,-1.479,0.0,0.0,0.0,-1.6793,-1.7596,-1.8008,-1.8008,0.0,-1.8008,-1.8008,-1.8008,-1.7617,-1.6973,-1.6775,-1.6309,-1.5654,-1.5478,-1.541,-1.541,-1.541,-1.541,-1.541,-1.541,-1.541,-1.541,-1.541,-1.541,-1.541,-1.541,-1.541,-1.541,-1.541,-1.541,-1.5371,-1.5205,-1.4775,-1.4319,-1.4143,-1.3724,-1.334,-1.3164,-1.333,-1.3613,-1.3955,-1.4434,-1.4844,-1.501,0.0,0.0,0.0,0.0,0.0,-1.541,0.0,-1.541,0.0,0.0,0.0,0.0,0.0,-1.5527,-1.5821,-1.5557,0.0,-1.5791,0.0,-1.5215,-1.4785,-1.4813,-1.4561,-1.4104,-1.3685,-1.3506,-1.3496,-1.3242,-1.3496,-1.4143,-1.4863,-1.5254,-1.541,-1.541,-1.541,-1.5439,-1.5892,-1.6065,-1.6112,-1.6557,-1.7191,-1.7841,-1.3133,0.0,-1.2979,0.0,-1.2656,-1.2583,-1.2338,-1.2305,-1.2305,-1.2305,-1.2305,-1.2305,-1.2305,-1.2305,-1.2305,-1.2305,-1.2305,-1.2305,-1.2305,-1.2305,-1.2305,-1.2305,-1.2305,0.0,-1.2305,-1.3845,-1.4351,-1.3851,-1.6292,0.0,-1.6739,-1.7611,-1.8008,0.0,-1.8008,-1.8008,-1.8008,-1.8008,-1.7588,-1.6882,-1.6755,-1.6248,-1.5586,-1.5459,-1.541,-1.541,-1.541,-1.541,-1.541,-1.541,-1.541,-1.541,-1.541,-1.541,-1.541,-1.541,-1.541,-1.541,-1.541,-1.541,-1.5352,-1.5069,-1.4552,-1.4046,-1.3792,-1.3311,-1.2905,-1.2905,-1.314,-1.3359,-1.3486,-1.4102,-1.4639,-1.4793,0.0,0.0,0.0,-1.541,0.0,-1.541,-1.541,-1.541,-1.541,-1.541,0.0,0.0,0.0,-1.5547,-1.5889,-1.5576,0.0,0.0,0.0,0.0,-1.46,-1.459,-1.4316,-1.3734,-1.3467,-1.332,-1.332,-1.3271,-1.3549,-1.4153,-1.5011,-1.541,-1.541,-1.541,-1.5526,-1.5748,-1.6065,-1.6425,-1.6866,-1.7174,-1.7879,-1.8688,-1.2851,-1.279,-1.2697,-1.2358,-1.2305,-1.2305,-1.2305,-1.2305,-1.2305,-1.2305,-1.2305,-1.2305,-1.2305,-1.2305,-1.2305,-1.2305,-1.2305,-1.2305,-1.2305,-1.2305,-1.2305,0.0,0.0,-1.2305,-1.2305,-1.3554,-1.4201,-1.4201,0.0,0.0,-1.7027,-1.7666,-1.8008,-1.8008,-1.8008,-1.8008,-1.8008,-1.8008,-1.7764,-1.7334,-1.6904,-1.6465,-1.6036,-1.5576,-1.541,-1.541,-1.541,-1.541,-1.541,-1.541,-1.541,-1.541,-1.541,-1.541,-1.541,-1.541,-1.541,-1.541,-1.541,-1.541,-1.5176,-1.4328,-1.4114,-1.389,-1.3111,-1.2915,-1.2905,-1.2905,-1.2905,-1.3042,-1.3437,-1.3831,-1.425,-1.4717,0.0,0.0,0.0,-1.541,0.0,-1.541,-1.541,-1.541,-1.541,-1.541,0.0,0.0,0.0,-1.541,-1.542,0.0,0.0,-1.542,-1.541,0.0,-1.4124,-1.4114,-1.3695,-1.2925,-1.2915,-1.2915,-1.2935,-1.374,-1.4094,-1.4153,-1.5011,-1.541,-1.541,-1.541,-1.5835,-1.6436,-1.569,-1.6301,-1.7495,-1.6793,-1.744,-1.8688,-1.2536,-1.2445,-1.2412,-1.2318,-1.2305,-1.2305,-1.2305,-1.2305,-1.2305,-1.2305,-1.2305,-1.2305,-1.2305,-1.2305,-1.2305,0.0,-1.2305,-1.2305,0.0,-1.2305,-1.2305,-1.2305,-1.2305,-1.2305,-1.2305,-1.2924,-1.3468,-1.3866,0.0,0.0,0.0,-1.7895,-1.8008,-1.8008,-1.8008,-1.7852,-1.7578,-1.7578,-1.7158,-1.6506,-1.6369,-1.6016,-1.5605,-1.5469,-1.541,-1.541,-1.541,-1.541,-1.541,-1.541,-1.541,-1.541,-1.541,-1.541,-1.541,-1.541,-1.541,-1.541,-1.541,-1.541,-1.5283,-1.4717,-1.4328,-1.3968,-1.3437,-1.3111,-1.2905,-1.2905,-1.2905,-1.2944,-1.3057,-1.3627,-1.4153,-1.4289,-1.4941,0.0,-1.541,0.0,-1.541,-1.541,-1.541,-1.541,-1.541,-1.541,0.0,0.0,0.0,0.0,0.0,0.0,0.0,0.0,-1.5566,0.0,-1.4114,-1.4434,-1.415,-1.3311,-1.3603,-1.3714,-1.3724,-1.4316,-1.458,-1.4609,-1.5166,-1.541,-1.541,-1.541,-1.5835,-1.6521,-1.681,-1.7484,-1.8382,-1.8661,-1.9044,-1.9449,-1.2338,-1.2305,-1.2305,-1.2305,-1.2305,-1.2305,-1.2305,-1.2305,-1.2305,-1.2305,-1.2305,-1.2305,-1.2305,-1.2305,0.0,-1.2305,-1.2305,-1.2305,-1.2305,-1.2305,-1.2305,-1.2305,-1.2305,-1.2305,-1.2305,-1.2852,0.0,-1.3709,-1.5242,-1.6493,-1.7467,-1.7828,-1.8008,-1.8008,-1.7842,-1.7627,-1.7406,-1.7207,-1.6728,-1.6095,-1.6095,-1.5831,-1.541,-1.541,-1.541,-1.541,-1.541,-1.541,-1.541,-1.541,-1.541,-1.541,-1.541,-1.541,-1.541,-1.541,-1.541,-1.541,-1.541,-1.541,-1.5312,-1.4893,-1.4463,-1.3958,-1.3408,-1.3066,-1.2905,-1.2905,-1.2905,-1.2954,-1.3111,-1.3646,-1.4163,-1.4328,-1.4961,-1.541,-1.541,0.0,-1.541,0.0,0.0,0.0,0.0,-1.541,-1.541,0.0,0.0,0.0,0.0,0.0,0.0,-1.584,-1.54,-1.4912,-1.4385,-1.4492,-1.4268,-1.3724,-1.3977,-1.4104,-1.4124,-1.459,-1.4813,-1.4805,-1.5234,-1.541,-1.541,-1.541,-1.5997,-1.6922,-1.7118,-1.7988,-1.915,-1.9307,-1.9553,-1.9798,-1.2305,-1.2305,-1.2305,0.0,-1.2305,0.0,-1.2305,-1.2305,-1.2305,-1.2305,-1.2305,-1.2305,-1.2305,-1.2305,-1.2305,-1.2305,0.0,0.0,0.0,-1.2305,-1.2305,-1.2305,-1.2305,-1.2305,-1.2305,-1.3164,-1.3637,-1.3709,-1.5579,-1.6532,-1.6636,-1.7501,-1.794,-1.7988,-1.7568,-1.7363,-1.7314,-1.6875,-1.6426,-1.6046,-1.6046,-1.5801,-1.541,-1.541,-1.541,-1.541,-1.541,-1.541,-1.541,-1.541,-1.541,-1.541,-1.541,-1.541,-1.541,-1.541,-1.541,-1.541,-1.541,-1.541,-1.5312,-1.4893,-1.4463,-1.3899,-1.3105,-1.2954,-1.2935,-1.2915,-1.2925,-1.3071,-1.3437,-1.3851,-1.428,-1.4717,-1.5137,-1.541,-1.541,-1.541,-1.541,0.0,0.0,0.0,-1.541,-1.541,-1.541,0.0,0.0,0.0,0.0,0.0,-1.541,-1.541,-1.5029,-1.4842,-1.4813,-1.4387,-1.4192,-1.4192,-1.4192,-1.4192,-1.4211,-1.4639,-1.4834,-1.4844,-1.5244,-1.541,-1.541,-1.541,-1.6273,-1.7523,-1.6838,-1.7895,-1.9721,-1.9044,-1.9202,-1.9798,0.0,0.0,-1.2305,-1.2305,-1.2305,-1.2305,-1.2305,-1.2305,-1.2305,-1.2305,-1.2305,-1.2305,-1.2305,-1.2305,-1.2305,-1.2305,-1.2305,-1.2305,-1.2305,-1.2305,-1.2305,-1.2305,-1.2305,-1.2305,-1.2305,-1.2519,-1.2989,-1.3709,-1.4914,-1.5895,-1.6602,-1.6819,-1.732,-1.7988,-1.7568,-1.7197,-1.6824,-1.6416,-1.5967,-1.5566,-1.5566,-1.5508,-1.541,-1.541,-1.541,-1.541,-1.541,-1.541,-1.541,-1.541,-1.541,-1.541,-1.541,-1.541,-1.541,-1.541,-1.541,-1.541,-1.541,-1.541,-1.5312,-1.4893,-1.4463,-1.3968,-1.3477,-1.3359,-1.3271,-1.2949,-1.3135,-1.3389,-1.3486,-1.4121,-1.4668,-1.4766,-1.5137,-1.541,-1.541,-1.541,-1.541,0.0,-1.541,-1.541,-1.541,-1.541,-1.541,0.0,0.0,0.0,-1.541,-1.541,-1.541,-1.541,-1.5312,-1.5107,-1.4785,-1.5,-1.5079,-1.5079,-1.5079,-1.5079,-1.5089,-1.5215,-1.5264,-1.5264,-1.5371,-1.541,-1.541,-1.541,-1.6273,-1.7578,-1.7413,-1.834,-1.9773,-1.9605,-1.9643,-1.9798,-1.2224,-1.2305,-1.2305,-1.2305,-1.2305,-1.2305,-1.2305,-1.2305,-1.2305,-1.2305,-1.2305,-1.2305,-1.2305,-1.2305,-1.2305,-1.2305,-1.2305,-1.2305,-1.2305,-1.2305,-1.2305,-1.2305,-1.2305,-1.2305,-1.2305,-1.2305,-1.2556,-1.3062,-1.4027,-1.4772,-1.5296,-1.6175,-1.6888,-1.737,-1.7156,-1.6953,-1.6658,-1.6035,-1.5625,-1.541,-1.541,-1.541,-1.541,-1.541,-1.541,-1.541,-1.541,-1.541,-1.541,-1.541,-1.541,-1.541,-1.541,-1.541,-1.541,-1.541,-1.541,-1.541,-1.541,-1.541,-1.5312,-1.4893,-1.4609,-1.4268,-1.3652,-1.3506,-1.3447,-1.3213,-1.335,-1.3633,-1.4014,-1.4473,-1.4844,-1.5039,-1.5264,-1.541,-1.541,-1.541,-1.541,-1.541,-1.541,-1.541,-1.541,-1.541,-1.541,-1.541,-1.541,0.0,-1.541,-1.541,-1.541,-1.541,-1.5225,-1.5107,-1.5068,-1.5293,-1.541,-1.541,-1.541,-1.541,-1.541,-1.541,-1.541,-1.541,-1.541,-1.5584,-1.5892,-1.5892,-1.6771,-1.8085,-1.8085,-1.8794,-1.9798,-1.9798,-1.9798,-1.9798,-1.215,-1.2305,-1.2305,-1.2305,-1.2305,-1.2305,-1.2305,-1.2305,-1.2305,-1.2305,-1.2305,-1.2305,-1.2305,-1.2305,-1.2305,-1.2305,-1.2305,-1.2305,-1.2305,-1.2305,-1.2305,-1.2305,-1.2305,-1.2305,-1.2305,-1.2305,-1.2305,-1.2305,-1.3098,-1.3564,-1.3745,-1.5403,-1.6245,-1.6392,-1.6529,-1.6593,-1.6536,-1.5866,-1.5615,-1.5615,-1.5615,-1.5566,-1.5508,-1.5508,-1.5469,-1.541,-1.541,-1.541,-1.541,-1.541,-1.541,-1.541,-1.541,-1.541,-1.541,-1.541,-1.541,-1.541,-1.541,-1.541,-1.5322,-1.4971,-1.4883,-1.4678,-1.3877,-1.3701,-1.3682,-1.3613,-1.3652,-1.3916,-1.4648,-1.4834,-1.5,-1.5352,-1.541,-1.541,-1.541,0.0,-1.541,-1.541,-1.541,-1.541,-1.541,-1.541,-1.541,-1.541,-1.541,-1.541,-1.541,-1.541,-1.541,-1.541,-1.5068,-1.5049,-1.541,-1.541,-1.541,-1.541,-1.541,-1.541,-1.541,-1.541,-1.541,-1.541,-1.5526,-1.5921,-1.651,-1.6624,-1.7468,-1.8688,-1.8688,-1.915,-1.9798,-1.9798,-1.9798,-1.9798,-1.2268,-1.2305,-1.2305,-1.2305,-1.2305,-1.2305,-1.2305,-1.2305,-1.2305,-1.2305,-1.2305,-1.2305,-1.2305,-1.2305,-1.2305,-1.2305,-1.2305,-1.2305,-1.2305,-1.2305,-1.2305,-1.2305,-1.2305,-1.2305,-1.2305,-1.2305,-1.2305,-1.2305,-1.2445,-1.2915,-1.3709,-1.4027,-1.4593,-1.5421,-1.5844,-1.6015,-1.6054,-1.636,-1.6492,-1.6492,-1.6492,-1.6299,-1.5987,-1.5987,-1.5762,-1.541,-1.541,-1.541,-1.541,-1.541,-1.541,-1.541,-1.541,-1.541,-1.541,-1.541,-1.541,-1.541,-1.541,-1.541,-1.54,-1.5332,-1.5312,-1.5186,-1.4697,-1.459,-1.4482,-1.4085,-1.4326,-1.4629,-1.4793,-1.5078,-1.5342,-1.54,-1.541,-1.541,-1.541,0.0,-1.541,-1.541,-1.541,-1.541,-1.541,-1.541,-1.541,-1.541,-1.541,-1.541,-1.541,-1.541,-1.541,-1.541,-1.5352,-1.5342,-1.541,-1.541,-1.541,-1.541,-1.541,-1.541,-1.541,-1.541,-1.541,-1.5439,-1.6065,-1.6407,-1.6539,-1.7163,-1.7934,-1.8688,-1.8688,-1.915,-1.9798,-1.9798,-1.9798,-1.9798,-1.2187,-1.2178,-1.2118,-1.2271,-1.2171,-1.2124,-1.2278,-1.2305,-1.2305,-1.2305,-1.2305,-1.2305,-1.2305,-1.2164,-1.2064,-1.2064,-1.1924,-1.183,-1.183,-1.2124,-1.2305,-1.2305,-1.2305,-1.2305,-1.2305,-1.2305,-1.2305,-1.2305,-1.2305,-1.2519,-1.2952,-1.3455,-1.3954,-1.4399,-1.4913,-1.5425,-1.5902,-1.5924,-1.6233,-1.6697,-1.6697,-1.6465,-1.6095,-1.6095,-1.5821,-1.541,-1.541,-1.541,-1.541,-1.541,-1.541,-1.541,-1.541,-1.541,-1.541,-1.541,-1.541,-1.541,-1.541,-1.541,-1.541,-1.541,-1.541,-1.5303,-1.4883,-1.4813,-1.4727,-1.4521,-1.4648,-1.4882,-1.5078,-1.5283,-1.541,-1.541,-1.541,0.0,-1.541,-1.541,-1.541,-1.541,-1.541,-1.5322,-1.5098,-1.5078,-1.4971,-1.4708,-1.4699,-1.4699,-1.4699,-1.4941,-1.5078,-1.5078,-1.5293,-1.541,-1.541,-1.541,-1.541,-1.541,-1.541,-1.541,-1.541,-1.5806,-1.5979,-1.6036,-1.6782,-1.7302,-1.7715,-1.8058,-1.8635,-1.9281,-1.9281,-1.9501,-1.9798,-1.9798,-1.9798,-1.9798,-1.1721,-1.1873,-1.1953,-1.2071,-1.1971,-1.198,-1.2171,-1.2258,-1.2305,-1.2305,-1.2305,-1.2305,-1.2305,-1.2104,-1.2007,-1.2007,-1.1697,-1.153,-1.153,-1.1884,-1.2098,-1.2098,-1.2164,-1.2231,-1.2305,-1.2305,-1.2305,-1.2305,-1.2305,-1.2305,-1.2335,-1.3025,-1.3491,-1.373,-1.4385,-1.5189,-1.6046,-1.5957,-1.6346,-1.6999,-1.6999,-1.6709,-1.6251,-1.6251,-1.5879,-1.541,-1.541,-1.541,-1.541,-1.541,-1.541,-1.541,-1.541,-1.541,-1.541,-1.541,-1.541,-1.541,-1.541,-1.541,-1.541,-1.541,-1.541,-1.5322,-1.5,-1.4932,-1.4932,-1.4932,-1.4932,-1.5029,-1.5352,-1.541,-1.541,-1.541,0.0,-1.541,-1.541,-1.541,-1.541,-1.541,-1.5322,-1.5137,-1.4842,-1.4687,-1.4492,-1.4133,-1.4104,-1.4104,-1.4104,-1.4453,-1.4678,-1.4813,-1.5195,-1.541,-1.541,-1.541,-1.541,-1.541,-1.5584,-1.5584,-1.5439,-1.634,-1.6652,-1.6539,-1.7468,-1.8178,-1.8715,-1.8886,-1.9281,-1.9798,-1.9798,-1.9798,-1.9798,-1.9798,-1.9798,-1.9798,-1.055,-1.1257,-1.1826,-1.1536,-1.1697,-1.1913,-1.1933,-1.2131,-1.2305,-1.2305,-1.2305,-1.2305,-1.2305,-1.2285,-1.2271,-1.2271,-1.2004,-1.1873,-1.1873,-1.1617,-1.1455,-1.1455,-1.175,-1.2067,-1.2291,-1.2305,-1.2305,-1.2305,-1.2305,-1.2305,-1.2305,-1.2372,-1.2879,-1.3745,-1.4712,-1.5685,-1.6591,-1.7459,-1.7842,-1.792,-1.792,-1.7389,-1.6648,-1.6648,-1.6122,-1.541,-1.541,-1.541,-1.541,-1.541,-1.541,-1.541,-1.541,-1.541,-1.541,-1.541,-1.541,-1.541,-1.541,-1.541,-1.541,-1.541,-1.541,-1.5371,-1.5371,-1.5371,-1.5371,-1.5371,-1.5371,-1.5342,-1.5371,-1.541,-1.541,-1.541,0.0,0.0,-1.541,-1.541,-1.541,-1.541,-1.5068,-1.4814,-1.4785,-1.4424,-1.4143,-1.4104,-1.4104,-1.4104,-1.4104,-1.4133,-1.4338,-1.4803,-1.5195,-1.541,-1.541,-1.541,-1.541,-1.541,-1.6093,-1.6065,-1.5439,-1.6884,-1.7146,-1.6567,-1.8015,-1.8661,-1.8741,-1.9449,-1.9747,-1.9798,-1.9798,-1.9798,-1.9798,-1.9798,-1.9798,-1.9798,-1.029,-1.1131,-1.1866,-1.1724,-1.1832,-1.1966,-1.2111,-1.2231,-1.2305,-1.2305,-1.2305,-1.2305,-1.2305,-1.2138,-1.1957,-1.1777,-1.1496,-1.1323,-1.1323,-1.139,-1.1389,-1.1389,-1.171,-1.1953,-1.2067,-1.2204,-1.2305,-1.2305,-1.2305,-1.2305,-1.2305,-1.2305,-1.2482,-1.2879,-1.3846,-1.4807,-1.5799,-1.6715,-1.7467,-1.8008,-1.8008,-1.7467,-1.6697,-1.6697,-1.6151,-1.541,-1.541,-1.541,-1.541,-1.541,-1.541,-1.541,-1.541,-1.541,-1.541,-1.541,-1.541,-1.541,-1.541,-1.541,-1.541,-1.541,-1.541,-1.541,-1.541,-1.541,-1.541,-1.541,-1.541,-1.541,-1.541,-1.541,-1.541,-1.541,0.0,-1.541,-1.541,-1.541,-1.541,-1.541,-1.5039,-1.4678,-1.4377,-1.3968,-1.3607,-1.3379,-1.3359,-1.3359,-1.3359,-1.3821,-1.4309,-1.4803,-1.5195,-1.541,-1.541,-1.541,-1.541,-1.541,-1.569,-1.5671,-1.5439,-1.694,-1.744,-1.7246,-1.8741,-1.9385,-1.9397,-1.9683,-1.9798,-1.9798,-1.9798,-1.9798,-1.9798,-1.9798,-1.9798,-1.9798,-0.9269,-1.0367,-1.1336,-1.1294,-1.1627,-1.1973,-1.2138,-1.2245,-1.2305,-1.2305,-1.2305,-1.2305,-1.2305,-1.2124,-1.1884,-1.159,-1.1383,-1.1229,-1.1136,-1.1316,-1.1475,-1.1655,-1.181,-1.1946,-1.2004,-1.2204,-1.2305,-1.2305,-1.2305,-1.2305,-1.2305,-1.2305,-1.2445,-1.2769,-1.3419,-1.4279,-1.5269,-1.621,-1.6957,-1.7569,-1.7726,-1.7383,-1.6687,-1.6541,-1.6055,-1.541,-1.541,-1.541,-1.541,-1.541,-1.541,-1.541,-1.541,-1.541,-1.541,-1.541,-1.541,-1.541,-1.541,-1.541,-1.541,-1.541,-1.541,-1.541,-1.541,-1.541,-1.541,-1.541,-1.541,-1.541,-1.541,-1.541,-1.541,-1.541,-1.541,-1.541,-1.541,-1.541,-1.541,-1.541,-1.4912,-1.4521,-1.4328,-1.3721,-1.3242,-1.3096,-1.2983,-1.2905,-1.2905,-1.3656,-1.4241,-1.457,-1.5117,-1.541,-1.541,-1.541,-1.541,-1.541,-1.5633,-1.5613,-1.5468,-1.718,-1.7825,-1.7688,-1.915,-1.9798,-1.9798,-1.9798,-1.9798,-1.9798,-1.9798,-1.9798,-1.9798,-1.9798,-1.9798,-1.9798,-0.7298,-0.8806,-1.0037,-0.9916,-1.1026,-1.1906,-1.1906,-1.2118,-1.2305,-1.2305,-1.2305,-1.2305,-1.2305,-1.2305,-1.2184,-1.1933,-1.1906,-1.1744,-1.1415,-1.1395,-1.1655,-1.2278,-1.2024,-1.2004,-1.2291,-1.2305,-1.2305,-1.2305,-1.2305,-1.2305,-1.2305,-1.2305,-1.2806,-1.3709,-1.3709,-1.4243,-1.5269,-1.6175,-1.6602,-1.6644,-1.7164,-1.7087,-1.6658,-1.624,-1.5791,-1.541,-1.541,-1.541,-1.541,-1.541,-1.541,-1.541,-1.541,-1.541,-1.541,-1.541,-1.541,-1.541,-1.541,-1.541,-1.541,-1.541,-1.541,-1.541,-1.541,-1.541,-1.541,-1.541,-1.541,-1.541,-1.541,-1.541,-1.541,-1.541,-1.541,-1.541,-1.541,-1.541,-1.541,-1.541,-1.463,-1.428,-1.4746,-1.3659,-1.3057,-1.3477,-1.3125,-1.2905,-1.2905,-1.3656,-1.4114,-1.4114,-1.4933,-1.541,-1.541,-1.541,-1.541,-1.541,-1.6151,-1.6122,-1.5497,-1.7704,-1.8313,-1.7677,-1.9176,-1.9798,-1.9798,-1.9798,-1.9798,-1.9798,-1.9798,-1.9798,-1.9798,-1.9798,-1.9798,-1.9798,-0.707,-0.8385,-0.9704,-1.0176,-1.0725,-1.1383,-1.2062,-1.2245,-1.2305,-1.2305,-1.2305,-1.2305,-1.2305,-1.2305,-1.2184,-1.1933,-1.1906,-1.1866,-1.1744,-1.1931,-1.2118,-1.2291,-1.2024,-1.1946,-1.2033,-1.2198,-1.2305,-1.2305,-1.2305,-1.2305,-1.2305,-1.2305,-1.2445,-1.2732,-1.3419,-1.3882,-1.4207,-1.5199,-1.5623,-1.5641,-1.5783,-1.5797,-1.5707,-1.5578,-1.5487,-1.541,-1.541,-1.541,-1.541,-1.541,-1.541,-1.541,-1.541,-1.541,-1.541,-1.541,-1.541,-1.541,-1.541,-1.541,-1.541,-1.541,-1.541,-1.541,-1.541,-1.541,-1.541,-1.541,-1.541,-1.541,-1.541,-1.541,-1.5312,-1.5019,-1.5215,-1.5312,-1.501,-1.5225,-1.541,-1.541,-1.463,-1.428,-1.4746,-1.3896,-1.3369,-1.3496,-1.3389,-1.332,-1.332,-1.4131,-1.459,-1.459,-1.5127,-1.541,-1.541,-1.541,-1.541,-1.541,-1.5613,-1.5892,-1.6208,-1.7385,-1.8085,-1.8421,-1.9385,-1.9798,-1.9798,-1.9798,-1.9798,-1.9798,-1.9798,-1.9798,-1.9798,-1.9798,-1.9798,-1.9798,-0.6565,-0.7586,-0.8707,-0.9264,-0.9835,-1.0565,-1.1545,-1.1694,-1.1848,-1.2261,-1.2305,-1.2305,-1.2305,-1.2305,-1.2184,-1.1933,-1.1906,-1.1953,-1.2067,-1.2204,-1.2305,-1.2305,-1.2131,-1.2074,-1.2074,-1.2211,-1.2305,-1.2305,-1.2305,-1.2305,-1.2305,-1.2305,-1.2305,-1.2335,-1.2879,-1.3135,-1.32,-1.4199,-1.4593,-1.4605,-1.471,-1.4782,-1.48,-1.4496,-1.4413,-1.4451,-1.4451,-1.4451,-1.4451,-1.4451,-1.4658,-1.4991,-1.5294,-1.541,-1.541,-1.541,-1.541,-1.541,-1.541,-1.541,-1.541,-1.541,-1.541,-1.541,-1.541,-1.541,-1.541,-1.541,-1.541,-1.541,-1.541,-1.541,-1.5322,-1.5078,-1.5107,-1.5127,-1.5049,-1.5107,-1.5225,-1.5391,-1.463,-1.428,-1.4746,-1.3857,-1.3262,-1.3262,-1.3418,-1.3506,-1.3506,-1.4316,-1.4813,-1.4813,-1.5195,-1.541,-1.541,-1.541,-1.5555,-1.5835,-1.5835,-1.6226,-1.695,-1.7715,-1.8286,-1.8741,-1.9475,-1.9798,-1.9798,-1.9798,-1.9798,-1.9798,-1.9798,-1.9798,-1.9798,-1.9798,-1.9798,-1.9798,-0.5925,-0.6626,-0.7315,-0.7719,-0.8542,-0.9518,-1.0522,-1.0671,-1.1013,-1.2033,-1.215,-1.2187,-1.2298,-1.2305,-1.2198,-1.1966,-1.1946,-1.206,-1.2285,-1.2305,-1.2305,-1.2305,-1.2305,-1.2305,-1.2305,-1.2305,-1.2305,-1.2305,-1.2305,-1.2305,-1.2305,-1.2305,-1.2305,-1.2305,-1.2305,-1.2305,-1.2378,-1.32,-1.3564,-1.3585,-1.3802,-1.3916,-1.3917,-1.3198,-1.2972,-1.3009,-1.3009,-1.3009,-1.3009,-1.3009,-1.3494,-1.4213,-1.4962,-1.5206,-1.5206,-1.5206,-1.5206,-1.5206,-1.5206,-1.5206,-1.5196,-1.5255,-1.5294,-1.5323,-1.5381,-1.541,-1.541,-1.541,-1.541,-1.541,-1.541,-1.541,-1.54,-1.5361,-1.5039,-1.4902,-1.5254,-1.4971,-1.4863,-1.5254,-1.4552,-1.4221,-1.4687,-1.3668,-1.2964,-1.2964,-1.333,-1.3539,-1.3539,-1.4375,-1.4844,-1.4844,-1.5215,-1.541,-1.541,-1.541,-1.5729,-1.6397,-1.6464,-1.6894,-1.7633,-1.8355,-1.8741,-1.8847,-1.9501,-1.9798,-1.9798,-1.9798,-1.9798,-1.9798,-1.9798,-1.9798,-1.9798,-1.9798,-1.9798,-1.9798,-0.581,-0.6065,-0.6589,-0.7626,-0.797,-0.8466,-0.948,-0.9631,-0.997,-1.0975,-1.1124,-1.1428,-1.2224,-1.2305,-1.2278,-1.2218,-1.2204,-1.2231,-1.2298,-1.2305,-1.2305,-1.2305,-1.2305,-1.2305,-1.2305,-1.2305,-1.2305,-1.2305,-1.2305,-1.2305,-1.2305,-1.2305,-1.2305,-1.2305,-1.2305,-1.2305,-1.2298,-1.2519,-1.2592,-1.2595,-1.2437,-1.2628,-1.2963,-1.2537,-1.2617,-1.3009,-1.3009,-1.3009,-1.3009,-1.3009,-1.313,-1.3274,-1.3463,-1.3515,-1.3515,-1.3515,-1.3515,-1.3515,-1.3515,-1.3515,-1.3666,-1.4302,-1.4451,-1.4628,-1.5264,-1.541,-1.541,-1.541,-1.541,-1.541,-1.541,-1.541,-1.5303,-1.4971,-1.4872,-1.4697,-1.4416,-1.4309,-1.428,-1.4377,-1.3929,-1.3782,-1.4211,-1.373,-1.3369,-1.3369,-1.3734,-1.3968,-1.3968,-1.4814,-1.5273,-1.5273,-1.5361,-1.541,-1.541,-1.541,-1.5468,-1.5642,-1.6208,-1.6894,-1.7633,-1.8355,-1.9018,-1.9553,-1.9721,-1.9798,-1.9798,-1.9798,-1.9798,-1.9798,-1.9798,-1.9798,-1.9798,-1.9798,-1.9798,-1.9798,-0.5671,-0.582,-0.6113,-0.6832,-0.7004,-0.7442,-0.8428,-0.858,-0.8955,-0.9965,-1.0078,-1.0453,-1.1465,-1.1583,-1.1768,-1.2261,-1.2305,-1.2305,-1.2305,-1.2305,-1.2305,-1.2305,-1.2305,-1.2305,-1.2305,-1.2305,-1.2305,-1.2305,-1.2305,-1.2305,-1.2305,-1.2305,-1.2305,-1.2305,-1.2305,-1.2305,-1.2305,-1.2305,-1.2305,-1.2278,-1.202,-1.197,-1.2036,-1.1744,-1.172,-1.1849,-1.1849,-1.1849,-1.1911,-1.2297,-1.242,-1.2481,-1.2887,-1.3009,-1.3009,-1.3009,-1.3009,-1.3009,-1.3009,-1.3009,-1.3183,-1.3995,-1.4213,-1.4421,-1.5235,-1.541,-1.541,-1.541,-1.541,-1.541,-1.541,-1.541,-1.5342,-1.5117,-1.4922,-1.4707,-1.4473,-1.4241,-1.4104,-1.4104,-1.3734,-1.3516,-1.3535,-1.334,-1.3213,-1.3213,-1.3753,-1.4104,-1.4104,-1.4923,-1.541,-1.541,-1.541,-1.541,-1.541,-1.541,-1.541,-1.541,-1.6151,-1.6894,-1.7633,-1.8355,-1.89,-1.9281,-1.9643,-1.9798,-1.9798,-1.9798,-1.9798,-1.9798,-1.9798,-1.9798,-1.9798,-1.9798,-1.9798,-1.9798,-0.5593,-0.5722,-0.5857,-0.6037,-0.6176,-0.6567,-0.7403,-0.7557,-0.7897,-0.8917,-0.9031,-0.9448,-1.0415,-1.0708,-1.1199,-1.2224,-1.2305,-1.2305,-1.2305,-1.2305,-1.2305,-1.2305,-1.2305,-1.2305,-1.2305,-1.2305,-1.2305,-1.2305,-1.2305,-1.2305,-1.2305,-1.2305,-1.2305,-1.2305,-1.2305,-1.2305,-1.2305,-1.2305,-1.2305,-1.2278,-1.202,-1.1724,-1.1463,-1.1122,-1.0875,-1.0727,-1.0626,-1.0593,-1.0713,-1.1375,-1.1586,-1.171,-1.2366,-1.2581,-1.2581,-1.2581,-1.2581,-1.2581,-1.2581,-1.2581,-1.2826,-1.3756,-1.3995,-1.4243,-1.5206,-1.541,-1.541,-1.541,-1.541,-1.541,-1.541,-1.541,-1.541,-1.541,-1.5059,-1.4756,-1.4687,-1.4338,-1.4055,-1.3909,-1.3613,-1.3262,-1.2935,-1.2964,-1.2988,-1.2988,-1.3769,-1.4221,-1.4221,-1.4962,-1.541,-1.541,-1.541,-1.541,-1.541,-1.541,-1.541,-1.541,-1.6007,-1.6698,-1.744,-1.8447,-1.8821,-1.8741,-1.9475,-1.9798,-1.9798,-1.9798,-1.9798,-1.9798,-1.9798,-1.9798,-1.9798,-1.9798,-1.9798,-1.9798,-0.5718,-0.5789,-0.5891,-0.6218,-0.6286,-0.6338,-0.649,-0.649,-0.6872,-0.7859,-0.8012,-0.8389,-0.941,-1.0265,-1.1199,-1.2224,-1.2305,-1.2305,-1.2305,-1.2305,-1.2305,-1.2305,-1.2305,-1.2305,-1.2305,-1.2305,-1.2305,-1.2305,-1.2305,-1.2305,-1.2305,-1.2305,-1.2305,-1.2305,-1.2305,-1.2305,-1.2305,-1.2305,-1.2305,-1.2278,-1.202,-1.1879,-1.1785,-1.1202,-1.1122,-1.1243,-1.0774,-1.0593,-1.0624,-1.0713,-1.0776,-1.0776,-1.0902,-1.0926,-1.0926,-1.0926,-1.0926,-1.0926,-1.0926,-1.0926,-1.1264,-1.2795,-1.3161,-1.3545,-1.505,-1.541,-1.541,-1.541,-1.541,-1.541,-1.541,-1.541,-1.541,-1.541,-1.5059,-1.4658,-1.425,-1.4143,-1.3841,-1.3135,-1.2998,-1.2964,-1.2915,-1.3213,-1.3418,-1.3418,-1.4219,-1.4697,-1.4697,-1.5156,-1.541,-1.541,-1.541,-1.541,-1.541,-1.541,-1.541,-1.541,-1.5497,-1.595,-1.6708,-1.8741,-1.9307,-1.8741,-1.9475,-1.9798,-1.9798,-1.9798,-1.9798,-1.9798,-1.9798,-1.9798,-1.9798,-1.9798,-1.9798,-1.9798,-0.564,-0.5745,-0.5871,-0.6091,-0.6242,-0.63,-0.63,-0.63,-0.6451,-0.6911,-0.6945,-0.7326,-0.8351,-0.9852,-1.0975,-1.1428,-1.1959,-1.2305,-1.2305,-1.2305,-1.2305,-1.2305,-1.2305,-1.2305,-1.2305,-1.2305,-1.2305,-1.2305,-1.2305,-1.2305,-1.2305,-1.2305,-1.2305,-1.2305,-1.2305,-1.2305,-1.2305,-1.2305,-1.2305,-1.2291,-1.2164,-1.2011,-1.1873,-1.1618,-1.1456,-1.1362,-1.1136,-1.0942,-1.0834,-1.0834,-1.0727,-1.0593,-1.0593,-1.0593,-1.0593,-1.0593,-1.0593,-1.0593,-1.0593,-1.0593,-1.0989,-1.2612,-1.3009,-1.3425,-1.5021,-1.541,-1.541,-1.541,-1.541,-1.541,-1.541,-1.541,-1.541,-1.541,-1.5254,-1.499,-1.4561,-1.4492,-1.4268,-1.3627,-1.3584,-1.3584,-1.3584,-1.3724,-1.3831,-1.3831,-1.4434,-1.4813,-1.4813,-1.5186,-1.541,-1.541,-1.541,-1.541,-1.541,-1.541,-1.541,-1.541,-1.5806,-1.6179,-1.6549,-1.7922,-1.8608,-1.8741,-1.9475,-1.9798,-1.9798,-1.9798,-1.9798,-1.9798,-1.9798,-1.9798,-1.9798,-1.9798,-1.9798,-1.9798]}]]